     2.10           OBSERVATION DATA    G (GPS)             RINEX VERSION / TYPE
teqc 2005May6 SOPAC 20050707 00:23:15UTC                    PGM / RUN BY / DATE
Linux 2.4.20-8|Pentium IV|gcc|Linux|486/DX+                 COMMENT
BIT 2 OF LLI FLAGS DATA COLLECTED UNDER A/S CONDITION       COMMENT
HPGN D CA 01 TD                                             MARKER NAME
01TD                                                        MARKER NUMBER
Tom Stephens                                                OBSERVER / AGENCY
0440100994 TRIMBLE 5700 2.01                                REC # / TYPE / VERS
12354346 TRM41249.00 NONE                                   ANT # / TYPE
 -2670149.0000 -3995315.0000  4179885.0000                  APPROX POSITION XYZ
        1.8000        0.0000        0.0000                  ANTENNA: DELTA H/E/N
     1     1                                                WAVELENGTH FACT L1/2
     6    L1    L2    C1    P2    P1    D1                  # / TYPES OF OBSERV
    15.0000                                                 INTERVAL
Northern California Height Modernization 2004               COMMENT
                                                            COMMENT
SOPAC - Scripps Orbit and Permanent Array Center            COMMENT
IGPP - Institute of Geophysics and Planetary Physics        COMMENT
SIO - Scripps Institution of Oceanography                   COMMENT
UCSD - University of California, San Diego                  COMMENT
                                                            COMMENT
email: archive@gpsmail.ucsd.edu                             COMMENT
ftp://garner.ucsd.edu                                       COMMENT
http://sopac.ucsd.edu                                       COMMENT
                                                            COMMENT
                                                            COMMENT
Approximate Lat, Lon : 41.200, -123.750                     COMMENT
                                                            COMMENT
SNR is mapped to RINEX snr flag value [0-9]                 COMMENT
L1 & L2: 2-19 dBHz = 1, 20-27 dBHz = 2, 28-31 dBHz = 3      COMMENT
32-35 dBHz = 4, 36-38 dBHz = 5, 39-41 dBHz = 6              COMMENT
42-44 dBHz = 7, 45-48 dBHz = 8, >= 49 dBHz = 9              COMMENT
  2004     9     7    21     0   30.0000000     GPS         TIME OF FIRST OBS
                                                            END OF HEADER
 04  9  7 21  0 30.0000000  0  4G 8G13G23G27
   -163460.18058    -90657.80553  22931532.8524   22931532.7934

    -63534.23859    -37846.67656  20116971.8834   20116969.7424
     32721.76659
     12926.79755                  21254715.6954   21254711.9344

   -110933.35559    -61539.80955  21415898.0084   21415896.8594

 04  9  7 21  0 45.0000000  0  4G 8G13G23G27
   -223836.88748   -137704.55143  22920043.8674   22920043.8324
      4025.1144
    -87887.47749    -56823.23446  20112337.5084   20112335.2934
      1623.5494
     44971.21549     22471.78945  21257047.3984   21257042.9104
      -816.6304
   -152187.01249    -93685.51245  21408047.3444   21408046.2114
      2750.2444
 04  9  7 21  1  0.0000000  0  4G 8G13G23G27
   -284235.28948   -184768.22743  22908550.0704   22908550.3954
      4026.5604
   -112200.32449    -75768.32046  20107710.8054   20107708.3914
      1620.8574
     57245.68849     32036.28945  21259383.1174   21259379.1094
      -818.2984
   -193455.41849   -125842.71146  21400194.5554   21400193.4184
      2751.2274
 04  9  7 21  1 15.0000000  0  4G 8G13G23G27
   -344629.59448   -231828.71543  22897057.5234   22897056.5744
      4026.2874
   -136446.97749    -94661.83246  20103097.0944   20103094.4654
      1616.4434
     69570.61349     41640.08245  21261728.6174   21261725.0514
      -821.6624
   -234713.03549   -157991.50846  21392343.5864   21392342.5204
      2750.5084
 04  9  7 21  1 30.0000000  0  4G 8G13G23G27
   -405005.13348   -278874.57443  22885568.4774   22885568.4144
      4025.0364
   -160612.84849   -113492.39146  20098498.2504   20098495.8954
      1611.0584
     81960.37149     51294.39545  21264086.2194   21264082.9614
      -825.9844
   -275945.24249   -190120.49246  21384497.6024   21384495.9224
      2748.8144
 04  9  7 21  1 45.0000000  0  4G 8G13G23G27
   -465359.07048   -325903.61343  22874082.7194   22874082.8984
      4023.5964
   -184694.85249   -132257.59446  20093915.5164   20093913.6094
      1605.4674
     94417.86349     61001.50445  21266456.8204   21266453.5634
      -830.4994
   -317149.21549   -222227.48446  21376656.1724   21376655.2504
      2746.9324
 04  9  7 21  2  0.0000000  0  4G 8G13G23G27
   -525688.32048   -372913.40643  22862602.8134   22862602.8874
      4021.9504
   -208689.86349   -150955.01646  20089349.7034   20089347.4734
      1599.6674
    106946.05949     70763.70346  21268840.7424   21268837.6524
      -835.2134
   -358321.87549   -254310.07845  21368821.6024   21368820.2894
      2744.8444
 04  9  7 21  2 15.0000000  0  4G 8G13G23G27
   -585992.19148   -419903.42643  22851128.6414   22851127.5314
      4020.2584
   -232597.14149   -169584.06646  20084800.0784   20084798.1914
      1593.8184
    119545.37149     80581.32445  21271237.9774   21271235.2624
      -839.9544
   -399462.69549   -286367.85545  21360993.1024   21360991.6214
      2742.7214
 04  9  7 21  2 30.0000000  0  4G 8G13G23G27
   -646271.53548   -466874.34443  22839657.2034   22839656.9534
      4018.6234
   -256417.69549   -188145.55546  20080267.4224   20080265.3014
      1588.0374
    132214.71149     90453.50845  21273649.3134   21273646.0274
      -844.6234
   -440572.96949   -318401.82445  21353169.3364   21353168.3244
      2740.6854
 04  9  7 21  2 44.9990000  0  4G 8G13G23G27
   -706517.69948   -513819.39143  22828191.9174   22828191.7104
      4016.4114
   -280144.93449   -206634.31646  20075751.7924   20075749.9604
      1581.8164
    144958.05949    100383.36745  21276074.2374   21276070.9954
      -849.5574
   -481644.96149   -350405.98046  21345353.9564   21345353.0464
      2738.1334
 04  9  7 21  2 59.9990000  0  4G 8G13G23G27
   -766741.94948   -560747.34042  22816731.5894   22816731.6404
      4014.9504
   -303785.22349   -225055.32846  20071253.2064   20071251.5624
      1576.0194
    157773.57449    110369.44945  21278513.0424   21278509.5734
      -854.3684
   -522687.52349   -382387.19546  21337543.5814   21337542.3154
      2736.1714
 04  9  7 21  3 14.9990000  0  4G 8G13G23G27
   -826939.12947   -607654.26242  22805276.5814   22805276.1474
      4013.1454
   -327335.59849   -243406.28146  20066772.1674   20066770.0544
      1570.0254
    170661.62149    120412.09045  21280965.2534   21280961.7884
      -859.2034
   -563696.62149   -414342.33246  21329740.1904   21329738.7654
      2733.9404
 04  9  7 21  3 29.9990000  0  4G 8G13G23G27
   -887111.80547   -654542.03942  22793825.8944   22793825.0264
      4011.5124
   -350798.67249   -261689.21147  20062307.2534   20062304.6904
      1564.2054
    183619.41449    130509.04745  21283431.0344   21283428.4444
      -863.8534
   -604675.09849   -446273.60946  21321942.2534   21321940.9054
      2731.8984
 04  9  7 21  3 44.9990000  0  4G 8G13G23G27
   -947262.62148   -701412.77742  22782379.8944   22782379.6324
      4010.0544
   -374176.96949   -279906.07046  20057858.6904   20057855.9874
      1558.5534
    196644.19949    140658.19545  21285910.0504   21285906.8084
      -868.3194
   -645625.59449   -478183.07846  21314149.5034   21314148.3274
      2730.0334
 04  9  7 21  3 59.9990000  0  4G 8G13G23G27
  -1007391.18748   -748266.19143  22770937.9404   22770937.7654
      4008.5714
   -397470.17249   -298056.62547  20053426.2534   20053423.8084
      1552.8804
    209735.98849    150859.55145  21288401.2844   21288397.8514
      -872.7864
   -686547.93449   -510070.61746  21306362.6364   21306361.2224
      2728.1564
 04  9  7 21  4 14.9990000  0  4G 8G13G23G27
  -1067496.89147   -795101.79343  22759499.5734   22759500.3044
      4007.0474
   -420677.58249   -316140.33647  20049009.7454   20049006.8274
      1547.1614
    222895.33649    161113.56645  21290905.9484   21290901.6904
      -877.2904
   -727441.69949   -541935.89846  21298580.1984   21298579.0584
      2726.2514
 04  9  7 21  4 29.9990000  0  4G 8G13G23G27
  -1127576.80947   -841917.29343  22748065.9874   22748066.8824
      4005.3284
   -443796.10549   -334154.77746  20044610.1204   20044607.7264
      1541.2354
    236125.08249    171422.42245  21293423.2374   21293419.6124
      -881.9834
   -768303.85249   -573776.53146  21290804.7534   21290803.1164
      2724.1434
 04  9  7 21  4 44.9990000  0  4G 8G13G23G27
  -1187631.67647   -888713.27743  22736638.6754   22736638.6674
      4003.6584
   -466826.30949   -352100.40246  20040227.8154   20040225.7694
      1535.3474
    249424.50049    181785.59045  21295953.2374   21295949.9484
      -886.6284
   -809135.16849   -605593.13746  21283034.8624   21283033.5654
      2722.0884
 04  9  7 21  4 59.9990000  0  4G 8G13G23G27
  -1247661.97348   -935490.08643  22725216.1984   22725215.5304
      4002.0204
   -489768.59049   -369977.51646  20035862.5114   20035859.7804
      1529.4854
    262793.02749    192202.59445  21298497.3314   21298493.6944
      -891.2354
   -849936.02749   -637386.00846  21275270.5194   21275269.5544
      2720.0574
 04  9  7 21  5 14.9990000  0  4G 8G13G23G27
  -1307670.57048   -982250.04343  22713796.1124   22713796.4134
      4000.5734
   -512626.14149   -387788.59846  20031512.6204   20031509.9294
      1523.8374
    276227.26249    202670.78945  21301053.8474   21301051.4174
      -895.6164
   -890709.78549   -669157.77046  21267512.0034   21267510.4914
      2718.2514
 04  9  7 21  5 29.9990000  0  4G 8G13G23G27
  -1367655.82848  -1028991.78943  22702381.3234   22702381.3744
      3999.0174
   -535396.77349   -405531.95746  20027178.9874   20027177.2964
      1518.0424
    289729.16449    213191.71145  21303623.8234   21303620.3154
      -900.1274
   -931454.48849   -700906.87946  21259757.8004   21259756.9874
      2716.3144
 04  9  7 21  5 44.9990000  0  4G 8G13G23G27
  -1427618.05148  -1075715.60543  22690971.4174   22690970.7764
      3997.4824
   -558080.80149   -423207.82846  20022862.8394   20022860.6794
      1512.2684
    303298.17249    223764.93445  21306205.2614   21306202.0194
      -904.6014
   -972170.60949   -732633.71946  21252009.8784   21252009.0734
      2714.4084
 04  9  7 21  5 59.9990000  0  4G 8G13G23G27
  -1487556.02348  -1122420.50843  22679564.6364   22679565.5154
      3995.8654
   -580676.94149   -440815.22346  20018563.0584   20018560.8434
      1506.4094
    316935.32449    234391.26245  21308801.1124   21308796.7184
      -909.1434
  -1012857.00449   -764337.39846  21244267.3314   21244266.5974
      2712.4264
 04  9  7 21  6 14.9990000  0  4G 8G13G23G27
  -1547470.00048  -1169106.71143  22668163.9954   22668163.9954
      3994.2654
   -603185.34449   -458354.24246  20014279.8864   20014277.6874
      1500.5604
    330640.42649    245070.53945  21311409.1594   21311405.2304
      -913.6734
  -1053513.94549   -796018.13746  21236531.1124   21236529.8194
      2710.4634
 04  9  7 21  6 29.9990000  0  4G 8G13G23G27
  -1607359.02048  -1215773.46543  22656766.7844   22656767.3274
      3992.6014
   -625605.07849   -475824.16847  20010013.7304   20010011.1944
      1494.6494
    344414.09449    255803.26245  21314029.7844   21314025.8704
      -918.2454
  -1094140.58649   -827675.26246  21228799.8394   21228798.9644
      2708.4434
 04  9  7 21  6 44.9990000  0  4G 8G13G23G27
  -1667223.50448  -1262421.10243  22645375.8704   22645376.0814
      3990.9664
   -647936.42649   -493225.22747  20005764.0344   20005761.6714
      1488.7574
    358255.95749    266589.07445  21316663.6674   21316660.7104
      -922.7914
  -1134737.37149   -859309.11346  21221074.4094   21221073.4834
      2706.4524
 04  9  7 21  6 59.9990000  0  4G 8G13G23G27
  -1727061.68048  -1309048.21943  22633989.3864   22633989.0344
      3989.2124
   -670177.47749   -510555.92647  20001531.5504   20001529.1754
      1482.7374
    372167.43449    277429.17645  21319311.0034   21319307.2304
      -927.4324
  -1175302.61349   -890918.38746  21213354.9334   21213354.0654
      2704.3494
 04  9  7 21  7 14.9990000  0  4G 8G13G23G27
  -1786874.91848  -1355655.93743  22622606.3944   22622606.6834
      3987.5494
   -692329.66049   -527817.37546  19997315.9644   19997313.6364
      1476.8124
    386147.00449    288322.30945  21321971.8784   21321967.9254
      -931.9714
  -1215837.87149   -922504.29746  21205641.3474   21205640.3084
      2702.3514
 04  9  7 21  7 29.9990000  0  4G 8G13G23G27
  -1846662.01648  -1402243.28144  22611230.1514   22611229.6164
      3985.8074
   -714391.79349   -545008.65646  19993117.5504   19993115.3234
      1470.8094
    400195.67249    299269.27745  21324645.8004   21324641.5154
      -936.5784
  -1256342.12949   -954066.05146  21197933.8004   21197932.9874
      2700.2844
 04  9  7 21  7 44.9990000  0  4G 8G13G23G27
  -1906424.11748  -1448811.12943  22599857.6204   22599857.7574
      3984.1404
   -736364.68449   -562130.39146  19988936.4404   19988934.0194
      1464.8594
    414312.30149    310269.23845  21327330.9804   21327328.0074
      -941.1094
  -1296816.33649   -985604.39146  21190232.2694   21190230.9804
      2698.2804
 04  9  7 21  7 59.9990000  0  4G 8G13G23G27
  -1966157.96148  -1495356.98443  22588490.0504   22588490.5114
      3982.2564
   -758245.22749   -579180.17646  19984772.8084   19984770.2144
      1458.7034
    428499.87149    321324.44945  21330031.0034   21330028.0224
      -945.8384
  -1337257.39849  -1017116.90246  21182536.2304   21182535.0974
      2696.0714
 04  9  7 21  8 14.9990000  0  4G 8G13G23G27
  -2025865.72348  -1541882.48443  22577128.2064   22577128.6874
      3980.5174
   -780035.44149   -596159.56646  19980626.1754   19980623.6204
      1452.6814
    442756.21549    332433.24645  21332744.0584   21332740.2224
      -950.4234
  -1377667.53149  -1048605.32446  21174846.7064   21174845.2724
      2694.0094
 04  9  7 21  8 29.9990000  0  4G 8G13G23G27
  -2085547.90648  -1588388.07043  22565771.3394   22565771.6164
      3978.8124
   -801735.62949   -613068.80946  19976497.1904   19976494.2534
      1446.6794
    457080.80549    343595.24645  21335470.1124   21335466.1944
      -954.9734
  -1418047.10949  -1080069.92246  21167162.3154   21167161.2844
      2691.9724
 04  9  7 21  8 44.9990000  0  4G 8G13G23G27
  -2145201.64848  -1634871.48843  22554420.2614   22554420.2144
      3976.9164
   -823342.98449   -629905.71946  19972385.2534   19972382.7064
      1440.4904
    471476.15648    354812.35545  21338209.3864   21338205.8394
      -959.6904
  -1458393.65249  -1111508.78146  21159484.5114   21159483.3314
      2689.7704
 04  9  7 21  8 59.9990000  0  4G 8G13G23G27
  -2204827.59448  -1681333.25444  22543073.1754   22543073.4054
      3975.0634
   -844857.89149   -646670.58647  19968291.4724   19968288.9174
      1434.3274
    485941.72349    366084.20745  21340961.9254   21340958.4174
      -964.3714
  -1498707.56249  -1142922.21546  21151813.1364   21151811.7694
      2687.5944
 04  9  7 21  9 14.9990000  0  4G 8G13G23G27
  -2264425.91448  -1727773.50044  22531731.9644   22531731.8704
      3973.2214
   -866280.79349   -663363.76246  19964214.2844   19964212.2494
      1428.1934
    500476.78149    377410.18845  21343728.2064   21343724.8044
      -969.0044
  -1538989.36749  -1174310.62146  21144147.9484   21144146.5894
      2685.4544
 04  9  7 21  9 29.9990000  0  4G 8G13G23G27
  -2323993.20348  -1774189.55143  22520397.1054   22520396.3704
      3971.1534
   -887607.91849   -679982.30946  19960155.7614   19960153.7964
      1421.8084
    515085.00849    388793.19145  21346508.0814   21346504.0194
      -973.8824
  -1579235.51649  -1205671.26646  21136489.6674   21136488.1514
      2683.0774
 04  9  7 21  9 44.9990000  0  4G 8G13G23G27
  -2383530.56648  -1820582.27743  22509066.4404   22509067.1124
      3969.1584
   -908840.22349   -696526.96547  19956115.6444   19956113.5224
      1415.4874
    529765.23448    400232.29745  21349300.6984   21349298.4644
      -978.6824
  -1619447.13749  -1237004.98846  21128837.1364   21128835.8864
      2680.7754
 04  9  7 21  9 59.9990000  0  4G 8G13G23G27
  -2443037.30548  -1866951.15243  22497742.8944   22497743.0344
      3967.1164
   -929977.28949   -712997.41446  19952093.3474   19952090.6444
      1409.1384
    544517.63748    411727.64545  21352108.6364   21352105.8784
      -983.4934
  -1659623.79749  -1268311.47346  21121192.1444   21121190.8624
      2678.4444
 04  9  7 21 10 14.9990000  0  4G 8G13G23G27
  -2502512.36348  -1913295.34044  22486425.6284   22486425.4374
      3965.0044
   -951017.69549   -729392.53546  19948089.2614   19948087.2304
      1402.6944
    559343.43048    423280.16045  21354929.9804   21354926.9644
      -988.3864
  -1699764.33249  -1299589.80546  21113553.3234   21113552.0774
      2676.0364
 04  9  7 21 10 29.9990000  0  4G 8G13G23G27
  -2561959.08247  -1959617.44943  22475112.7534   22475112.9374
      3963.1154
   -971964.91049   -745715.05146  19944103.0424   19944101.1204
      1396.4814
    574239.01648    434887.06645  21357764.6514   21357760.5624
      -993.0394
  -1739872.24249  -1330842.71546  21105921.2694   21105919.8584
      2673.8614
 04  9  7 21 10 44.9990000  0  4G 8G13G23G27
  -2621375.84847  -2005916.21143  22463806.3394   22463805.9294
      3961.1184
   -992817.10949   -761963.52346  19940135.2844   19940132.9214
      1390.1474
    589205.84848    446549.51245  21360612.3154   21360609.1594
      -997.7894
  -1779945.99649  -1362069.01245  21098295.2534   21098294.2884
      2671.5844
 04  9  7 21 10 59.9990000  0  4G 8G13G23G27
  -2680761.23447  -2052190.52044  22452505.7534   22452505.4564
      3959.0264
  -1013572.89149   -778136.85546  19936185.4094   19936183.0854
      1383.7194
    604245.12149    458268.41445  21363474.8314   21363470.7024
     -1002.6184
  -1819984.22749  -1393267.62946  21090676.4404   21090674.7804
      2669.2154
 04  9  7 21 11 14.9990000  0  4G 8G13G23G27
  -2740112.71947  -2098438.42243  22441211.7844   22441211.2804
      3956.7664
  -1034229.43749   -794232.88346  19932254.6444   19932252.4914
      1377.1034
    619359.38749    470045.73445  21366350.7614   21366347.1084
     -1007.6184
  -1859984.26649  -1424436.49246  21083064.5344   21083063.1674
      2666.6694
 04  9  7 21 11 29.9990000  0  4G 8G13G23G27
  -2799431.42648  -2144660.76243  22429923.0654   22429923.6514
      3954.5804
  -1054787.86349   -810252.44146  19928342.7374   19928339.8784
      1370.5624
    634547.38748    481880.50845  21369240.8084   21369237.1874
     -1012.5334
  -1899947.37949  -1455576.57846  21075459.9874   21075458.6944
      2664.2084
 04  9  7 21 11 44.9990000  0  4G 8G13G23G27
  -2858717.38748  -2190857.57843  22418641.2374   22418641.9214
      3952.3974
  -1075248.43749   -826195.74646  19924448.8784   19924446.9644
      1364.0384
    649808.71948    493772.40645  21372145.0894   21372141.9764
     -1017.4224
  -1939873.94149  -1486688.18046  21067861.7454   21067860.7144
      2661.7714
 04  9  7 21 11 59.9990000  0  4G 8G13G23G27
  -2917970.42248  -2237028.77043  22407366.4094   22407365.7304
      3950.2024
  -1095610.98049   -842062.67246  19920574.3084   19920571.8274
      1357.5034
    665143.27749    505721.39545  21375063.3234   21375060.7264
     -1022.3044
  -1979763.81649  -1517771.19146  21060271.2764   21060270.1834
      2659.3254
 04  9  7 21 12 14.9990000  0  4G 8G13G23G27
  -2977189.22748  -2283173.28143  22396097.0344   22396097.2574
      3947.9204
  -1115873.76649   -857851.86747  19916718.2304   19916715.8194
      1350.8524
    680552.68849    517728.68845  21377995.5114   21377992.2694
     -1027.2944
  -2019615.55149  -1548824.48846  21052687.9954   21052686.3664
      2656.7824
 04  9  7 21 12 29.9990000  0  4G 8G13G23G27
  -3036374.85548  -2329291.91843  22384834.8154   22384834.3234
      3945.7094
  -1136037.57449   -873563.93046  19912881.4954   19912879.4954
      1344.2544
    696035.88349    529793.49645  21380942.0264   21380938.4764
     -1032.2134
  -2059429.87549  -1579848.62546  21045111.3084   21045110.3084
      2654.2884
 04  9  7 21 12 44.9990000  0  4G 8G13G23G27
  -3095527.15248  -2375384.61343  22373578.3084   22373577.6444
      3943.4864
  -1156102.53149   -889198.96147  19909063.1444   19909061.1444
      1337.6644
    711592.47349    541915.48845  21383902.0584   21383898.2304
     -1037.1064
  -2099207.24249  -1610843.98446  21037542.1054   21037540.5694
      2651.8244
 04  9  7 21 12 59.9990000  0  4G 8G13G23G27
  -3154647.79748  -2421452.62543  22362328.1984   22362328.1944
      3941.3764
  -1176070.32049   -904758.28546  19905263.2844   19905261.3584
      1331.1864
    727220.65649    554093.25845  21386876.1674   21386872.7374
     -1041.8794
  -2138949.33249  -1641811.84446  21029979.4564   21029977.5304
      2649.4734
 04  9  7 21 13 14.9990000  0  4G 8G13G23G27
  -3213734.28948  -2467494.02043  22351084.0424   22351083.8044
      3939.0994
  -1195938.32049   -920239.85246  19901482.5504   19901480.3154
      1324.5334
    742922.80948    566328.65645  21389864.5504   21389861.1714
     -1046.8104
  -2178653.70349  -1672750.31646  21022423.9094   21022422.1204
      2646.9584
 04  9  7 21 13 29.9990000  0  4G 8G13G23G27
  -3272785.81648  -2513508.17243  22339846.3474   22339846.7414
      3936.7684
  -1215705.44149   -935642.80947  19897721.1204   19897718.9014
      1317.8084
    758699.79349    578622.38345  21392866.4254   21392863.3044
     -1051.7994
  -2218319.38349  -1703658.62946  21014875.6984   21014874.3234
      2644.3794
 04  9  7 21 13 44.9990000  0  4G 8G13G23G27
  -3331799.89848  -2559493.14143  22328617.2374   22328616.8904
      3934.2724
  -1235369.20349   -950965.22747  19893979.2764   19893976.8944
      1310.9174
    774553.79349    590976.11345  21395883.5504   21395880.4724
     -1056.9334
  -2257944.05949  -1734535.00446  21007335.1904   21007333.8474
      2641.6454
 04  9  7 21 13 59.9990000  0  4G 8G13G23G27
  -3390775.20748  -2605447.91043  22317393.7304   22317393.9764
      3931.6874
  -1254928.17649   -966205.98846  19890257.1284   19890255.0934
      1303.9324
    790486.07048    603390.83245  21398915.4644   21398912.2454
     -1062.1524
  -2297526.46549  -1765378.43746  20999802.9254   20999801.8234
      2638.8274
 04  9  7 21 14 14.9990000  0  4G 8G13G23G27
  -3449712.94948  -2651373.40243  22306179.3554   22306178.1404
      3929.1834
  -1274383.80549   -981366.23047  19886555.2844   19886552.7574
      1297.0424
    806494.92649    615865.23445  21401961.5814   21401958.8664
     -1067.2574
  -2337067.98049  -1796189.99646  20992278.7924   20992277.2654
      2636.1014
 04  9  7 21 14 29.9990000  0  4G 8G13G23G27
  -3508611.62548  -2697268.43743  22294970.9564   22294970.2614
      3926.5784
  -1293734.34049   -996444.57846  19882872.9564   19882870.3354
      1290.0364
    822582.10248    628400.64845  21405022.4644   21405019.4834
     -1072.4784
  -2376566.98449  -1826968.43046  20984762.0894   20984760.4804
      2633.2674
 04  9  7 21 14 44.9990000  0  4G 8G13G23G27
  -3567471.95748  -2743133.62544  22283770.4644   22283769.7694
      3924.0224
  -1312980.43449  -1011441.54346  19879210.3624   19879207.9014
      1283.0734
    838746.66448    640996.39145  21408098.9404   21408095.1834
     -1077.6374
  -2416024.37549  -1857714.44146  20977253.4724   20977251.9804
      2630.4934
 04  9  7 21 14 59.9990000  0  4G 8G13G23G27
  -3626292.27048  -2788967.61744  22272577.0344   22272576.8234
      3921.3544
  -1332120.56649  -1026355.93747  19875568.3394   19875565.1714
      1276.0094
    854989.85248    653653.38745  21411189.8474   21411186.6514
     -1082.8794
  -2455438.60949  -1888426.83646  20969753.4404   20969751.7574
      2627.6164
 04  9  7 21 15 14.9990000  0  4G 8G13G23G27
  -3685073.17648  -2834770.89844  22261391.0344   22261390.5814
      3918.7274
  -1351155.09449  -1041188.04346  19871946.6054   19871943.3434
      1268.9684
    871311.11348    666371.23045  21414296.0584   21414292.4994
     -1088.0844
  -2494810.38749  -1919106.13746  20962261.1444   20962259.8784
      2624.7854
 04  9  7 21 15 29.9990000  0  4G 8G13G23G27
  -3743813.57848  -2880542.62144  22250213.0344   22250213.1404
      3916.0274
  -1370082.77049  -1055936.88346  19868344.5654   19868341.5624
      1261.8454
    887711.46948    679150.69544  21417416.3474   21417412.6364
     -1093.3574
  -2534138.47349  -1949751.39546  20954777.2374   20954776.0734
      2621.8724
 04  9  7 21 15 44.9990000  0  4G 8G13G23G27
  -3802514.81248  -2926283.80144  22239043.2224   22239042.6474
      3913.4164
  -1388905.07449  -1070603.61747  19864762.2534   19864759.6444
      1254.8204
    904189.21148    691990.46145  21420552.4404   21420549.0464
     -1098.5164
  -2573424.47349  -1980363.86746  20947301.4334   20947300.6874
      2619.0674
 04  9  7 21 15 59.9990000  0  4G 8G13G23G27
  -3861176.52748  -2971994.21144  22227880.2534   22227880.0934
      3910.7814
  -1407621.55149  -1085187.88747  19861200.9644   19861198.5464
      1247.7654
    920744.69948    704890.81645  21423703.1124   21423700.1674
     -1103.6994
  -2612667.97749  -2010943.20746  20939833.4334   20939832.4214
      2616.2344
 04  9  7 21 16 14.9990000  0  4G 8G13G23G27
  -3919797.01648  -3017672.48444  22216724.2064   22216724.9914
      3908.0334
  -1426230.21949  -1099688.16047  19857659.2534   19857657.3004
      1240.5784
    937379.53548    717852.99245  21426868.0264   21426865.3394
     -1108.9894
  -2651867.20749  -2041488.05946  20932374.1514   20932372.5224
      2613.2824
 04  9  7 21 16 29.9990000  0  4G 8G13G23G27
  -3978378.28548  -3063320.19144  22205577.0654   22205576.9564
      3905.4184
  -1444732.98849  -1114105.91846  19854138.7064   19854136.3664
      1233.5184
    954091.71948    730875.43445  21430048.1204   21430045.8154
     -1114.1464
  -2691024.23449  -2072000.02346  20924923.2144   20924921.5654
      2610.4684
 04  9  7 21 16 44.9990000  0  4G 8G13G23G27
  -4036918.06248  -3108935.57844  22194437.4564   22194437.0464
      3902.6524
  -1463127.85949  -1128439.59046  19850638.1204   19850635.8624
      1226.3254
    970883.01648    743959.51644  21433243.5584   21433240.2654
     -1119.4204
  -2730137.01249  -2102477.50846  20917479.8704   20917478.5504
      2607.5184
 04  9  7 21 16 59.9990000  0  4G 8G13G23G27
  -4095418.04348  -3154519.95344  22183304.9874   22183304.8314
      3899.9994
  -1481416.29349  -1142690.32846  19847158.2374   19847155.6944
      1219.2294
    987751.79348    757103.98844  21436453.9014   21436450.9874
     -1124.5854
  -2769207.23849  -2132921.84446  20910045.5194   20910043.9994
      2604.6824
 04  9  7 21 17 14.9990000  0  4G 8G13G23G27
  -4153877.09848  -3200072.44544  22172180.8394   22172180.0654
      3897.2704
  -1499596.96149  -1156857.08246  19843698.4644   19843696.5034
      1212.0454
   1004699.20348    770309.72745  21439678.7374   21439675.2844
     -1129.8274
  -2808233.62949  -2163332.00846  20902618.4874   20902617.0934
      2601.7594
 04  9  7 21 17 29.9990000  0  4G 8G13G23G27
  -4212294.01648  -3245592.09844  22161064.4804   22161064.0694
      3894.4614
  -1517668.82049  -1170939.05547  19840259.5114   19840257.2264
      1204.7914
   1021725.88348    783577.25045  21442918.9804   21442915.8904
     -1135.1124
  -2847215.30949  -2193707.34446  20895201.0654   20895199.4444
      2598.7794
 04  9  7 21 17 44.9990000  0  4G 8G13G23G27
  -4270667.90648  -3291078.21544  22149956.0264   22149955.5504
      3891.5934
  -1535631.00049  -1184935.56646  19836841.0894   19836839.1204
      1197.4794
   1038832.65248    796907.16045  21446174.1364   21446171.4954
     -1140.4514
  -2886151.34449  -2224047.10946  20887791.2534   20887790.3124
      2595.7364
 04  9  7 21 17 59.9990000  0  4G 8G13G23G27
  -4329001.98848  -3336533.32444  22138855.4334   22138855.0074
      3888.9394
  -1553486.45749  -1198848.92646  19833443.7304   19833440.9214
      1190.3644
   1056016.21548    810296.92645  21449444.4724   21449439.9684
     -1145.5714
  -2925045.10549  -2254353.93046  20880390.1054   20880388.7964
      2592.9174
 04  9  7 21 18 14.9990000  0  4G 8G13G23G27
  -4387294.32448  -3381955.88344  22127762.3474   22127762.4014
      3886.1564
  -1571233.42649  -1212677.73047  19830066.2064   19830064.0894
      1183.1314
   1073278.27348    823747.85545  21452729.4954   21452726.3624
     -1150.8044
  -2963894.79349  -2284626.41046  20872997.3624   20872996.1244
      2589.9794
 04  9  7 21 18 29.9990000  0  4G 8G13G23G27
  -4445543.42248  -3427344.77344  22116678.3004   22116678.2304
      3883.2734
  -1588870.21149  -1226420.68746  19826710.4334   19826707.5384
      1175.7864
   1090620.32448    837261.07845  21456029.1674   21456027.1204
     -1156.1374
  -3002698.69549  -2314863.21946  20865613.2844   20865611.9644
      2586.9274
 04  9  7 21 18 44.9990000  0  4G 8G13G23G27
  -4503749.98848  -3472700.50844  22105601.7374   22105601.8234
      3880.4384
  -1606397.63349  -1240078.42646  19823374.9334   19823372.4374
      1168.4954
   1108041.34448    850835.86345  21459344.1444   21459341.4444
     -1161.4014
  -3041457.75049  -2345065.08246  20858237.8784   20858236.1444
      2583.9374
 04  9  7 21 18 59.9990000  0  4G 8G13G23G27
  -4561914.35948  -3518023.38344  22094533.9334   22094533.1324
      3877.6254
  -1623815.80949  -1253651.03946  19820060.6204   19820057.9914
      1161.2124
   1125540.88748    864471.83644  21462674.5734   21462671.2264
     -1166.6364
  -3080172.35949  -2375232.30146  20850870.5424   20850869.2104
      2580.9744
 04  9  7 21 19 14.9990000  0  4G 8G13G23G27
  -4620035.67648  -3563312.67644  22083472.3704   22083473.0424
      3874.7544
  -1641123.74249  -1267137.75046  19816766.5734   19816764.3154
      1153.8624
   1143119.68848    878169.57844  21466020.3314   21466016.0504
     -1171.9204
  -3118841.67249  -2405364.23046  20843511.9254   20843510.4994
      2577.9544
 04  9  7 21 19 29.9990000  0  4G 8G13G23G27
  -4678113.39848  -3608568.02043  22072421.2064   22072421.1204
      3871.8484
  -1658320.80149  -1280538.06247  19813494.2224   19813492.0384
      1146.4714
   1160778.18048    891929.42244  21469379.3474   21469375.8624
     -1177.2334
  -3157465.05949  -2435460.37146  20836161.7144   20836160.4134
      2574.8924
 04  9  7 21 19 44.9990000  0  4G 8G13G23G27
  -4736146.82848  -3653788.84443  22061378.7454   22061377.1904
      3868.8954
  -1675406.41049  -1293851.52346  19810243.1124   19810240.4134
      1139.0414
   1178516.88348    905751.75444  21472755.6124   21472752.3044
     -1182.5804
  -3196042.09049  -2465520.39846  20828821.2224   20828820.1284
      2571.8024
 04  9  7 21 19 59.9990000  0  4G 8G13G23G27
  -4794135.82448  -3698975.03543  22050342.2144   22050342.3554
      3865.9334
  -1692380.59449  -1307078.17246  19807012.7844   19807010.6444
      1131.6124
   1196335.67248    919636.47744  21476146.4404   21476143.5624
     -1187.9194
  -3234572.57449  -2495544.15646  20821489.2844   20821487.6014
      2568.6994
 04  9  7 21 20 14.9990000  0  4G 8G13G23G27
  -4852080.46548  -3744126.69544  22039316.0034   22039316.2614
      3862.9764
  -1709242.91049  -1320217.64547  19803804.3154   19803802.0114
      1124.1544
   1214234.59848    933583.67244  21479552.7304   21479549.3974
     -1193.2624
  -3273056.49249  -2525531.62146  20814165.7534   20814164.3314
      2565.5954
 04  9  7 21 20 29.9990000  0  4G 8G13G23G27
  -4909982.76248  -3789245.32044  22028298.0194   22028297.5424
      3860.1534
  -1725995.62949  -1333271.71547  19800616.4014   19800614.0074
      1116.8484
   1232211.21548    947591.39545  21482973.5264   21482970.8234
     -1198.4414
  -3311496.04349  -2555484.51646  20806850.8784   20806849.4094
      2562.6374
 04  9  7 21 20 44.9990000  0  4G 8G13G23G27
  -4967841.79748  -3834330.25444  22017287.6054   22017287.5344
      3857.2694
  -1742637.80149  -1346239.64846  19797449.3004   19797447.0384
      1109.4784
   1250266.30948    961660.25444  21486409.3234   21486406.0934
     -1203.6734
  -3349890.55149  -2585402.30146  20799544.7924   20799543.3904
      2559.6344
 04  9  7 21 20 59.9990000  0  4G 8G13G23G27
  -5025654.51648  -3879379.10544  22006286.3554   22006286.0114
      3854.1814
  -1759166.25449  -1359118.97746  19794304.1054   19794301.7264
      1101.8974
   1268402.78148    975792.54744  21489860.3624   21489857.0584
     -1209.0984
  -3388236.93049  -2615282.59846  20792247.5114   20792246.2614
      2556.4254
 04  9  7 21 21 14.9990000  0  4G 8G13G23G27
  -5083424.53548  -3924394.69144  21995293.1124   21995292.6324
      3851.3354
  -1775584.50849  -1371912.42646  19791179.7694   19791177.6164
      1094.5504
   1286616.80948    989985.27044  21493327.0504   21493322.7184
     -1214.2684
  -3426538.67649  -2645128.11346  20784959.0034   20784957.3824
      2553.4504
 04  9  7 21 21 29.9980000  0  4G 8G13G23G27
  -5141144.72748  -3969371.44143  21984309.4674   21984308.7954
      3848.0134
  -1791888.21549  -1384616.62147  19788077.4124   19788074.7874
      1086.9144
   1304910.27748   1004239.89544  21496807.4044   21496804.2174
     -1219.5654
  -3464790.21149  -2674934.49646  20777679.9124   20777678.8144
      2550.1024
 04  9  7 21 21 44.9980000  0  4G 8G13G23G27
  -5198821.00848  -4014313.96944  21973334.1004   21973333.8894
      3845.0854
  -1808077.84449  -1397231.92246  19784996.3424   19784994.3074
      1079.3094
   1323287.14848   1018559.48444  21500304.3894   21500301.9904
     -1225.1254
  -3502994.93749  -2704704.40646  20770409.5144   20770408.4394
      2546.9824
 04  9  7 21 21 59.9980000  0  4G 8G13G23G27
  -5256451.18448  -4059220.57844  21962366.9204   21962366.9204
      3842.0124
  -1824153.73449  -1409758.59447  19781937.3894   19781935.3034
      1071.7264
   1341744.58648   1032941.86744  21503816.8344   21503813.7404
     -1230.4964
  -3541151.97349  -2734437.16046  20763148.8184   20763147.5414
      2543.8024
 04  9  7 21 22 14.9980000  0  4G 8G13G23G27
  -5314034.71548  -4104090.83244  21951408.9754   21951408.9434
      3838.9024
  -1840115.25449  -1422196.15246  19778899.9824   19778897.7014
      1064.1014
   1360283.02348   1047387.39144  21507344.9044   21507340.8424
     -1235.8964
  -3579260.54749  -2764132.15646  20755896.9364   20755895.6824
      2540.5724
 04  9  7 21 22 29.9980000  0  4G 8G13G23G27
  -5371571.87148  -4148924.96144  21940459.7954   21940459.4714
      3835.8104
  -1855962.77749  -1434544.88346  19775884.3034   19775882.0184
      1056.5024
   1378901.91048   1061895.60944  21510887.8114   21510884.4474
     -1241.2594
  -3617321.30149  -2793789.87946  20748654.4044   20748652.9204
      2537.3844
 04  9  7 21 22 44.9980000  0  4G 8G13G23G27
  -5429061.36348  -4193721.94144  21929520.7324   21929519.5294
      3832.6334
  -1871694.89149  -1446803.68746  19772890.6934   19772888.6394
      1048.8084
   1397602.43448   1076467.40244  21514446.4434   21514443.1474
     -1246.7024
  -3655332.82449  -2823409.24646  20741420.9674   20741419.4904
      2534.1024
 04  9  7 21 22 59.9980000  0  4G 8G13G23G27
  -5486504.84048  -4238483.09444  21918589.6784   21918588.7684
      3829.5654
  -1887313.16449  -1458973.78146  19769918.7484   19769916.7174
      1041.2184
   1416382.80948   1091101.40244  21518019.7254   21518017.3544
     -1252.0254
  -3693296.81649  -2852991.56646  20734196.8424   20734195.4864
      2530.9334
 04  9  7 21 23 14.9980000  0  4G 8G13G23G27
  -5543900.36748  -4283206.85544  21907668.3264   21907667.0374
      3826.3684
  -1902815.72749  -1471053.69946  19766968.4434   19766966.4634
      1033.5044
   1435244.67248   1105798.92644  21521609.6624   21521606.2914
     -1257.4584
  -3731211.52749  -2882535.49646  20726981.8654   20726980.4394
      2527.6474
 04  9  7 21 23 29.9980000  0  4G 8G13G23G27
  -5601248.00048  -4327893.30144  21896754.3264   21896754.1004
      3823.1764
  -1918202.55149  -1483043.43446  19764040.7724   19764038.4364
      1025.7884
   1454187.83648   1120559.80544  21525214.6234   21525211.8854
     -1262.8784
  -3769076.91049  -2912040.99246  20719776.1934   20719774.8934
      2524.3594
 04  9  7 21 23 44.9980000  0  4G 8G13G23G27
  -5658548.36348  -4372542.92244  21885850.8654   21885850.7874
      3820.0244
  -1933474.21949  -1494943.44146  19761134.4754   19761132.2834
      1018.1114
   1473211.57848   1135383.46544  21528834.3894   21528832.0104
     -1268.2494
  -3806893.79749  -2941508.69146  20712580.0764   20712578.1864
      2521.1264
 04  9  7 21 23 59.9980000  0  4G 8G13G23G27
  -5715800.24248  -4417154.76644  21874956.0684   21874956.0534
      3816.7924
  -1948629.78949  -1506752.98446  19758250.4204   19758248.5024
      1010.3714
   1492316.75448   1150270.57844  21532469.4754   21532467.5144
     -1273.6784
  -3844660.98849  -2970937.65646  20705392.7484   20705391.4984
      2517.8134
 04  9  7 21 24 14.9980000  0  4G 8G13G23G27
  -5773000.19948  -4461726.13744  21864070.4204   21864070.7834
      3813.3304
  -1963665.49649  -1518469.12146  19755389.6864   19755386.6314
      1002.3804
   1511506.77749   1165223.79744  21536122.1004   21536118.7444
     -1279.3354
  -3882375.16849  -3000325.33646  20698216.3034   20698214.8654
      2514.2794
 04  9  7 21 24 29.9980000  0  4G 8G13G23G27
  -5830151.83248  -4506259.85244  21853195.5534   21853195.1664
      3810.1094
  -1978584.69949  -1530094.48046  19752550.0764   19752548.0494
       994.6144
   1530778.00448   1180240.31644  21539788.8814   21539785.4044
     -1284.7484
  -3920039.82049  -3029674.40646  20691048.7954   20691047.1234
      2510.9774
 04  9  7 21 24 44.9980000  0  4G 8G13G23G27
  -5887254.75048  -4550755.61344  21842329.5144   21842328.8034
      3806.8614
  -1993387.30149  -1541628.99246  19749733.3424   19749731.0104
       986.8404
   1550130.41848   1195320.09444  21543471.3894   21543469.0024
     -1290.1614
  -3957654.82049  -3058984.79746  20683891.0764   20683889.6864
      2507.6674
 04  9  7 21 24 59.9980000  0  4G 8G13G23G27
  -5944308.07448  -4595212.72344  21831471.9674   21831471.8654
      3803.5554
  -2008072.33249  -1553071.87947  19746938.6004   19746936.2094
       979.0024
   1569564.67248   1210463.62144  21547169.6004   21547167.3694
     -1295.6174
  -3995219.20749  -3088255.75046  20676742.6394   20676740.9004
      2504.2924
 04  9  7 21 25 14.9980000  0  4G 8G13G23G27
  -6001311.32048  -4639630.81244  21820625.0764   21820624.0184
      3800.2164
  -2022638.96149  -1564422.50846  19744167.0064   19744164.5574
       971.1094
   1589081.43048   1225671.45344  21550883.5374   21550880.7754
     -1301.1174
  -4032732.34449  -3117486.75846  20669603.8264   20669602.8654
      2500.8764
 04  9  7 21 25 29.9980000  0  4G 8G13G23G27
  -6058265.93448  -4684011.02044  21809786.3184   21809785.6704
      3796.9744
  -2037088.75849  -1575682.09846  19741417.3654   19741414.9284
       963.3204
   1608679.01249   1240942.28544  21554613.6154   21554609.4794
     -1306.5054
  -4070195.84449  -3146679.08246  20662475.1704   20662473.7174
      2497.5674
 04  9  7 21 25 44.9980000  0  4G 8G13G23G27
  -6115170.88348  -4728352.50444  21798957.9984   21798957.4084
      3793.6634
  -2051420.74649  -1586849.89146  19738689.6864   19738687.8304
       955.4664
   1628358.23449   1256276.70744  21558358.0454   21558355.1744
     -1311.9484
  -4107608.67649  -3175831.94546  20655355.8894   20655354.4594
      2494.1894
 04  9  7 21 25 59.9980000  0  4G 8G13G23G27
  -6172025.72348  -4772654.96944  21788139.0684   21788138.8854
      3790.3234
  -2065634.75449  -1597925.73846  19735985.0294   19735982.7014
       947.6014
   1648119.03948   1271674.71144  21562118.2014   21562115.1584
     -1317.3874
  -4144970.84449  -3204945.31646  20648245.8344   20648244.5724
      2490.8114
 04  9  7 21 26 14.9980000  0  4G 8G13G23G27
  -6228832.18748  -4816919.72344  21777328.7724   21777328.9904
      3787.0984
  -2079732.08249  -1608910.68046  19733302.5294   19733300.2874
       939.8224
   1667959.76248   1287134.98044  21565894.0614   21565890.6004
     -1322.7154
  -4182283.89849  -3234020.41446  20641145.1004   20641144.0184
      2487.5374
 04  9  7 21 26 29.9980000  0  4G 8G13G23G27
  -6285589.58248  -4861146.25044  21766528.2874   21766528.5224
      3783.8264
  -2093712.05549  -1619804.16846  19730642.1474   19730639.8184
       931.9984
   1687880.93048   1302657.94544  21569685.0294   21569681.2324
     -1328.0784
  -4219547.00449  -3263056.60546  20634054.8184   20634053.2684
      2484.2074
 04  9  7 21 26 44.9980000  0  4G 8G13G23G27
  -6342298.06648  -4905334.65244  21755736.7644   21755737.2724
      3780.5664
  -2107574.84049  -1630606.34046  19728004.0454   19728001.8854
       924.1864
   1707882.32448   1318243.40644  21573491.0294   21573487.4514
     -1333.4264
  -4256760.57449  -3292054.18046  20626972.9364   20626971.4984
      2480.9054
 04  9  7 21 26 59.9980000  0  4G 8G13G23G27
  -6398956.99648  -4949484.43744  21744955.5374   21744954.8144
      3777.2624
  -2121319.76249  -1641316.67646  19725389.1154   19725386.5224
       916.3284
   1727964.34848   1333891.68444  21577312.7324   21577309.2724
     -1338.8024
  -4293923.76649  -3321012.51646  20619901.0534   20619899.7684
      2477.5464
 04  9  7 21 27 14.9980000  0  4G 8G13G23G27
  -6455565.14148  -4993594.66044  21734183.2404   21734182.5644
      3773.8764
  -2134945.58649  -1651934.20746  19722796.1474   19722793.6704
       908.3884
   1748127.94948   1349603.56644  21581149.5924   21581146.3814
     -1344.2404
  -4331035.62549  -3349930.83646  20612838.9204   20612837.3224
      2474.1244
 04  9  7 21 27 29.9980000  0  4G 8G13G23G27
  -6512122.48048  -5037665.29344  21723420.4284   21723420.3544
      3770.4894
  -2148452.41049  -1662459.01646  19720225.1474   19720223.3034
       900.4554
   1768372.88348   1365378.80544  21585001.5764   21584999.6824
     -1349.6624
  -4368096.33649  -3378809.30946  20605786.3974   20605785.0064
      2470.7144
 04  9  7 21 27 44.9980000  0  4G 8G13G23G27
  -6568630.82849  -5081697.73844  21712667.7484   21712667.3144
      3767.2234
  -2161841.77749  -1672892.29746  19717677.6864   19717675.3574
       892.6244
   1788697.41848   1381216.06344  21588869.6314   21588867.3184
     -1354.9694
  -4405107.46149  -3407649.15246  20598743.2874   20598742.0644
      2467.4084
 04  9  7 21 27 59.9980000  0  4G 8G13G23G27
  -6625090.54348  -5125692.30544  21701923.3814   21701922.8034
      3763.9814
  -2175114.07449  -1683234.35546  19715151.8894   19715149.5254
       884.8204
   1809100.84448   1397114.79744  21592751.8974   21592750.6354
     -1360.2284
  -4442069.60249  -3436450.80946  20591709.4044   20591708.6194
      2464.1434
 04  9  7 21 28 14.9980000  0  4G 8G13G23G27
  -6681498.77348  -5169646.75844  21691189.2404   21691188.6044
      3760.5494
  -2188266.52749  -1693483.03546  19712649.1004   19712646.8694
       876.8304
   1829585.91448   1413077.14144  21596650.5064   21596647.9204
     -1365.6714
  -4478979.96149  -3465212.12546  20584686.0374   20584684.7364
      2460.6914
 04  9  7 21 28 29.9980000  0  4G 8G13G23G27
  -6737857.33648  -5213562.50044  21680464.6704   21680463.9474
      3757.2384
  -2201300.85549  -1703639.64846  19710168.3034   19710166.4434
       868.9554
   1850150.67648   1429101.61344  21600563.6864   21600561.1664
     -1370.9844
  -4515840.11749  -3493934.32446  20577671.4434   20577670.3894
      2457.3444
 04  9  7 21 28 44.9980000  0  4G 8G13G23G27
  -6794165.25448  -5257438.78144  21669749.5144   21669749.0614
      3753.8614
  -2214215.95349  -1713703.37146  19707710.8734   19707708.7054
       861.0074
   1870795.94548   1445188.82444  21604493.2724   21604488.7134
     -1376.3514
  -4552649.29749  -3522616.78546  20570666.8114   20570665.8224
      2453.9454
 04  9  7 21 28 59.9980000  0  4G 8G13G23G27
  -6850422.66848  -5301275.70344  21659043.6864   21659043.7444
      3750.4944
  -2227012.16449  -1723674.44546  19705276.3344   19705274.0184
       853.0814
   1891521.27348   1461338.41044  21608436.8114   21608433.8074
     -1381.6894
  -4589407.87549  -3551259.84846  20563672.1234   20563671.1504
      2450.5724
 04  9  7 21 29 14.9980000  0  4G 8G13G23G27
  -6906630.06248  -5345073.64144  21648348.2094   21648347.8894
      3747.1604
  -2239689.88749  -1733553.19946  19702863.9984   19702861.5884
       845.1824
   1912325.87548   1477549.76644  21612395.6314   21612393.3894
     -1386.9734
  -4626116.37549  -3579863.86746  20556686.8264   20556685.8424
      2447.2334
 04  9  7 21 29 29.9980000  0  4G 8G13G23G27
  -6962788.10548  -5388833.13344  21637661.9364   21637660.9394
      3743.8704
  -2252249.73049  -1743340.09846  19700473.6074   19700471.3734
       837.3234
   1933209.14548   1493822.40244  21616369.4204   21616367.1744
     -1392.2184
  -4662775.28949  -3608429.23846  20549710.5454   20549709.4324
      2443.9284
 04  9  7 21 29 44.9980000  0  4G 8G13G23G27
  -7018898.58248  -5432555.56644  21626983.9824   21626984.2094
      3740.6984
  -2264693.50449  -1753036.55146  19698105.4824   19698103.2724
       829.5854
   1954169.01248   1510154.73444  21620358.3574   21620355.8114
     -1397.3244
  -4699386.50849  -3636957.46546  20542744.2724   20542742.7014
      2440.7484
 04  9  7 21 29 59.9980000  0  4G 8G13G23G27
  -7074957.70348  -5476237.96144  21616316.6474   21616316.2134
      3737.2754
  -2277017.46549  -1762639.64846  19695760.5614   19695757.9394
       821.5974
   1975208.99248   1526549.48444  21624362.4754   21624359.8464
     -1402.6654
  -4735946.45749  -3665445.73046  20535786.7644   20535785.6314
      2437.3304
 04  9  7 21 30 14.9980000  0  4G 8G13G23G27
  -7130966.91848  -5519881.48444  21605658.3654   21605657.5534
      3733.9484
  -2289223.00449  -1772150.46146  19693437.5614   19693435.5334
       813.7034
   1996327.50048   1543005.43044  21628380.9824   21628378.0254
     -1407.9014
  -4772456.55949  -3693895.15246  20528839.1004   20528838.0924
      2434.0074
 04  9  7 21 30 29.9980000  0  4G 8G13G23G27
  -7186926.18748  -5563486.09044  21595009.8734   21595008.5804
      3730.6184
  -2301309.95349  -1781568.86746  19691137.7644   19691135.6194
       805.7974
   2017524.62948   1559522.64144  21632414.6624   21632411.0684
     -1413.1424
  -4808916.68049  -3722305.64146  20521901.4594   20521899.5644
      2430.6754
 04  9  7 21 30 44.9980000  0  4G 8G13G23G27
  -7242835.99248  -5607052.16044  21584370.3264   21584369.3384
      3727.3204
  -2313278.57049  -1790895.07046  19688859.8034   19688857.9044
       797.9084
   2038799.65248   1576100.55544  21636462.8974   21636459.1044
     -1418.3354
  -4845327.30149  -3750677.54746  20514972.5844   20514970.9634
      2427.3754
 04  9  7 21 30 59.9980000  0  4G 8G13G23G27
  -7298696.09448  -5650579.48444  21573740.3264   21573739.3894
      3724.0074
  -2325129.06649  -1800129.23846  19686604.8814   19686602.6974
       790.0334
   2060152.49648   1592739.09044  21640526.4514   21640523.2014
     -1423.5234
  -4881688.46149  -3779010.92246  20508053.1074   20508051.9434
      2424.0774
 04  9  7 21 31 14.9980000  0  4G 8G13G23G27
  -7354505.48448  -5694067.29744  21563120.5224   21563119.8694
      3720.6264
  -2336860.19549  -1809270.37546  19684372.9044   19684370.4474
       782.0754
   2081584.08248   1609439.00444  21644605.1394   21644602.2484
     -1428.7724
  -4917999.06249  -3807304.88746  20501143.7094   20501141.7404
      2420.7074
 04  9  7 21 31 29.9980000  0  4G 8G13G23G27
  -7410263.52048  -5737515.10244  21552509.8034   21552509.0334
      3717.2024
  -2348471.08249  -1818317.82446  19682163.4984   19682160.9634
       774.0594
   2103094.95348   1626200.68044  21648698.4514   21648695.3224
     -1434.0584
  -4954258.35549  -3835558.87946  20494243.2324   20494242.1894
      2417.2864
 04  9  7 21 31 44.9980000  0  4G 8G13G23G27
  -7465970.44948  -5780923.07044  21541909.6474   21541908.5614
      3713.7954
  -2359962.36749  -1827272.08246  19679976.6074   19679974.3464
       766.0864
   2124684.32048   1643023.52744  21652806.4984   21652804.8894
     -1439.2914
  -4990466.89849  -3863773.32046  20487353.1864   20487351.9904
      2413.9034
 04  9  7 21 31 59.9980000  0  4G 8G13G23G27
  -7521629.23048  -5824293.53544  21531318.2404   21531316.6474
      3710.5854
  -2371336.64849  -1836135.16446  19677811.6234   19677809.7754
       758.2854
   2146349.27348   1659905.25444  21656928.9824   21656926.3384
     -1444.3304
  -5026627.64549  -3891950.52746  20480472.4904   20480470.8774
      2410.7164
 04  9  7 21 32 14.9980000  0  5G19G 8G13G23G27
   -337254.56214                  22980279.881

  -7577238.39548  -5867625.33244  21520735.5224   21520734.2564
      3707.2784
  -2382592.90649  -1844906.28546  19675670.1234   19675667.6074
       750.4174
   2168090.92248   1676846.78144  21661066.2874   21661063.9004
     -1449.4434
  -5062739.31249  -3920089.48046  20473599.9984   20473598.8144
      2407.4454
 04  9  7 21 32 29.9980000  0  4G 8G13G23G27
  -7632797.46948  -5910918.07444  21510162.8974   21510161.9434
      3703.9384
  -2393730.42249  -1853584.87546  19673550.7874   19673548.2364
       742.5014
   2189909.77348   1693848.44944  21665218.8184   21665215.5964
     -1454.5904
  -5098801.28149  -3948189.71946  20466737.9674   20466736.5724
      2404.1314
 04  9  7 21 32 44.9980000  0  5G19G 8G13G23G27
   -449587.64514                  22958903.490

  -7688306.87148  -5954172.14144  21499599.4594   21499598.9674
      3700.6274
  -2404749.46149  -1862171.14146  19671453.6934   19671451.2834
       734.6034
   2211805.16848   1710909.77344  21669385.2094   21669382.0494
     -1459.6934
  -5134813.93749  -3976251.51646  20459885.0224   20459883.5804
      2400.8444
 04  9  7 21 32 59.9980000  0  6G10G19G 8G13G23G27
   -118009.32456    -89065.37552  23497965.9514   23497965.2174

   -505642.047 4                  22948236.967
      3736.960
  -7743767.44548  -5997388.14844  21489046.6544   21489044.9554
      3697.3724
  -2415650.94149  -1870665.80546  19669379.4984   19669376.8694
       726.7654
   2233776.12148   1728029.94144  21673565.4364   21673562.4824
     -1464.7304
  -5170778.27349  -4004275.67246  20453041.0144   20453039.7094
      2397.6224
 04  9  7 21 33 14.9980000  0  6G10G19G 8G13G23G27
   -175313.00447   -133717.56642  23487062.8654   23487061.5964
      3820.2454
   -561619.809 4                  22937583.514
      3731.851
  -7799176.73848  -6040564.20744  21478502.1474   21478501.1114
      3693.9534
  -2426432.39549  -1879066.93046  19667327.6474   19667325.3974
       718.7644
   2255824.88348   1745210.76644  21677761.8264   21677758.3264
     -1469.9174
  -5206691.83649  -4032260.26646  20446206.6154   20446205.8814
      2394.2384
 04  9  7 21 33 29.9980000  0  6G10G19G 8G13G23G27
   -232506.30146   -178283.74642  23476177.8264   23476178.2484
      3812.8864
   -617521.937 5                  22926946.022
      3726.809
  -7854536.09848  -6083701.35544  21467966.9594   21467967.1274
      3690.6244
  -2437094.99649  -1887375.46946  19665298.2094   19665296.2754
       710.8404
   2277949.95748   1762451.03144  21681971.9204   21681968.8224
     -1475.0054
  -5242556.00449  -4060206.36746  20439381.9674   20439380.9324
      2390.9454
 04  9  7 21 33 44.9980000  0  6G10G19G 8G13G23G27
   -289589.87547   -222764.44542  23465316.9434   23465315.3774
      3805.5724
   -673348.96545   -498955.24252  22916322.0454   22916319.3934
      3721.8024
  -7909846.28948  -6126800.17644  21457442.4434   21457441.4864
      3687.3464
  -2447639.72349  -1895592.14546  19663291.8734   19663289.7914
       702.9824
   2300150.16048   1779749.89844  21686196.3734   21686193.8694
     -1480.0144
  -5278371.75849  -4088114.73846  20432566.7954   20432565.3034
      2387.7174
 04  9  7 21 33 59.9980000  0  6G10G19G 8G13G23G27
   -346563.94946   -267159.83242  23454474.4044   23454473.4164
      3798.2724
   -729101.16444   -542398.42241  22905712.8974   22905710.6864
      3716.8134
  -7965107.93048  -6169861.16844  21446925.9044   21446925.2794
      3684.1094
  -2458067.20349  -1903717.45746  19661307.4984   19661305.7254
       695.1654
   2322424.93448   1797106.82444  21690435.2644   21690433.4244
     -1484.9854
  -5314139.47349  -4115985.68746  20425760.2874   20425759.0724
      2384.5144
 04  9  7 21 34 14.9980000  0  6G10G19G 8G13G23G27
   -403428.04747   -311469.49642  23443653.6004   23443652.8344
      3790.9404
   -784777.86744   -585782.80941  22895118.8424   22895116.1194
      3711.7804
  -8020320.76248  -6212884.15244  21436419.7724   21436418.7324
      3680.8554
  -2468377.24649  -1911751.27346  19659345.6784   19659343.8114
       687.3364
   2344774.10548   1814521.72344  21694688.5144   21694686.4824
     -1489.9454
  -5349859.25449  -4143819.27746  20418963.0224   20418961.4324
      2381.3194
 04  9  7 21 34 29.9980000  0  6G10G19G 8G13G23G27
   -460180.94546   -355692.53942  23432853.3654   23432852.5644
      3783.5274
   -840377.73444   -629107.31641  22884537.3974   22884535.4044
      3706.6584
  -8075483.68048  -6255868.21144  21425922.7404   21425921.6194
      3677.5284
  -2478568.60549  -1919692.59446  19657406.1544   19657404.1074
       679.4244
   2367198.74248   1831995.44144  21698955.9364   21698953.5764
     -1494.9764
  -5385529.95349  -4171614.61746  20412174.8894   20412173.6434
      2378.0474
 04  9  7 21 34 44.9980000  0  6G10G19G 8G13G23G27
   -516823.75047   -399829.76242  23422075.0454   23422073.8974
      3776.1874
   -895901.86344   -672372.82841  22873972.1234   22873969.1074
      3701.6094
  -8130598.19548  -6298814.56244  21415434.7174   21415433.7324
      3674.3014
  -2488642.84849  -1927542.66046  19655489.4754   19655487.1824
       671.6164
   2389697.12548   1849526.58644  21703237.1704   21703233.5884
     -1499.8924
  -5421153.00449  -4199372.84046  20405396.8264   20405394.9554
      2374.8704
 04  9  7 21 34 59.9980000  0  6G10G19G 8G13G23G27
   -573354.91047   -443879.99242  23411317.0064   23411316.1234
      3768.7444
   -951348.69944   -715578.11741  22863421.0924   22863418.0374
      3696.4564
  -8185662.87948  -6341722.09444  21404956.0534   21404955.5454
      3670.9794
  -2498598.62549  -1935300.42646  19653594.7174   19653593.1194
       663.7184
   2412270.41448   1867116.15644  21707532.3974   21707529.2564
     -1504.8864
  -5456727.12149  -4227092.93046  20398626.8264   20398625.5414
      2371.6084
 04  9  7 21 35 14.9980000  0  6G10G19G 8G13G23G27
   -629772.94547   -487842.07842  23400580.7484   23400579.9824
      3761.2024
  -1006716.75443   -758721.93441  22852884.1624   22852882.1074
      3691.2044
  -8240676.52748  -6384589.84844  21394486.6544   21394485.9284
      3667.5774
  -2508434.65249  -1942964.86746  19651722.8814   19651720.9324
       655.7354
   2434919.65648   1884764.84444  21711842.6394   21711839.5184
     -1509.9494
  -5492251.14849  -4254773.98446  20391867.0454   20391865.5334
      2368.2684
 04  9  7 21 35 29.9980000  0  6G10G19G 8G13G23G27
   -686077.73447   -531715.91042  23389866.4674   23389866.8224
      3753.6534
                                  22842362.9514   22842361.1504
      3685.9524
  -8295639.37548  -6427418.02044  21384028.1394   21384026.9984
      3664.1904
  -2518151.00049  -1950536.05546  19649873.9284   19649872.0614
       647.7574
   2457644.62548   1902472.58244  21716167.4594   21716164.4044
     -1514.9984
  -5527725.23849  -4282416.12546  20385116.4904   20385114.8854
      2364.9394
 04  9  7 21 35 44.9980000  0  6G10G19G 8G13G23G27
   -742272.27347   -575503.85942  23379173.4364   23379172.7214
      3746.3034
  -1117218.33253   -844827.16051  22831855.9044   22831853.7054
      3680.6994
  -8350554.53148  -6470209.02344  21373577.4674   21373577.8504
      3661.0104
  -2527750.98449  -1958016.57046  19648047.5374   19648045.1704
       639.9994
   2480441.80948   1920236.59444  21720505.3814   21720503.2794
     -1519.8124
  -5563152.66049  -4310021.90646  20378374.5454   20378372.9794
      2361.8284
 04  9  7 21 35 59.9980000  0  5G10G 8G13G23G27
   -798353.56647   -619203.56242  23368501.3034   23368501.0534
      3738.7534
  -8405419.42648  -6512960.88344  21363137.7094   21363137.0184
      3657.6604
  -2537231.87149  -1965404.28946  19646243.0454   19646241.0374
       632.0594
   2503313.63348   1938058.75044  21724858.0924   21724856.4124
     -1524.7884
  -5598530.78949  -4337589.27346  20371642.1154   20371640.8544
      2358.5424
 04  9  7 21 36 14.9980000  0  6G10G19G 8G13G23G27
   -854322.92247   -662816.04742  23357851.3264   23357850.3464
      3731.2904
  -1227407.74654   -930688.84051  22810887.6474   22810885.0064

  -8460235.32448  -6555674.55144  21352706.2564   21352705.6584
      3654.3934
  -2546595.31249  -1972700.48446  19644461.4514   19644459.4084
       624.2294
   2526258.43848   1955937.80144  21729223.9124   21729222.4794
     -1529.6544
  -5633861.17249  -4365119.44146  20364919.1704   20364917.7794
      2355.3594
 04  9  7 21 36 29.9980000  0  6G10G19G 8G13G23G27
   -910177.71147   -706339.21542  23347222.2794   23347221.3224
      3723.6534
  -1282382.53945   -973526.27741  22800427.1004   22800423.6234
      3664.9864
  -8514999.88348  -6598348.22744  21342284.8814   21342284.6504
      3650.9714
  -2555838.65249  -1979903.09446  19642702.2484   19642700.1234
       616.2234
   2549278.58248   1973875.51244  21733604.6934   21733601.7014
     -1534.6764
  -5669141.31249  -4392610.45346  20358206.2794   20358204.7094
      2352.0094
 04  9  7 21 36 44.9980000  0  6G10G19G 8G13G23G27
   -965918.31247   -749773.44142  23336614.9364   23336614.5804
      3716.0404
  -1337276.86746  -1016301.01241  22789980.7564   22789978.4594
      3659.6224
  -8569714.08248  -6640982.63344  21331873.2644   21331873.0294
      3647.6134
  -2564962.59049  -1987012.66046  19640966.3344   19640964.2874
       608.2634
   2572373.15648   1991871.27744  21737999.1314   21737996.3144
     -1539.6384
  -5704371.91049  -4420062.85546  20351501.4594   20351500.2094
      2348.7074
 04  9  7 21 36 59.9980000  0  6G10G19G 8G13G23G27
  -1021545.41047   -793119.22342  23326029.7094   23326029.4634
      3708.4734
  -1392091.40246  -1059013.65242  22779550.4904   22779548.0924
      3654.3024
  -8624378.25848  -6683578.08244  21321471.4984   21321471.0534
      3644.2784
  -2573968.07049  -1994029.93446  19639252.7014   19639250.3734
       600.3654
   2595541.07848   2009924.14844  21742408.1934   21742404.8114
     -1544.5284
  -5739553.99249  -4447477.46546  20344806.9594   20344805.2754
      2345.4724
 04  9  7 21 37 14.9980000  0  6G10G19G 8G13G23G27
  -1077055.67647   -836373.96142  23315466.5534   23315465.3114
      3700.6844
  -1446822.66046  -1101661.35942  22769134.8114   22769133.2954
      3648.7514
  -8678989.50448  -6726132.27744  21311078.8344   21311078.5924
      3640.7504
  -2582851.95749  -2000952.44546  19637562.2644   19637559.8894
       592.2594
   2618785.24648   2028036.46544  21746831.4434   21746828.9084
     -1549.6114
  -5774684.58249  -4474851.93446  20338121.3034   20338120.1504
      2342.0394
 04  9  7 21 37 29.9980000  0  6G10G19G 8G13G23G27
  -1132452.08647   -879539.97742  23304924.4824   23304923.9514
      3693.0944
  -1501473.55146  -1144246.52042  22758735.3034   22758733.6154
      3643.3934
  -8733551.04748  -6768647.74644  21300696.3344   21300695.7794
      3637.4364
  -2591617.50449  -2007782.75046  19635893.9754   19635892.1274
       584.3704
   2642102.19148   2046205.48044  21751268.2174   21751266.3854
     -1554.4634
  -5809766.76649  -4502188.70746  20331445.4124   20331444.5064
      2338.8124
 04  9  7 21 37 44.9980000  0  6G10G19G 8G13G23G27
  -1187732.95347   -922615.94942  23294404.8974   23294404.3384
      3685.3914
  -1556042.41046  -1186767.65242  22748350.7724   22748349.1664
      3637.9244
  -8788061.80148  -6811123.64144  21290323.5294   21290322.3854
      3634.0504
  -2600263.30549  -2014519.73446  19634248.9434   19634246.8074
       576.3874
   2665493.11348   2064432.10544  21755718.9984   21755717.7254
     -1559.3954
  -5844799.28949  -4529486.77746  20324779.1544   20324777.9044
      2335.5024
 04  9  7 21 37 59.9980000  0  6G10G19G 8G13G23G27
  -1242896.31246   -965600.38742  23283907.7014   23283906.9824
      3677.5574
  -1610527.18046  -1229223.19142  22737982.6474   22737980.8974
      3632.3184
  -8842519.98448  -6853558.56244  21279959.7094   21279958.9714
      3630.5464
  -2608787.73049  -2021162.16046  19632626.6784   19632624.7254
       568.2954
   2688959.59848   2082717.64544  21760184.8504   21760182.7794
     -1564.4324
  -5879780.42249  -4556744.78946  20318122.4984   20318120.9514
      2332.0764
 04  9  7 21 38 14.9980000  0  6G10G19G 8G13G23G27
  -1297943.21547  -1008494.05142  23273432.9284   23273431.9124
      3669.7934
  -1664928.84446  -1271614.04742  22727630.6234   22727629.9124
      3626.7784
  -8896926.32848  -6895953.11344  21269607.4284   21269606.0064
      3627.0904
  -2617191.94949  -2027710.91446  19631027.4124   19631025.7754
       560.2814
   2712500.12548   2101060.89144  21764664.4594   21764662.0294
     -1569.3684
  -5914711.44149  -4583963.75846  20311475.6234   20311473.8934
      2328.7354
 04  9  7 21 38 29.9980000  0  6G10G19G 8G13G23G27
  -1352872.59847  -1051296.15242  23262979.5614   23262979.3114
      3661.9594
  -1719246.21946  -1313939.21942  22717294.4904   22717293.0844
      3621.1584
  -8951280.34048  -6938306.85944  21259263.3974   21259262.8184
      3623.6014
  -2625475.20749  -2034165.40246  19629451.2954   19629449.2444
       552.2174
   2736115.47748   2119462.42644  21769158.7404   21769155.6434
     -1574.3574
  -5949591.55949  -4611143.07046  20304838.1394   20304836.4634
      2325.3414
 04  9  7 21 38 44.9980000  0  6G10G19G 8G13G23G27
  -1407686.23847  -1094008.05142  23252548.7254   23252548.5684
      3654.2434
  -1773480.83244  -1356199.87141  22706972.7484   22706972.2604
      3615.6414
  -9005584.15248  -6980621.50844  21248929.3814   21248929.0024
      3620.2544
  -2633639.50049  -2040527.19146  19627897.7324   19627895.6044
       544.2864
   2759803.48448   2137920.57044  21773666.0224   21773663.1434
     -1579.2014
  -5984422.75849  -4638284.25446  20298209.8504   20298208.3734
      2322.0804
 04  9  7 21 38 59.9980000  0  6G10G19G 8G13G23G27
  -1462383.04747  -1136628.91842  23242140.1154   23242139.7874
      3646.4544
  -1827631.69144  -1398395.30541  22696670.6004   22696667.2644
      3610.0574
  -9059836.68448  -7022896.17244  21238606.3974   21238604.9944
      3616.8354
  -2641683.82449  -2046795.50446  19626367.1074   19626364.8424
       536.2884
   2783564.81348   2156435.83644  21778187.7724   21778185.7754
     -1584.0894
  -6019204.18049  -4665386.66046  20291591.0844   20291589.7564
      2318.7614
 04  9  7 21 39 14.9980000  0  6G10G19G 8G13G23G27
  -1516962.16447  -1179158.07442  23231754.2014   23231753.8734
      3638.6084
  -1881697.89544  -1440524.81641  22686380.5294   22686378.5494
      3604.4144
  -9114037.27348  -7065130.38344  21228292.1934   21228291.1314
      3613.3734
  -2649607.78549  -2052970.02746  19624858.9284   19624856.7094
       528.2644
   2807399.68448   2175008.43844  21782723.3034   21782721.0844
     -1588.9914
  -6053935.46949  -4692450.00046  20284981.9824   20284980.3424
      2315.4194
 04  9  7 21 39 29.9980000  0  6G10G19G 8G13G23G27
  -1571428.27746  -1221599.21542  23221389.9124   23221389.3464
      3631.0744
  -1935684.00845  -1482591.90641  22676107.6934   22676105.3734
      3599.0744
  -9168190.88348  -7107327.98044  21217986.5844   21217985.8854
      3610.2414
  -2657416.34449  -2059054.62546  19623372.9594   19623370.6894
       520.5714
   2831303.02748   2193634.37144  21787272.6074   21787270.2054
     -1593.5564
  -6088621.50449  -4719478.07846  20278381.2564   20278379.7364
      2312.4024
 04  9  7 21 39 44.9980000  0  6G10G19G 8G13G23G27
  -1625776.94545  -1263948.79742  23211047.7404   23211047.6234
      3623.2454
  -1989585.41445  -1524592.96542  22665850.3894   22665847.9794
      3593.4274
  -9222293.23848  -7149485.64544  21207691.4674   21207690.6784
      3606.8244
  -2665104.95349  -2065045.75446  19621909.9824   19621907.5574
       512.5744
   2855278.92248   2212316.84844  21791835.2174   21791832.2174
     -1598.3934
  -6123257.95749  -4746467.51246  20271790.3654   20271788.6864
      2309.0974
 04  9  7 21 39 59.9980000  0  6G10G19G 8G13G23G27
  -1680008.34445  -1306206.99242  23200727.9364   23200727.9084
      3615.4274
  -2043402.34046  -1566528.17242  22655609.0534   22655606.8504
      3587.7954
  -9276345.04748  -7191603.91844  21197405.6934   21197405.3544
      3603.4544
  -2672674.29749  -2070943.95346  19620469.2724   19620467.1354
       504.6234
   2879326.66848   2231055.32844  21796411.2324   21796407.9434
     -1603.1834
  -6157845.41449  -4773418.77346  20265208.5764   20265206.7874
      2305.8304
 04  9  7 21 40 14.9970000  0  6G10G19G 8G13G23G27
  -1734118.29344  -1348370.56242  23190430.0014   23190430.3214
      3607.3304
  -2097130.26247  -1608394.09042  22645385.6494   22645383.8104
      3581.8614
  -9330342.08248  -7233679.50044  21187129.7044   21187130.0524
      3599.8024
  -2680123.29749  -2076748.37146  19619052.1884   19619049.6964
       496.6004
   2903445.14148   2249848.91044  21801000.4704   21800998.2744
     -1607.8984
  -6192381.11349  -4800329.70346  20258636.9384   20258634.7164
      2302.3804
 04  9  7 21 40 29.9970000  0  6G10G19G 8G13G23G27
  -1788113.24245  -1390444.54342  23180155.5634   23180155.4074
      3599.6634
  -2150775.82047  -1650195.82443  22635176.9854   22635174.7394
      3576.3714
  -9384291.16448  -7275717.73044  21176864.0014   21176863.6144
      3596.6054
  -2687452.78149  -2082459.68046  19617657.1344   19617654.7674
       488.6324
   2927637.43448   2268700.00044  21805603.8214   21805601.8994
     -1612.8204
  -6226869.33649  -4827203.64546  20252073.8064   20252071.6344
      2299.2154
 04  9  7 21 40 44.9970000  0  6G10G19G 8G13G23G27
  -1841989.01645  -1432425.65642  23169903.3924   23169903.1924
      3591.7184
  -2204334.79347  -1691930.04343  22624984.5244   22624982.9074
      3570.5984
  -9438188.29348  -7317715.49644  21166608.0174   21166607.1574
      3593.1424
  -2694661.97349  -2088077.22746  19616285.0954   19616283.0404
       480.6134
   2951902.15248   2287607.53144  21810221.7284   21810219.1424
     -1617.6484
  -6261307.50849  -4854038.57446  20245520.1344   20245518.6854
      2295.8784
 04  9  7 21 40 59.9970000  0  6G10G19G 8G13G23G27
  -1895745.82045  -1474314.04742  23159673.8134   23159673.6654
      3583.7874
  -2257807.16847  -1733596.76643  22614809.0094   22614807.2944
      3564.8254
  -9492033.85548  -7359673.03544  21156361.3214   21156360.6654
      3589.7044
  -2701751.04349  -2093601.18746  19614936.5014   19614934.4234
       472.6054
   2976238.93848   2306571.22743  21814853.0714   21814849.6034
     -1622.4524
  -6295695.88349  -4880834.71146  20238976.3844   20238974.6384
      2292.5584
 04  9  7 21 41 14.9970000  0  6G10G19G 8G13G23G27
  -1949384.04345  -1516110.07042  23149466.9384   23149466.3104
      3575.8824
  -2311193.17247  -1775196.20343  22604649.8924   22604648.6264
      3559.0674
  -9545828.38748  -7401590.83644  21146124.4624   21146123.9424
      3586.3024
  -2708720.67249  -2099032.07846  19613610.0404   19613608.1144
       464.6424
   3000646.93448   2325590.42244  21819498.0714   21819495.0014
     -1627.2004
  -6330035.21549  -4907592.62546  20232441.6104   20232440.3884
      2289.2894
 04  9  7 21 41 29.9970000  0  6G10G19G 8G13G23G27
  -2002905.05146  -1557814.73042  23139282.0634   23139282.2554
      3568.0674
  -2364494.28548  -1816729.46542  22594507.1734   22594505.4624
      3553.4084
  -9599573.57848  -7443470.18044  21135897.3604   21135896.4584
      3583.0134
  -2715572.57049  -2104371.21946  19612305.9234   19612304.1654
       456.7934
   3025124.19948   2344663.56344  21824155.7044   21824152.7084
     -1631.8184
  -6364327.24649  -4934313.68446  20225916.1264   20225914.6464
      2286.1354
 04  9  7 21 41 44.9970000  0  6G10G19G 8G13G23G27
  -2056307.98446  -1599427.40242  23129119.8214   23129119.4854
      3560.1964
  -2417709.39847  -1858195.77342  22584380.9314   22584379.1064
      3547.6744
  -9653268.63749  -7485310.48444  21125679.8134   21125678.4934
      3579.6714
  -2722305.98849  -2109618.04346  19611024.8924   19611022.8534
       448.8954
   3049671.16848   2363791.02344  21828826.1884   21828824.6884
     -1636.4654
  -6398571.14549  -4960997.23446  20219399.9854   20219398.2204
      2282.9274
 04  9  7 21 41 59.9970000  0  6G10G19G 8G13G23G27
  -2109591.83247  -1640947.25442  23118980.7204   23118979.7084
      3552.2574
  -2470837.38347  -1899594.15642  22574271.2594   22574269.0674
      3541.8664
  -9706912.82849  -7527111.12144  21115471.1264   21115470.2554
      3576.2794
  -2728920.10549  -2114771.90246  19609766.3534   19609764.3604
       440.9414
   3074288.59448   2382973.39144  21833511.2904   21833508.9894
     -1641.1624
  -6432766.19549  -4987642.72746  20212892.3294   20212891.0174
      2279.6704
 04  9  7 21 42 14.9970000  0  6G10G19G 8G13G23G27
  -2162757.01247  -1682374.65242  23108863.3214   23108863.2164
      3544.3454
  -2523878.72346  -1940925.03542  22564176.8294   22564175.8804
      3536.0894
  -9760506.98849  -7568872.78544  21105272.6344   21105271.9504
      3572.9444
  -2735415.82849  -2119833.51646  19608530.0244   19608528.0484
       433.0484
   3098975.43448   2402209.82044  21838209.0794   21838207.3964
     -1645.7894
  -6466913.22749  -5014250.80146  20206394.6884   20206393.3294
      2276.4694
 04  9  7 21 42 29.9970000  0  6G10G19G 8G13G23G27
  -2215805.96547  -1723711.45342  23098768.7744   23098768.3454
      3536.5974
  -2576835.67646  -1982190.12542  22554100.0174   22554097.6034
      3530.4644
  -9814053.66049  -7610597.45344  21095083.2204   21095082.1384
      3569.7784
  -2741795.71549  -2124804.86746  19607316.1494   19607314.1144
       425.3264
   3123728.85548   2421498.16444  21842918.8374   21842916.9784
     -1650.2284
  -6501014.76249  -5040823.42246  20199905.3924   20199903.7554
      2273.4364
 04  9  7 21 42 44.9970000  0  6G10G19G 8G13G23G27
  -2268735.93747  -1764955.59842  23088696.1344   23088695.9624
      3528.6654
  -2629705.31247  -2023387.18442  22544038.8684   22544036.5754
      3524.6424
  -9867550.41449  -7652283.21144  21084902.7904   21084902.2084
      3566.4504
  -2748057.16049  -2129683.93046  19606124.3924   19606122.4274
       417.4304
   3148551.25848   2440840.25844  21847642.9464   21847640.8334
     -1654.8274
  -6535068.38749  -5067358.70346  20193425.1964   20193423.6104
      2270.2424
 04  9  7 21 42 59.9970000  0  6G10G19G 8G13G23G27
  -2321546.68447  -1806106.82842  23078646.3764   23078645.4814
      3520.7164
  -2682487.44547  -2064516.09842  22533995.3374   22533993.1424
      3518.8094
  -9920996.80548  -7693929.73445  21074733.0014   21074731.8844
      3563.0934
  -2754200.08249  -2134470.63346  19604955.8064   19604953.6184
       409.5284
   3173442.50448   2460235.99644  21852379.7594   21852376.7554
     -1659.4164
  -6569073.99249  -5093856.58646  20186954.5954   20186952.7714
      2267.0404
 04  9  7 21 43 14.9970000  0  6G10G19G 8G13G23G27
  -2374236.46947  -1847163.77742  23068619.5634   23068618.8994
      3512.6524
  -2735180.27747  -2105575.45742  22523967.9544   22523965.9624
      3512.8554
  -9974391.83648  -7735536.23044  21064572.0794   21064570.9744
      3559.6694
  -2760223.27349  -2139164.03546  19603809.5094   19603807.4624
       401.5464
   3198403.92647   2479686.42244  21857129.3684   21857127.5134
     -1664.0954
  -6603030.30549  -5120316.04346  20180492.6104   20180490.9584
      2263.7544
 04  9  7 21 43 29.9970000  0  6G10G19G 8G13G23G27
  -2426805.75047  -1888126.86742  23058616.6814   23058615.4584
      3504.6194
  -2787784.09447  -2146565.43042  22513957.7044   22513955.7784
      3506.9214
 -10027735.94148  -7777103.05545  21054420.2124   21054420.0404
      3556.2744
  -2766127.44149  -2143764.69546  19602685.9314   19602684.0604
       393.6114
   3223434.52048   2499190.77044  21861893.4934   21861891.1304
     -1668.7064
  -6636937.88349  -5146737.53546  20174039.9314   20174038.9314
      2260.5054
 04  9  7 21 43 44.9970000  0  6G10G19G 8G13G23G27
  -2479252.91847  -1928994.75442  23048636.7354   23048635.3564
      3496.4784
  -2840297.16047  -2187484.61742  22503964.4544   22503962.6884
      3500.8714
 -10081027.59449  -7818628.99645  21044279.9854   21044279.0054
      3552.7774
  -2771911.02749  -2148271.38746  19601585.9074   19601583.4974
       385.5724
   3248535.53948   2518749.95344  21866670.0564   21866667.5794
     -1673.4014
  -6670795.48449  -5173120.07446  20167597.2984   20167595.7124
      2257.1734
 04  9  7 21 43 59.9970000  0  6G10G19G 8G13G23G27
  -2531578.35947  -1969767.81242  23038679.8374   23038677.7744
      3488.3634
  -2892719.93447  -2228333.50843  22493988.9464   22493987.1694
      3494.8524
 -10134267.65649  -7860114.73845  21034148.0484   21034147.4114
      3549.3384
  -2777574.74249  -2152684.68746  19600507.8684   19600505.9194
       377.5814
   3273706.09448   2538363.31643  21871459.3604   21871456.9974
     -1678.0374
  -6704603.66449  -5199464.10546  20161164.0174   20161162.4624
      2253.8794
 04  9  7 21 44 14.9970000  0  6G10G19G 8G13G23G27
  -2583783.48447  -2010447.13342  23028744.9384   23028744.4314
      3480.3424
  -2945053.63748  -2269112.98843  22484030.0874   22484028.4744
      3488.9144
 -10187457.48449  -7901561.34044  21024027.1964   21024025.7124
      3545.9894
  -2783120.22349  -2157005.84446  19599452.0874   19599450.3764
       369.6994
   3298944.47347   2558029.53944  21876261.9074   21876259.5524
     -1682.5594
  -6738364.08649  -5225770.93446  20154739.6574   20154737.7674
      2250.6954
 04  9  7 21 44 29.9970000  0  6G10G19G 8G13G23G27
  -2635868.23847  -2051032.63342  23018833.5094   23018833.2904
      3472.3174
  -2997298.25048  -2309823.02743  22474088.4234   22474086.7554
      3482.9744
 -10240597.42649  -7942969.06644  21013914.7124   21013913.9074
      3542.6634
  -2788547.82049  -2161235.14546  19598419.8844   19598417.7314
       361.8404
   3324250.14147   2577748.18844  21881077.3764   21881075.5874
     -1687.0454
  -6772077.00449  -5252040.73046  20148324.0794   20148322.2674
      2247.5284
 04  9  7 21 44 44.9970000  0  6G10G19G 8G13G23G27
  -2687832.13346  -2091523.98442  23008945.1494   23008944.2784
      3464.2604
  -3049453.06248  -2350463.10543  22464163.8924   22464160.9854
      3476.9884
 -10293687.12948  -7984337.63745  21003811.6264   21003810.9194
      3539.3144
  -2793857.21149  -2165372.33646  19597409.4154   19597407.2674
       353.9594
   3349623.23048   2597519.36743  21885905.8994   21885903.2394
     -1691.5394
  -6805742.22749  -5278273.37146  20141917.9934   20141915.9234
      2244.3484
 04  9  7 21 44 59.9970000  0  6G10G19G 8G13G23G27
  -2739673.55147  -2131919.87942  22999080.4544   22999078.6494
      3456.0954
  -3101516.43747  -2391031.87943  22454256.2984   22454253.6384
      3470.8924
 -10346725.11349  -8025665.91444  20993718.7514   20993718.0014
      3535.8664
  -2799046.81249  -2169416.19546  19596421.3064   19596419.8534
       345.9734
   3375065.07847   2617344.14143  21890746.8924   21890743.8964
     -1696.1234
  -6839358.16849  -5304467.60946  20135520.5174   20135519.2554
      2241.0634
 04  9  7 21 45 14.9970000  0  6G10G19G 8G13G23G27
  -2791394.47347  -2172221.87942  22989237.0014   22989237.0214
      3448.0614
  -3153490.18747  -2431530.86343  22444366.2674   22444364.0994
      3464.9174
 -10399713.66849  -8066955.68744  20983635.3924   20983634.4664
      3532.5704
  -2804119.07849  -2173368.62146  19595456.0014   19595454.6344
       338.1514
   3400573.11747   2637220.50443  21895601.5794   21895597.9784
     -1700.5364
  -6872927.18449  -5330625.27746  20129132.7674   20129131.5244
      2237.9344
 04  9  7 21 45 29.9970000  0  6G10G19G 8G13G23G27
  -2842996.17247  -2212430.96542  22979418.2744   22979417.0284
      3440.1134
  -3205375.50047  -2471960.95343  22434492.3684   22434490.6884
      3459.0214
 -10452654.34449  -8108208.14845  20973560.9384   20973560.4384
      3529.3784
  -2809075.33249  -2177230.65646  19594513.4544   19594511.5794
       330.4174
   3426145.80147   2657147.23443  21900467.8684   21900465.1184
     -1704.8464
  -6906450.76649  -5356747.55146  20122753.4784   20122752.0054
      2234.9054
 04  9  7 21 45 44.9970000  0  6G10G19G 8G13G23G27
  -2894475.89847  -2252545.05542  22969621.8764   22969620.8334
      3431.9824
  -3257169.57448  -2512319.92243  22424637.1884   22424634.7354
      3452.9384
 -10505544.51249  -8149421.25044  20963496.4784   20963495.3064
      3526.0114
  -2813913.21549  -2181000.45746  19593592.7044   19593591.0094
       322.5264
   3451785.31347   2677126.02743  21905346.8374   21905344.5214
     -1709.3014
  -6939926.42249  -5382832.46946  20116383.0714   20116381.6224
      2231.7104
 04  9  7 21 45 59.9970000  0  6G10G19G 8G13G23G27
  -2945834.00446  -2292564.33642  22959848.6104   22959847.7634
      3423.8744
  -3308872.51647  -2552607.90642  22414797.5714   22414795.5174
      3446.8634
 -10558384.50849  -8190595.25445  20953441.2284   20953440.1344
      3522.6664
  -2818633.11349  -2184678.31246  19592694.7204   19592692.4424
       314.6604
   3477491.03147   2697156.39843  21910238.5244   21910236.0634
     -1713.7154
  -6973354.53949  -5408880.35546  20110022.6104   20110020.6384
      2228.5414
 04  9  7 21 46 14.9970000  0  6G10G19G 8G13G23G27
  -2997070.10246  -2332488.55542  22950098.4854   22950097.9354
      3415.7404
  -3360484.12147  -2592824.67643  22404976.2044   22404974.3294
      3440.7744
 -10611174.35549  -8231730.17645  20943395.7824   20943394.9624
      3519.3234
  -2823235.14549  -2188264.31246  19591818.9784   19591816.6534
       306.8024
   3503262.82847   2717238.27343  21915143.5094   21915140.1464
     -1718.1204
  -7006735.28549  -5434891.32846  20103669.8214   20103668.5714
      2225.3834
 04  9  7 21 46 29.9970000  0  6G10G19G 8G13G23G27
  -3048183.64547  -2372317.28142  22940372.3604   22940371.7514
      3407.5704
  -3412003.60547  -2632969.69543  22395172.1814   22395170.0874
      3434.6324
 -10663913.62949  -8272825.69544  20933360.1034   20933358.8254
      3515.9524
  -2827718.81249  -2191758.09446  19590965.8604   19590963.4194
       298.9114
   3529100.88747   2737371.77343  21920059.7824   21920056.6264
     -1722.5374
  -7040068.14849  -5460864.98446  20097327.0404   20097325.3724
      2222.1914
 04  9  7 21 46 44.9970000  0  6G10G19G 8G13G23G27
  -3099175.04347  -2412050.82042  22930668.7044   22930667.9854
      3399.4274
  -3463431.19947  -2673043.11743  22385385.8994   22385383.6734
      3428.5064
 -10716603.04349  -8313882.36745  20923333.2674   20923332.8454
      3512.6284
  -2832084.83249  -2195160.19546  19590134.8534   19590132.7084
       291.0684
   3555004.39547   2757556.31343  21924989.6574   21924985.5914
     -1726.9014
  -7073353.69949  -5486801.77046  20090992.8294   20090991.4384
      2219.0374
 04  9  7 21 46 59.9970000  0  6G10G19G 8G13G23G27
  -3150045.19947  -2451689.89542  22920989.3764   22920988.3104
      3391.3444
  -3514767.82047  -2713045.60543  22375617.0244   22375614.6614
      3422.4414
 -10769243.68749  -8354901.03545  20913316.2674   20913315.4384
      3509.3764
  -2836334.47749  -2198471.62546  19589326.5324   19589324.0524
       283.3104
   3580971.99647   2777790.75043  21929930.8374   21929926.9544
     -1731.1734
  -7106593.27349  -5512702.73846  20084667.8534   20084666.3764
      2215.9724
 04  9  7 21 47 14.9970000  0  6G10G19G 8G13G23G27
  -3200794.43447  -2491234.75842  22911331.2514   22911330.0244
      3383.2824
  -3566013.73447  -2752977.45343  22365865.0954   22365862.5914
      3416.3944
 -10821835.96949  -8395882.00845  20903307.7744   20903307.2864
      3506.1524
  -2840468.21549  -2201692.73046  19588539.4704   19588537.3994
       275.5834
   3607002.98447   2798074.60243  21934884.0324   21934881.0754
     -1735.3994
  -7139787.32049  -5538568.23446  20078351.2044   20078349.3494
      2212.9364
 04  9  7 21 47 29.9970000  0  6G10G19G 8G13G23G27
  -3251421.78147  -2530684.62142  22901697.3764   22901696.4704
      3375.1574
  -3617167.91847  -2792837.82443  22356130.9544   22356129.1854
      3410.2794
 -10874379.04749  -8436824.65245  20893309.1494   20893308.3104
      3502.8724
  -2844485.38348  -2204822.99246  19587775.0564   19587772.7204
       267.8114
   3633097.87947   2818408.22343  21939849.3214   21939847.3454
     -1739.6604
  -7172935.20748  -5564397.74646  20072043.5634   20072041.3924
      2209.8594
 04  9  7 21 47 44.9970000  0  6G10G19G 8G13G23G27
  -3301927.53947  -2570039.73842  22892086.4784   22892085.2124
      3367.0514
  -3668230.55148  -2832626.82443  22346413.9854   22346411.8414
      3404.1764
 -10926873.61748  -8477729.50844  20883320.5244   20883319.1034
      3499.6384
  -2848386.52749  -2207862.86346  19587032.3604   19587030.3134
       260.0764
   3659255.86347   2838791.02343  21944827.1964   21944824.6654
     -1743.8664
  -7206037.45349  -5590191.70346  20065744.1884   20065742.7864
      2206.8164
 04  9  7 21 47 59.9970000  0  6G10G19G 8G13G23G27
  -3352311.66446  -2609300.10242  22882498.7594   22882497.5214
      3358.9424
  -3719201.42648  -2872344.34444  22336714.3844   22336712.9934
      3398.0584
 -10979319.85249  -8518596.67645  20873340.1964   20873339.0874
      3496.4164
  -2852171.74249  -2210812.39546  19586312.0794   19586310.1104
       252.3484
   3685476.70347   2859222.80143  21949817.5244   21949813.9234
     -1748.0564
  -7239094.16049  -5615950.16846  20059453.4704   20059452.2004
      2203.7804
 04  9  7 21 48 14.9970000  0  7G10G19G 8G13G28G23G27
  -3402576.76646  -2648467.67642  22872933.3534   22872932.7244
      3351.0074
  -3770083.10947  -2911992.38743  22327031.2044   22327029.9854
      3392.1124
 -11031720.59048  -8559428.40245  20863368.0714   20863367.2824
      3493.3834
  -2855843.87948  -2213673.80946  19585613.4704   19585611.7744
       244.8094
   -213756.32014                  23363399.157

   3711757.26247   2879701.10243  21954817.7514   21954816.0754
     -1752.0374
  -7272108.13748  -5641675.34846  20053170.9384   20053169.4544
      2200.9324
 04  9  7 21 48 29.9970000  0  7G10G19G 8G13G28G23G27
  -3452719.55546  -2687539.97742  22863391.5014   22863390.4854
      3342.8534
  -3820872.19147  -2951568.26243  22317366.7514   22317365.9314
      3385.9394
 -11084072.45748  -8600222.05145  20853406.4074   20853405.3254
      3490.1244
  -2859399.92248  -2216444.75846  19584936.8134   19584935.4274
       237.0704
   -285905.777 4                  23349667.571
      4809.964
   3738100.53547   2900228.30143  21959831.1424   21959828.7944
     -1756.2184
  -7305076.41848  -5667364.91446  20046897.7984   20046896.0914
      2197.8854
 04  9  7 21 48 44.9970000  0  7G10G19G 8G13G28G23G27
  -3502746.09846  -2726521.69542  22853871.7744   22853870.7824
      3335.1034
  -3871574.69148  -2991076.66844  22307718.5094   22307716.9544
      3380.1674
 -11136381.81249  -8640982.55945  20843451.5244   20843451.5484
      3487.2904
  -2862846.18748  -2219130.16446  19584281.1734   19584279.3254
       229.7514
   -358027.844 4                  23335944.946
      4808.138
   3764499.96947   2920799.22343  21964854.5174   21964852.7904
     -1759.9624
  -7338005.21948  -5693023.71146  20040631.2284   20040629.9424
      2195.2534
 04  9  7 21 48 59.9970000  0  7G10G19G 8G13G28G23G27
  -3552652.65647  -2765409.90642  22844374.6574   22844374.0094
      3327.1044
  -3922186.51647  -3030514.42244  22298087.4544   22298085.6924
      3374.1224
 -11188644.92649  -8681707.05545  20833506.4854   20833505.7744
      3484.2084
  -2866178.99648  -2221727.16446  19583647.1654   19583645.1384
       222.1874
   -430118.742 4                  23322225.759
      4806.060
   3790959.09047   2941416.66044  21969889.9074   21969887.6464
     -1763.9414
  -7370890.82849  -5718648.86746  20034373.6264   20034371.8604
      2192.3744
 04  9  7 21 49 14.9970000  0  7G10G19G 8G13G28G23G27
  -3602438.09847  -2804203.75442  22834901.7434   22834900.8924
      3319.0294
  -3972706.74248  -3069880.77044  22288473.1574   22288472.1854
      3368.0154
 -11240861.22749  -8722395.05945  20823569.9934   20823569.2714
      3481.0874
  -2869397.66848  -2224235.22746  19583034.4544   19583032.5014
       214.5784
   -502177.496 4                  23308512.462
      4803.917
   3817478.47347   2962081.09043  21974936.3604   21974934.3804
     -1767.9594
  -7403732.62149  -5744239.86746  20028124.2594   20028122.2044
      2189.4534
 04  9  7 21 49 29.9970000  0  7G10G19G 8G13G28G23G27
  -3652103.51247  -2842904.04342  22825450.7204   22825449.3844
      3311.0284
  -4023136.17248  -3109176.41044  22278877.7124   22278875.4974
      3361.9624
 -11293031.88349  -8763047.50445  20813642.6184   20813641.5174
      3478.0444
  -2872503.49249  -2226655.36746  19582443.3214   19582441.5914
       207.0554
   -574205.187 5                  23294806.642
      4801.846
   3844056.68047   2982791.32044  21979993.9784   21979992.9074
     -1771.8804
  -7436531.76249  -5769797.63346  20021882.2744   20021881.1034
      2186.6094
 04  9  7 21 49 44.9970000  0  7G10G19G 8G13G28G23G27
  -3701646.88347  -2881509.26242  22816022.5564   22816021.0834
      3302.8914
  -4073472.87947  -3148399.77743  22269298.1264   22269296.3684
      3355.7804
 -11345155.08649  -8803662.97745  20803723.8844   20803722.7784
      3474.8804
  -2875494.66049  -2228986.16446  19581874.1104   19581872.4424
       199.4114
   -646199.875 6                  23281106.790
      4799.646
   3870695.19147   3003548.55943  21985063.7434   21985061.4934
     -1775.9014
  -7469286.62148  -5795320.90246  20015649.3994   20015647.9354
      2183.6574
 04  9  7 21 49 59.9970000  0  7G10G19G 8G13G28G23G27
  -3751068.85547  -2920019.88342  22806618.0244   22806616.7784
      3294.7984
  -4123717.37147  -3187551.26243  22259737.0634   22259734.7394
      3349.6334
 -11397231.62149  -8844242.09445  20793814.1424   20793813.0444
      3471.7694
  -2878372.16449  -2231228.39146  19581327.0324   19581324.9894
       191.8344
   -718162.266 7                  23267413.509
      4797.493
   3897392.94947   3024351.95744  21990144.6264   21990141.9274
     -1779.8514
  -7501998.01649  -5820810.29746  20009424.3064   20009422.8604
      2180.7604
 04  9  7 21 50 14.9970000  0  7G10G19G 8G13G28G23G27
  -3800367.05546  -2958434.05142  22797236.4314   22797235.6884
      3286.5474
  -4173867.02348  -3226628.87143  22250193.7284   22250192.1064
      3343.3104
 -11449259.16449  -8884783.01244  20783913.2284   20783912.5014
      3468.5034
  -2881133.74649  -2233380.27746  19580801.1734   19580799.6064
       184.1054
   -790089.92247   -593664.69952  23253725.3604   23253724.9114
      4795.1774
   3924152.01247   3045203.15643  21995236.2674   21995234.1884
     -1783.9374
  -7534663.68449  -5846264.06646  20003208.3684   20003206.8994
      2177.7114
 04  9  7 21 50 29.9970000  0  7G10G19G 8G13G28G23G27
  -3849542.40246  -2996752.50042  22787878.9784   22787877.8294
      3278.3574
  -4223922.76647  -3265633.30143  22240668.5874   22240666.3334
      3337.0494
 -11501239.03149  -8925286.79345  20774021.9464   20774020.8564
      3465.3244
  -2883780.56249  -2235442.75046  19580297.1184   19580295.4274
       176.4544
   -861983.77047   -649685.79742  23240044.3294   23240044.8804
      4792.9234
   3950971.14847   3066101.12943  22000339.7354   22000337.6494
     -1787.9424
  -7567284.80149  -5871683.10946  19997000.4234   19996998.9894
      2174.7414
 04  9  7 21 50 44.9970000  0  7G10G19G 8G13G28G23G27
  -3898593.64146  -3034974.22742  22778544.6424   22778543.2474
      3270.0834
  -4273883.19948  -3304563.49244  22231161.2824   22231159.6064
      3330.6964
 -11553169.94949  -8965752.43045  20764139.6424   20764138.6854
      3462.0614
  -2886311.68749  -2237415.05946  19579815.8454   19579814.0214
       168.7424
   -933842.55547   -705679.60942  23226369.3534   23226370.3804
      4790.5864
   3977851.10947   3087046.49643  22005454.7514   22005452.7744
     -1791.9974
  -7599860.28549  -5897066.59846  19990801.7514   19990800.2744
      2171.6994
 04  9  7 21 50 59.9970000  0  7G10G19G 8G13G28G23G27
  -3947519.28947  -3073098.08642  22769234.0714   22769234.1034
      3261.7104
  -4323746.80148  -3343418.21544  22221672.8844   22221670.6694
      3324.2404
 -11605050.91449  -9006179.13345  20754267.0324   20754265.9384
      3458.7314
  -2888726.05549  -2239296.38346  19579356.3684   19579354.1264
       160.9584
  -1005664.75848   -761644.89842  23212702.6814   23212703.9314
      4788.1474
   4004792.89146   3108040.03543  22010580.8604   22010579.5324
     -1796.1194
  -7632389.05949  -5922413.69146  19984611.9154   19984610.2474
      2168.5854
 04  9  7 21 51 14.9970000  0  7G10G19G 8G13G28G23G27
  -3996323.14146  -3111127.05542  22759946.7284   22759946.5674
      3253.5904
  -4373517.23848  -3382200.33644  22212202.0634   22212199.5244
      3318.0294
 -11656885.66049  -9046569.84045  20744403.5874   20744402.5054
      3455.6504
  -2891027.51648  -2241089.75046  19578918.8994   19578916.4624
       153.4314
  -1077454.46147   -817584.88742  23199041.4704   23199042.3254
      4785.9804
   4031792.26647   3129078.42643  22015718.7204   22015717.6694
     -1799.9584
  -7664874.91448  -5947727.34446  19978430.0094   19978428.8844
      2165.7244
 04  9  7 21 51 29.9970000  0  7G10G19G 8G13G28G23G27
  -4045003.11746  -3149059.48042  22750683.8604   22750682.8104
      3245.3324
  -4423192.58647  -3420908.35944  22202748.7744   22202746.4154
      3311.6904
 -11708672.47749  -9086923.18445  20734549.3374   20734547.8334
      3452.4544
  -2893214.23849  -2242793.70746  19578502.3214   19578500.2164
       145.7824
  -1149209.50047   -873497.82842  23185386.3214   23185387.2124
      4783.6694
   4058850.91047   3150163.03143  22020869.2204   22020865.9814
     -1803.9104
  -7697316.11348  -5973006.19946  19972256.9784   19972255.1494
      2162.7474
 04  9  7 21 51 44.9970000  0  7G10G19G 8G13G28G23G27
  -4093558.06246  -3186894.51642  22741443.8134   22741443.2284
      3236.9964
  -4472771.39848  -3459541.15244  22193313.8604   22193311.7714
      3305.2544
 -11760410.10549  -9127238.20345  20724703.0874   20724702.1734
      3449.1754
  -2895285.26248  -2244407.50046  19578108.4784   19578106.5954
       138.0684
  -1220928.65248   -929382.82042  23171738.9464   23171739.7244
      4781.2774
   4085969.71147   3171294.52343  22026029.5014   22026026.9114
     -1807.9204
  -7729711.66848  -5998249.48846  19966092.0954   19966090.3994
      2159.7044
 04  9  7 21 51 59.9970000  0  7G10G19G 8G13G28G23G27
  -4141987.03546  -3224631.37542  22732227.9784   22732227.7594
      3228.5984
  -4522252.51648  -3498097.85244  22183898.0244   22183895.5874
      3298.7414
 -11812097.79349  -9167514.31245  20714867.1814   20714865.8924
      3445.8464
  -2897239.96548  -2245930.66446  19577736.6424   19577734.4424
       130.3144
  -1292610.95747   -985239.08242  23158097.6884   23158098.9974
      4778.8204
   4113149.16447   3192473.27743  22031200.7984   22031199.4934
     -1811.9644
  -7762060.88748  -6023456.66846  19959936.0954   19959934.6814
      2156.6154
 04  9  7 21 52 14.9970000  0  7G10G19G 8G13G28G23G27
  -4190291.34046  -3262271.06642  22723035.5094   22723035.1034
      3220.2874
  -4571637.15648  -3536579.36344  22174500.3764   22174498.9114
      3292.3094
 -11863737.06249  -9207752.69145  20705040.5174   20705039.7864
      3442.6184
  -2899079.74248  -2247364.26246  19577385.9784   19577384.3844
       122.6524
  -1364257.77746  -1041067.69542  23144464.3764   23144464.7244
      4776.4554
   4140387.56347   3213697.97343  22036384.8764   22036382.2904
     -1815.8934
  -7794365.12148  -6048628.80546  19953789.0714   19953787.1064
      2153.6164
 04  9  7 21 52 29.9970000  0  7G10G19G 8G13G28G23G27
  -4238470.44946  -3299813.21542  22713867.6654   22713866.9034
      3211.9414
  -4620924.71548  -3574985.21543  22165121.6034   22165118.6814
      3285.8374
 -11915327.71949  -9247953.18045  20695223.7594   20695222.2204
      3439.3774
  -2900804.37948  -2248708.14846  19577057.6264   19577056.2394
       114.9764
  -1435868.48046  -1096868.19942  23130838.1814   23130837.6494
      4774.0474
   4167685.10947   3234968.73443  22041579.2904   22041576.5714
     -1819.8364
  -7826624.13748  -6073765.69546  19947650.6264   19947648.6344
      2150.6014
 04  9  7 21 52 44.9970000  0  7G10G19G 8G13G28G23G27
  -4286523.36746  -3337257.04742  22704723.3374   22704723.4934
      3203.5284
  -4670114.13348  -3613314.60544  22155760.6654   22155759.3884
      3279.2954
 -11966868.91849  -9288115.14845  20685415.5014   20685414.3174
      3436.0804
  -2902413.13748  -2249961.71946  19576752.1734   19576749.8924
       107.2514
  -1507442.30546  -1152639.92642  23117217.1734   23117217.4624
      4771.5884
   4195042.37947   3256286.00443  22046784.6264   22046782.3964
     -1823.8184
  -7858837.17648  -6098866.76246  19941520.0404   19941518.6574
      2147.5364
 04  9  7 21 52 59.9970000  0  7G10G19G 8G13G28G23G27
  -4334451.55947  -3374603.67242  22695604.0564   22695602.7354
      3195.2134
  -4719206.83647  -3651568.62543  22146418.7824   22146416.6694
      3272.8474
 -12018362.31649  -9328239.86345  20675616.6104   20675615.5634
      3432.8934
  -2903907.77049  -2251126.38346  19576467.4384   19576465.8374
        99.6424
  -1578980.57846  -1208383.93042  23103603.3294   23103604.0404
      4769.2184
   4222457.19947   3277648.16443  22052001.4384   22052000.0134
     -1827.6554
  -7891005.92249  -6123933.31646  19935399.0174   19935397.2554
      2144.5834
 04  9  7 21 53 14.9970000  0  7G10G19G 8G13G28G23G27
  -4382256.44946  -3411854.21142  22686506.3924   22686505.2514
      3186.9934
  -4768203.97748  -3689748.18443  22137095.2674   22137093.0994
      3266.4764
 -12069809.19949  -9368328.32845  20665826.8684   20665825.3644
      3429.7924
  -2905289.69948  -2252203.21146  19576204.8604   19576202.7514
        92.1294
  -1650484.69947  -1264101.36742  23089996.8994   23089996.9354
      4766.9414
   4249928.08246   3299053.97343  22057229.7124   22057228.3254
     -1831.3924
  -7923131.87548  -6148966.51646  19929285.3454   19929283.6494
      2141.7304
 04  9  7 21 53 29.9970000  0  7G10G19G 8G13G28G23G27
  -4429933.67246  -3449005.29742  22677433.4704   22677432.7434
      3178.4824
  -4817101.32447  -3727849.98443  22127790.5874   22127788.5174
      3259.8234
 -12121205.71949  -9408377.54745  20656045.6884   20656044.9784
      3426.4354
  -2906555.12149  -2253189.28546  19575964.0794   19575961.7984
        84.3614
  -1721950.39547  -1319788.86342  23076397.2984   23076398.9114
      4764.3804
   4277458.82847   3320506.46543  22062468.2904   22062465.9464
     -1835.3834
  -7955210.93748  -6173963.19546  19923181.2284   19923179.6264
      2138.6044
 04  9  7 21 53 44.9970000  0  7G10G19G 8G13G28G23G27
  -4477485.88746  -3486058.95342  22668385.2984   22668384.0404
      3170.1484
  -4865901.24247  -3765875.87144  22118503.1734   22118502.3884
      3253.3284
 -12172554.52749  -9448389.59445  20646274.7044   20646273.5634
      3423.2544
  -2907706.90649  -2254086.79346  19575744.5014   19575742.4194
        76.7864
  -1793380.18747  -1375448.37142  23062804.5954   23062805.9114
      4761.9864
   4305046.50447   3342003.32043  22067718.6494   22067716.0174
     -1839.1784
  -7987246.05149  -6198925.61346  19917084.9464   19917083.2204
      2135.6744
 04  9  7 21 53 59.9970000  0  7G10G19G 8G13G28G23G27
  -4524913.30546  -3523015.36342  22659360.3294   22659359.4034
      3161.8284
  -4914603.77048  -3803825.86743  22109236.1884   22109234.5444
      3246.8354
 -12223856.05149  -9488364.79745  20636511.9154   20636511.4154
      3420.1024
  -2908745.39149  -2254896.00446  19575547.2514   19575545.0404
        69.2324
  -1864774.37147  -1431080.13342  23049219.0244   23049220.1224
      4759.6124
   4332690.45747   3363544.00843  22072978.8374   22072976.2474
     -1842.9304
  -8019237.44148  -6223853.96946  19910997.1264   19910995.2594
      2132.7594
 04  9  7 21 54 14.9970000  0  7G10G19G 8G13G28G23G27
  -4572214.10246  -3559873.09442  22650358.6184   22650357.5634
      3153.3864
  -4963207.24648  -3841698.67643  22099987.0794   22099984.5564
      3240.2324
 -12275108.59449  -9528301.82445  20626759.3134   20626758.6304
      3416.8364
  -2909669.03549  -2255615.73846  19575371.1814   19575369.2514
        61.5764
  -1936131.13747  -1486682.73042  23035639.9784   23035640.9544
      4757.1184
   4360392.15247   3385129.69543  22078250.0794   22078248.0524
     -1846.7804
  -8051183.62149  -6248747.10246  19904918.0244   19904916.1884
      2129.7454
 04  9  7 21 54 29.9970000  0  7G10G19G 8G13G28G23G27
  -4619389.26246  -3596632.95342  22641381.0874   22641380.5604
      3145.0114
  -5011712.40247  -3879494.88743  22090756.5794   22090755.3134
      3233.6774
 -12326313.49649  -9568201.73845  20617015.5484   20617014.6034
      3413.6604
  -2910479.14549  -2256246.98446  19575216.8604   19575215.0484
        54.0074
  -2007451.52347  -1542256.96542  23022067.3134   23022069.5324
      4754.6924
   4388150.02747   3406759.14843  22083532.7984   22083530.0404
     -1850.5254
  -8083085.86349  -6273605.98046  19898847.0484   19898845.6034
      2126.8164
 04  9  7 21 54 44.9970000  0  7G10G19G 8G13G28G23G27
  -4666437.18346  -3633293.62942  22632428.4544   22632428.0994
      3136.5284
  -5060117.60248  -3917213.18743  22081545.8844   22081543.6614
      3227.0134
 -12377469.07849  -9608063.20745  20607280.9234   20607279.6654
      3410.3724
  -2911174.15649  -2256788.55546  19575085.0484   19575082.7004
        46.3344
  -2078733.93447  -1597801.65642  23008504.0324   23008503.7394
      4752.1614
   4415965.39847   3428433.44943  22088826.0324   22088823.5284
     -1854.3584
  -8114942.57049  -6298429.39546  19892785.0174   19892783.3024
      2123.7804
 04  9  7 21 54 59.9970000  0  7G10G19G 8G13G28G23G27
  -4713358.28146  -3669855.59342  22623499.6654   22623498.5914
      3128.0734
  -5108423.21547  -3954853.90243  22072353.0874   22072351.3214
      3220.3744
 -12428576.04349  -9647886.79745  20597555.4384   20597554.3844
      3407.1314
  -2911754.83249  -2257241.03946  19574974.5014   19574971.9624
        38.7124
  -2149978.79347  -1653317.03142  22994945.7904   22994946.3134
      4749.6574
   4443837.43047   3450151.86743  22094130.0404   22094128.0214
     -1858.1354
  -8146754.37949  -6323217.80546  19886731.2204   19886730.0014
      2120.7874
 04  9  7 21 55 14.9970000  0  7G10G19G 8G13G28G23G27
  -4760154.89545  -3706320.44142  22614594.3214   22614593.8174
      3119.7744
  -5156631.33648  -3992418.63743  22063179.8684   22063177.8104
      3213.8754
 -12479636.77749  -9687674.37545  20587838.8684   20587837.4384
      3404.0494
  -2912223.70349  -2257606.40646  19574885.0874   19574882.9034
        31.2584
  -2221188.32447  -1708804.90242  22981395.6034   22981396.0754
      4747.3024
   4471763.61347   3471912.44543  22099443.6424   22099442.0134
     -1861.7464
  -8178523.89849  -6347973.27746  19880685.5244   19880684.3644
      2117.9684
 04  9  7 21 55 29.9970000  0  7G10G19G 8G13G28G23G27
  -4806825.64147  -3742687.20342  22605712.9154   22605712.3174
      3111.3834
  -5204740.55948  -4029906.32444  22054024.9934   22054022.6734
      3207.2824
 -12530650.22349  -9727425.09045  20578131.1344   20578130.2634
      3400.8964
  -2912579.79749  -2257883.89846  19574817.5634   19574815.2634
        23.7404
  -2292361.26646  -1764264.26242  22967851.1494   22967852.5284
      4744.8634
   4499744.76247   3493715.85943  22104768.4704   22104766.1034
     -1865.4104
  -8210249.84849  -6372694.79346  19874648.8994   19874647.0014
      2115.0634
 04  9  7 21 55 44.9970000  0  7G10G19G 8G13G28G23G27
  -4853370.13346  -3778955.66842  22596855.4934   22596856.3684
      3102.9664
  -5252750.41047  -4067316.56643  22044888.4784   22044886.6964
      3200.6574
 -12581616.13349  -9767138.77045  20568432.8604   20568431.6884
      3397.7274
  -2912822.89849  -2258073.35546  19574770.7284   19574769.2204
        16.2074
  -2363497.17247  -1819694.73042  22954314.1884   22954315.2634
      4742.3944
   4527780.76247   3515562.06643  22110103.4934   22110101.0324
     -1869.0674
  -8241932.12149  -6397382.27046  19868619.7434   19868618.3994
      2112.1524
 04  9  7 21 55 59.9970000  0  7G10G19G 8G13G28G23G27
  -4899787.23046  -3815124.80142  22588022.5634   22588022.7864
      3094.4734
  -5300659.51648  -4104648.31644  22035771.9234   22035769.6424
      3193.9404
 -12632533.26649  -9806814.44545  20558743.6104   20558742.7634
      3394.4764
  -2912951.98849  -2258173.95746  19574746.6884   19574744.3414
         8.6064
  -2434594.88346  -1875095.46942  22940784.1734   22940785.0674
      4739.8474
   4555872.54746   3537451.71143  22115448.9704   22115447.2124
     -1872.7864
  -8273569.65249  -6422034.89546  19862599.7434   19862597.7004
      2109.1694
 04  9  7 21 56 14.9970000  0  7G10G19G 8G13G28G23G27
  -4946076.21945  -3851194.14842  22579214.1344   22579214.3844
      3085.9334
  -5348467.23848  -4141901.06244  22026674.8064   22026672.3644
      3187.1824
 -12683401.23849  -9846451.80945  20549064.1424   20549063.1184
      3391.1984
  -2912966.79349  -2258185.50846  19574743.9234   19574742.0524
         0.9874
  -2505653.76647  -1930465.94542  22927262.3924   22927263.5324
      4737.2594
   4584020.21547   3559384.88743  22120805.9784   22120803.0564
     -1876.5114
  -8305162.03549  -6446652.33646  19856587.2514   19856585.6104
      2106.1594
 04  9  7 21 56 29.9970000  0  7G10G19G 8G13G28G23G27
  -4992238.16447  -3887164.47742  22570430.6654   22570430.5134
      3077.4634
  -5396174.41048  -4179075.43744  22017596.1034   22017593.8884
      3180.4784
 -12734221.40249  -9886051.92645  20539393.2674   20539391.8134
      3388.0114
  -2912868.56249  -2258108.96546  19574762.2594   19574760.9384
        -6.5494
  -2576674.92647  -1985807.02742  22913748.3764   22913748.8174
      4734.7444
   4612222.37147   3581360.55543  22126172.2204   22126169.7044
     -1880.1444
  -8336710.53949  -6471235.58646  19850584.0404   19850582.3604
      2103.2344
 04  9  7 21 56 44.9970000  0  7G10G19G 8G13G28G23G27
  -5038271.77046  -3923034.81242  22561670.4074   22561670.5954
      3068.9074
  -5443779.61748  -4216170.38744  22008537.7984   22008535.0674
      3173.6804
 -12784992.46149  -9925613.77045  20529731.6104   20529730.2044
      3384.7374
  -2912656.02049  -2257943.36346  19574802.6034   19574800.9354
       -14.1704
  -2647656.99247  -2041117.65642  22900240.4934   22900241.5914
      4732.1384
   4640480.11347   3603379.52742  22131549.4704   22131546.9424
     -1883.8494
  -8368213.85949  -6495783.63346  19844589.5324   19844587.4384
      2100.2214
 04  9  7 21 56 59.9970000  0  7G10G19G 8G13G28G23G27
  -5084177.51646  -3958805.50442  22552935.0634   22552934.1694
      3060.3834
  -5491283.39548  -4253186.29343  21999497.7594   21999495.6304
      3166.9184
 -12835715.23849  -9965137.99645  20520079.2434   20520078.4624
      3381.5184
  -2912330.00849  -2257689.34846  19574865.0094   19574863.4074
       -21.7344
  -2718600.42647  -2096398.18042  22886740.6104   22886740.5674
      4729.5624
   4668792.35547   3625440.96143  22136936.7284   22136935.4974
     -1887.4834
  -8399672.88749  -6520297.16046  19838602.4854   19838601.3214
      2097.2684
 04  9  7 21 57 14.9970000  0  7G10G19G 8G13G28G23G27
  -5129954.87546  -3994476.17242  22544223.8994   22544223.3104
      3051.8244
  -5538684.91848  -4290122.51243  21990477.1884   21990475.2714
      3160.1024
 -12886389.01249 -10004624.05545  20510436.1494   20510435.1614
      3378.2524
  -2911890.11749  -2257346.58646  19574948.8374   19574947.0444
       -29.3264
  -2789504.66047  -2151648.17242  22873247.0404   22873247.4624
      4726.9494
   4697159.41047   3647545.12943  22142336.2824   22142333.5014
     -1891.1374
  -8431087.11349  -6544775.77746  19832624.5244   19832622.8494
      2094.2824
 04  9  7 21 57 29.9970000  0  7G10G19G 8G13G28G23G27
  -5175603.42647  -4030046.47342  22535538.2124   22535536.1034
      3043.2374
  -5585983.57447  -4326978.58243  21981476.7824   21981473.7244
      3153.2444
 -12937013.64849 -10044071.79345  20500803.0634   20500801.8534
      3374.9764
  -2911336.25049  -2256915.02346  19575053.8844   19575052.3214
       -36.9244
  -2860369.16447  -2206867.21542  22859761.6184   22859762.5914
      4724.3004
   4725581.39147   3669692.05543  22147744.0564   22147741.4744
     -1894.7994
  -8462456.19949  -6569219.21946  19826655.3294   19826653.8644
      2091.2724
 04  9  7 21 57 44.9970000  0  7G10G19G 8G13G28G23G27
  -5221121.42647  -4065515.03942  22526876.2984   22526874.3134
      3034.5334
  -5633177.78147  -4363753.24644  21972495.6424   21972493.2204
      3146.2804
 -12987587.50849 -10083479.98445  20491178.6264   20491177.5714
      3371.5914
  -2910667.04349  -2256393.56646  19575181.5244   19575179.6614
       -44.6144
  -2931192.33647  -2262054.08242  22846285.1104   22846285.2944
      4721.5454
   4754059.44147   3691882.68843  22153162.8294   22153161.4314
     -1898.5374
  -8493778.68449  -6593626.33646  19820694.9234   19820693.4034
      2088.1664
 04  9  7 21 57 59.9970000  0  7G10G19G 8G13G28G23G27
  -5266510.21146  -4100882.89842  22518237.9544   22518237.0324
      3025.9194
  -5680268.54347  -4400447.31643  21963534.4314   21963532.4154
      3139.3844
 -13038112.13749 -10122849.80145  20481564.3994   20481563.2124
      3368.3094
  -2909883.88349  -2255783.32846  19575330.7594   19575328.8604
       -52.2114
  -3001975.48448  -2317209.62542  22832815.8214   22832816.0214
      4718.8774
   4782591.94546   3714115.74643  22158592.4314   22158590.6924
     -1902.1674
  -8525056.00449  -6617998.27346  19814743.0954   19814741.3294
      2085.1554
 04  9  7 21 58 14.9970000  0  7G10G19G 8G13G28G23G27
  -5311770.78547  -4136150.84842  22509625.7904   22509624.7434
      3017.3724
  -5727256.93747  -4437061.61744  21954593.1184   21954590.8534
      3132.5604
 -13088588.56649 -10162182.07045  20471959.0954   20471957.7944
      3365.0954
  -2908988.12949  -2255085.34846  19575501.0324   19575498.7124
       -59.7174
  -3072719.63747  -2372334.86342  22819353.8534   22819353.8964
      4716.2774
   4811177.44947   3736390.10942  22164032.2904   22164029.4934
     -1905.7004
  -8556289.50449  -6642336.06246  19808799.3454   19808797.7284
      2082.2334
 04  9  7 21 58 29.9970000  0  7G10G19G 8G13G28G23G27
  -5356901.56647  -4171317.69542  22501037.0874   22501036.3414
      3008.7194
  -5774141.39547  -4473594.93444  21945671.4074   21945669.3564
      3125.6304
 -13139015.59049 -10201475.84445  20462363.5404   20462361.8294
      3361.8024
  -2907978.59849  -2254298.71146  19575693.1034   19575691.4034
       -67.3024
  -3143423.27347  -2427428.54342  22805898.9784   22805899.4894
      4713.5764
   4839817.06646   3758706.65242  22169482.1884   22169479.5604
     -1909.3084
  -8587477.84049  -6666638.66846  19802864.3604   19802863.1344
      2079.2224
 04  9  7 21 58 44.9970000  0  7G10G19G 8G13G28G23G27
  -5401902.64847  -4206383.46542  22492473.6034   22492472.3174
      3000.0724
  -5820921.69948  -4510047.09844  21936768.7204   21936767.3724
      3118.6874
 -13189393.37149 -10240731.24645  20452776.5794   20452775.3374
      3358.5194
  -2906855.33249  -2253423.44946  19575906.8994   19575904.8024
       -74.8844
  -3214086.37948  -2482490.64142  22792451.8454   22792452.8684
      4710.8744
   4868510.35246   3781064.98442  22174942.4384   22174940.0174
     -1912.8864
  -8618621.11349  -6690906.14546  19796938.2514   19796936.5524
      2076.2184
 04  9  7 21 58 59.9960000  0  7G10G19G 8G13G28G23G27
  -5446769.93047  -4241344.96142  22483936.5984   22483934.5514
      2991.1524
  -5867593.57047  -4546414.74643  21927887.7704   21927885.7464
      3111.4584
 -13239717.62149 -10279944.93045  20443199.8244   20443198.9454
      3354.9504
  -2905617.75849  -2252459.11746  19576142.6064   19576140.3954
       -82.5054
  -3284703.23447  -2537516.66042  22779014.5824   22779015.3714
      4707.7904
   4897256.16447   3803464.26643  22180413.5514   22180410.1954
     -1916.3874
  -8649716.31649  -6715136.18446  19791020.9104   19791019.3164
      2073.0144
 04  9  7 21 59 14.9960000  0  7G10G19G 8G13G28G23G27
  -5491511.88747  -4276208.83642  22475422.3564   22475420.6994
      2982.7974
  -5914165.71947  -4582704.71144  21919025.0354   21919022.7664
      3104.8104
 -13289997.58249 -10319124.10245  20433632.5984   20433630.8054
      3351.9974
  -2904268.37549  -2251407.65646  19576399.2544   19576397.3094
       -89.9594
  -3355285.61347  -2592515.91542  22765582.6914   22765583.6804
      4705.4924
   4926055.39146   3825905.16042  22185893.1914   22185890.6174
     -1919.9484
  -8680770.28549  -6739334.07446  19785111.4654   19785109.9454
      2070.2654
 04  9  7 21 59 29.9960000  0  7G10G19G 8G13G28G23G27
  -5536122.19547  -4310970.10942  22466933.1294   22466931.6884
      2974.0214
  -5960631.36747  -4618911.68044  21910182.7154   21910181.0394
      3097.7104
 -13340226.80149 -10358263.74645  20424074.0354   20424072.7934
      3348.6154
  -2902803.96149  -2250266.57846  19576678.1374   19576675.9774
       -97.6284
  -3425825.48447  -2647481.90242  22752159.7234   22752159.5164
      4702.6584
   4954909.28946   3848388.65642  22191383.4414   22191381.0744
     -1923.5934
  -8711777.82849  -6763495.78946  19779210.9654   19779209.4534
      2067.1704
 04  9  7 21 59 44.9960000  0  7G10G19G 8G13G28G23G27
  -5580600.80947  -4345628.74642  22458469.1134   22458467.3594
      2965.2414
  -6006990.39846  -4655035.54344  21901361.1454   21901358.8094
      3090.6024
 -13390405.27749 -10397363.84045  20414524.7624   20414524.1524
      3345.2324
  -2901224.84049  -2249036.10246  19576978.6764   19576976.4534
      -105.2754
  -3496322.77747  -2702414.82842  22738743.4184   22738745.0234
      4699.8204
   4983817.42247   3870914.38743  22196884.9024   22196882.9654
     -1927.2094
  -8742738.89548  -6787621.29346  19773319.1214   19773317.6564
      2064.0714
 04  9  7 21 59 59.9960000  0  7G10G19G 8G13G28G23G27
  -5624947.50447  -4380184.63342  22450029.6064   22450028.5554
      2956.4464
  -6053242.48047  -4691076.09844  21892559.8954   21892557.4104
      3083.4724
 -13440532.89549 -10436424.30945  20404986.2774   20404984.6954
      3341.8414
  -2899531.12149  -2247716.34846  19577300.8164   19577298.6524
      -112.9154
  -3566777.18047  -2757314.26243  22725337.1134   22725337.5864
      4696.9604
   5012779.53147   3893482.21943  22202396.7544   22202394.2194
     -1930.8074
  -8773653.59049  -6811710.66846  19767436.2934   19767434.9414
      2060.9804
 04  9  7 22  0 14.9960000  0  7G10G19G 8G13G28G23G27
  -5669163.82047  -4414638.85942  22441616.0664   22441614.5044
      2947.7544
  -6099389.14147  -4727034.50844  21883778.3794   21883775.9344
      3076.4444
 -13490611.37549 -10475446.48445  20395456.4494   20395455.0084
      3338.5654
  -2897724.44549  -2246308.55946  19577644.0514   19577642.5784
      -120.4454
  -3637190.25447  -2812181.50443  22711938.3094   22711938.6764
      4694.2054
   5041793.79747   3916090.71943  22207918.8244   22207915.0664
     -1934.2844
  -8804523.45349  -6835765.10246  19761561.8244   19761560.3754
      2057.9914
 04  9  7 22  0 29.9960000  0  7G10G19G 8G13G28G23G27
  -5713249.20347  -4448991.10542  22433226.2074   22433225.0354
      2939.0264
  -6145429.60548  -4762910.18044  21875017.6214   21875014.6724
      3069.3644
 -13540640.23049 -10514430.00445  20385936.4964   20385935.1804
      3335.2574
  -2895804.30149  -2244812.36746  19578009.8164   19578007.9224
      -128.0104
  -3707561.43448  -2867016.11742  22698546.3404   22698547.6994
      4691.4124
   5070860.30147   3938739.89842  22213449.5354   22213446.7894
     -1937.7674
  -8835348.21149  -6859784.39846  19755696.2774   19755694.9024
      2054.9844
 04  9  7 22  0 44.9960000  0  7G10G19G 8G13G28G23G27
  -5757203.73047  -4483241.38742  22424862.1294   22424860.7774
      2930.3024
  -6191363.90248  -4798703.07844  21866275.9104   21866274.0204
      3062.2864
 -13590619.73849 -10553375.05945  20376425.4184   20376424.4844
      3331.9674
  -2893771.41849  -2243228.30946  19578396.8014   19578394.6684
      -135.5264
  -3777890.79748  -2921818.18043  22685163.9814   22685164.7814
      4688.6244
   5099978.76247   3961429.53143  22218990.9344   22218987.6454
     -1941.2314
  -8866128.03549  -6883768.66046  19749839.3164   19749837.8324
      2051.9884
 04  9  7 22  0 59.9960000  0  7G10G19G 8G13G28G23G27
  -5801028.02347  -4517390.19542  22416523.2544   22416521.7894
      2921.6204
  -6237192.64147  -4834413.73044  21857554.7314   21857551.9774
      3055.2494
 -13640550.84049 -10592282.38745  20366924.1844   20366923.1414
      3328.7404
  -2891626.60549  -2241557.03146  19578804.5824   19578802.9924
      -142.9874
  -3848179.05947  -2976588.16042  22671787.9264   22671788.8674
      4685.8844
   5129148.06647   3984158.81642  22224540.8794   22224537.9574
     -1944.6204
  -8896863.70749  -6907718.53946  19743990.4184   19743989.0234
      2049.0454
 04  9  7 22  1 14.9960000  0  7G10G19G 8G13G28G23G27
  -5844717.40647  -4551433.85542  22408209.7854   22408207.5394
      2912.6264
  -6282910.94148  -4870038.37544  21848855.6994   21848852.4614
      3047.8874
 -13690428.77049 -10631148.28945  20357432.3564   20357430.9344
      3325.1954
  -2889365.17249  -2239794.89846  19579235.2704   19579233.5234
      -150.7624
  -3918421.34848  -3031322.32842  22658421.4264   22658422.0904
      4682.8194
   5158372.63347   4006931.14543  22230103.0744   22230099.1644
     -1948.3044
  -8927550.59849  -6931630.40246  19738151.0204   19738149.4654
      2045.7934
 04  9  7 22  1 29.9960000  0  7G10G19G 8G13G28G23G27
  -5888273.45347  -4585373.62542  22399920.5274   22399918.9734
      2903.7364
  -6328520.14847  -4905578.00044  21840175.9344   21840173.3754
      3040.6144
 -13740255.25049 -10669974.10545  20347950.6294   20347949.8874
      3321.7654
  -2886989.02049  -2237943.35546  19579687.6064   19579685.4924
      -158.4104
  -3988619.22747  -3086021.89842  22645062.8874   22645064.7894
      4679.8594
   5187650.49647   4029745.02343  22235673.7154   22235671.3524
     -1951.8584
  -8958190.57449  -6955505.70346  19732320.2464   19732318.5744
      2042.6654
 04  9  7 22  1 44.9960000  0  7G10G19G 8G13G28G23G27
  -5931699.44947  -4619212.07442  22391656.7934   22391655.0984
      2895.0664
  -6374023.65247  -4941035.22743  21831516.7314   21831514.4264
      3033.5674
 -13790033.64549 -10708762.43745  20338478.5044   20338477.0744
      3318.5604
  -2884501.68049  -2236005.18746  19580160.8564   19580158.5944
      -165.8234
  -4058775.96147  -3140689.41042  22631712.8954   22631713.8404
      4677.1164
   5216977.94947   4052597.52043  22241253.9414   22241252.1414
     -1955.1644
  -8988787.09849  -6979347.14546  19726498.1604   19726496.4304
      2039.7684
 04  9  7 22  1 59.9960000  0  7G10G19G 8G13G28G23G27
  -5974993.60246  -4652947.78542  22383417.9814   22383417.0744
      2886.2774
  -6419419.28948  -4976408.43744  21822879.4414   21822876.4844
      3026.3764
 -13839762.12549 -10747511.89545  20329014.6684   20329013.7894
      3315.2324
  -2881901.45749  -2233979.05546  19580655.6994   19580653.6334
      -173.3484
  -4128889.70348  -3195323.42242  22618371.6064   22618370.9384
      4674.2494
   5246356.38746   4075489.73443  22246845.7154   22246843.3524
     -1958.5624
  -9019338.35949  -7003153.31646  19720684.4574   19720682.5864
      2036.7514
 04  9  7 22  2 14.9960000  0  7G10G19G 8G13G28G23G27
  -6018155.67647  -4686580.56242  22375204.6604   22375203.1454
      2877.4724
  -6464706.87947  -5011697.42244  21814260.6684   21814257.2194
      3019.1734
 -13889440.84049 -10786222.57045  20319561.6604   20319560.3954
      3311.9144
  -2879188.49649  -2231865.06646  19581171.6914   19581169.7154
      -180.8644
  -4198960.43448  -3249923.93743  22605037.0434   22605036.4534
      4671.3824
   5275785.63347   4098421.56343  22252445.8014   22252443.3874
     -1961.9504
  -9049844.46549  -7026924.31246  19714878.9734   19714877.1094
      2033.7404
 04  9  7 22  2 29.9960000  0  7G10G19G 8G13G28G23G27
  -6061187.57447  -4720111.89142  22367017.1524   22367014.5274
      2868.7934
  -6509888.18747  -5046903.58244  21805662.5824   21805660.7464
      3012.0874
 -13939071.86749 -10824896.08245  20310116.9654   20310116.2314
      3308.7354
  -2876364.85949  -2229664.85246  19581709.1524   19581707.2034
      -188.2424
  -4268989.94147  -3304492.30542  22591710.4024   22591710.1564
      4668.6344
   5305263.47347   4121391.25443  22258055.3404   22258053.2314
     -1965.1894
  -9080307.36749  -7050661.63346  19709082.5354   19709080.7074
      2030.8604
 04  9  7 22  2 44.9960000  0  7G10G19G 8G13G28G23G27
  -6104086.85247  -4753539.91442  22358852.6134   22358851.2344
      2859.9524
  -6554960.72347  -5082025.03543  21797086.1844   21797083.3204
      3004.8364
 -13988652.58249 -10863530.39145  20300682.4574   20300681.2894
      3305.3814
  -2873428.60249  -2227376.87146  19582267.5434   19582265.5864
      -195.7514
  -4338975.66847  -3359026.55942  22578391.8094   22578392.3564
      4665.7154
   5334791.83647   4144400.28543  22263674.4654   22263672.3954
     -1968.5584
  -9110724.89149  -7074363.59446  19703294.0434   19703292.3364
      2027.8354
 04  9  7 22  2 59.9960000  0  7G10G19G 8G13G28G23G27
  -6146852.16847  -4786863.55142  22350714.8404   22350712.6214
      2851.0214
  -6599923.05948  -5117060.57444  21788530.2704   21788527.6914
      2997.4894
 -14038182.05149 -10902124.77045  20291257.0904   20291256.1254
      3301.9654
  -2870378.48849  -2225000.16046  19582847.9344   19582846.1524
      -203.3414
  -4408916.29347  -3413525.69542  22565082.4414   22565083.0514
      4662.7084
   5364371.82846   4167449.59443  22269302.5664   22269300.9104
     -1971.9994
  -9141095.80549  -7098029.23846  19697514.4494   19697512.8914
      2024.7284
 04  9  7 22  3 14.9960000  0  7G10G19G 8G13G28G23G27
  -6189484.71547  -4820083.67242  22342601.6684   22342600.6994
      2842.1704
  -6644776.12548  -5152011.00044  21779995.1914   21779991.9574
      2990.2044
 -14087661.31649 -10940680.02745  20281841.7854   20281840.3714
      3298.6184
  -2867215.83649  -2222535.77746  19583449.9654   19583448.0664
      -210.8434
  -4478812.85948  -3467990.43742  22551781.7774   22551782.2114
      4659.7714
   5394001.98046   4190537.96943  22274941.1524   22274939.5314
     -1975.3434
  -9171421.20749  -7121659.42246  19691743.8714   19691742.3134
      2021.6934
 04  9  7 22  3 29.9960000  0  7G10G19G 8G13G28G23G27
  -6231986.24647  -4853201.75842  22334514.1374   22334512.2344
      2833.4354
  -6689521.69147  -5186877.64844  21771479.9024   21771477.4344
      2983.0384
 -14137092.55949 -10979197.85945  20272435.3014   20272433.9814
      3295.4164
  -2863942.69949  -2219985.30546  19584073.0594   19584071.0824
      -218.2094
  -4548667.36747  -3522422.44542  22538488.8094   22538489.4384
      4656.9674
   5423679.91046   4213663.57043  22280589.1524   22280586.7894
     -1978.5294
  -9201703.36349  -7145255.90246  19685981.5274   19685979.2074
      2018.8104
 04  9  7 22  3 44.9960000  0  7G10G19G 8G13G28G23G27
  -6274354.53947  -4886216.02042  22326452.0354   22326449.8324
      2824.5534
  -6734157.41047  -5221658.71144  21762985.8094   21762983.1174
      2975.7154
 -14186473.56649 -11017676.56245  20263038.3874   20263036.4534
      3292.0674
  -2860557.03549  -2217347.13746  19584716.9884   19584715.6764
      -225.7114
  -4618477.43748  -3576819.83642  22525204.2074   22525205.1334
      4654.0054
   5453407.54346   4236827.90643  22286245.5274   22286243.8324
     -1981.8424
  -9231940.07449  -7168816.97346  19680227.3794   19680225.6094
      2015.7814
 04  9  7 22  3 59.9960000  0  7G10G19G 8G13G28G23G27
  -6316591.44947  -4919127.89842  22318414.8874   22318412.8674
      2815.7944
  -6778685.03547  -5256355.55544  21754512.0904   21754509.8674
      2968.5084
 -14235806.23449 -11056117.58645  20253650.4734   20253648.8014
      3288.8454
  -2857061.01649  -2214622.98046  19585382.7314   19585380.6914
      -233.0684
  -4688244.94148  -3631184.03142  22511928.1684   22511928.9964
      4651.1674
   5483182.59447   4260029.18042  22291912.1374   22291909.7424
     -1985.0034
  -9262133.27749  -7192344.14146  19674481.9264   19674480.0474
      2012.8804
 04  9  7 22  4 14.9960000  0  7G10G19G 8G13G28G23G27
  -6358696.65647  -4951937.14142  22310401.8714   22310400.7424
      2807.0144
  -6823104.03548  -5290967.69944  21746060.2314   21746057.7664
      2961.2674
 -14285090.42249 -11094520.83245  20244272.1604   20244270.5904
      3285.6134
  -2853454.45749  -2211812.69146  19586069.0044   19586067.4814
      -240.4374
  -4757969.37147  -3685514.69942  22498659.5204   22498660.5394
      4648.2954
   5513005.21146   4283267.51643  22297587.2234   22297585.5824
     -1988.1744
  -9292282.66049  -7215837.17246  19668744.9494   19668742.9774
      2009.9594
 04  9  7 22  4 29.9960000  0  7G10G19G 8G13G28G23G27
  -6400668.00847  -4984642.09442  22302415.4344   22302413.5354
      2798.0904
  -6867412.17648  -5325493.51644  21737627.8484   21737625.5164
      2953.8764
 -14334324.22349 -11132884.82445  20234902.4964   20234901.7344
      3282.2534
  -2849735.39549  -2208914.72346  19586776.2854   19586775.5514
      -247.9374
  -4827648.59848  -3739810.10942  22485399.8954   22485400.2034
      4645.2824
   5542877.25446   4306544.37942  22303271.4574   22303270.4924
     -1991.4704
  -9322386.36349  -7239294.60546  19663016.4264   19663014.5744
      2006.9144
 04  9  7 22  4 44.9960000  0  7G10G19G 8G13G28G23G27
  -6442503.34047  -5017241.04742  22294454.4104   22294452.3134
      2789.0224
  -6911607.16447  -5359931.14544  21729218.1294   21729215.5044
      2946.3334
 -14383505.43749 -11171207.82445  20225544.0434   20225543.2664
      3278.7484
  -2845902.04749  -2205927.71546  19587506.1604   19587504.3674
      -255.5574
  -4897280.44947  -3794068.67642  22472149.5904   22472149.2664
      4642.1234
   5572800.51246   4329861.12142  22308965.3404   22308963.9534
     -1994.8844
  -9352442.27349  -7262714.78946  19657296.9344   19657295.0274
      2003.7274
 04  9  7 22  4 59.9960000  0  7G10G19G 8G13G28G23G27
  -6484205.68447  -5049736.37942  22286518.2074   22286516.9734
      2780.1564
  -6955691.99648  -5394282.93444  21720829.4964   21720826.6644
      2938.9894
 -14432636.91849 -11209492.08245  20216195.0664   20216193.5704
      3275.4324
  -2841957.62949  -2202854.14146  19588256.9574   19588254.7314
      -262.9614
  -4966867.85248  -3848292.52743  22458907.6294   22458907.8204
      4639.1604
   5602771.54746   4353215.11742  22314668.7624   22314667.5514
     -1998.0694
  -9382453.51649  -7286100.16846  19651585.8164   19651584.1884
      2000.7494
 04  9  7 22  5 14.9960000  0  7G10G19G 8G13G28G23G27
  -6525773.93046  -5082127.21142  22278607.8794   22278606.7664
      2771.2164
  -6999665.33248  -5428547.85544  21712461.3164   21712458.7074
      2931.5564
 -14481717.77749 -11247736.91045  20206855.4494   20206853.8444
      3272.0574
  -2837901.12149  -2199693.23446  19589028.7384   19589026.9964
      -270.4344
  -5036409.68448  -3902480.90243  22445674.1214   22445674.1564
      4636.1224
   5632791.14546   4376606.92242  22320381.5664   22320379.7074
     -2001.3074
  -9412419.09449  -7309449.96946  19645883.7544   19645881.8634
      1997.7054
 04  9  7 22  5 29.9960000  0  7G10G19G 8G13G28G23G27
  -6567208.57846  -5114413.95742  22270723.1294   22270722.0744
      2762.3104
  -7043527.68447  -5462726.26644  21704114.0124   21704112.0124
      2924.1574
 -14530748.85549 -11285942.92645  20197524.8714   20197523.4614
      3268.7394
  -2833733.43749  -2196445.70746  19589821.8714   19589819.8714
      -277.8464
  -5105906.52748  -3956634.21943  22432449.0744   22432449.3874
      4633.1234
   5662858.14846   4400035.74642  22326102.5594   22326101.5394
     -2004.4674
  -9442339.85949  -7332764.84046  19640189.8094   19640188.1174
      1994.7184
 04  9  7 22  5 44.9960000  0  7G10G19G 8G13G28G23G27
  -6608510.50446  -5146597.25842  22262863.5984   22262862.3874
      2753.4624
  -7087279.77748  -5496818.79744  21695788.4344   21695786.1914
      2916.8064
 -14579731.15649 -11324110.94545  20188203.7234   20188202.1954
      3265.4874
  -2829455.43449  -2193112.20346  19590635.8094   19590634.0004
      -285.2004
  -5175359.07448  -4010753.01243  22419233.8714   22419233.6844
      4630.1704
   5692971.61347   4423500.71142  22331833.7934   22331832.1564
     -2007.5644
  -9472216.65649  -7356045.46946  19634504.5274   19634502.8054
      1991.7864
 04  9  7 22  5 59.9960000  0  7G10G19G 8G13G28G23G27
  -6649676.91046  -5178674.96542  22255029.8164   22255029.2584
      2744.4274
  -7130918.59847  -5530823.03544  21687484.1914   21687481.0664
      2909.2554
 -14628661.81649 -11362238.71145  20178892.0514   20178891.3164
      3262.0444
  -2825064.59849  -2189690.78546  19591471.4494   19591469.4814
      -292.7224
  -5244764.48448  -4064835.05543  22406025.7774   22406026.2664
      4627.0274
   5723134.01246   4447003.80942  22337573.6374   22337571.7344
     -2010.8274
  -9502046.70749  -7379289.65246  19628828.0204   19628826.3834
      1988.6704
 04  9  7 22  6 14.9960000  0  7G10G19G 8G13G28G23G27
  -6690708.79346  -5210647.85942  22247221.4574   22247220.4344
      2735.4594
  -7174445.07848  -5564739.74244  21679201.4344   21679198.5274
      2901.7654
 -14677541.82449 -11400327.02345  20169591.1524   20169589.2114
      3258.6674
  -2820562.34449  -2186182.55546  19592328.2464   19592326.0554
      -300.1504
  -5314123.90248  -4118881.28543  22392826.7074   22392827.2584
      4623.9614
   5753343.75047   4470543.79742  22343322.6524   22343320.1994
     -2013.9834
  -9531831.32449  -7402498.44146  19623160.0824   19623158.5274
      1985.6414
 04  9  7 22  6 29.9960000  0  7G10G19G 8G13G28G23G27
  -6731608.18746  -5242517.52042  22239439.2074   22239437.5904
      2726.6264
  -7217861.14848  -5598570.43444  21670939.8634   21670937.2344
      2894.4054
 -14726373.50849 -11438377.68045  20160298.4344   20160296.9654
      3255.4464
  -2815950.95749  -2182589.27746  19593205.9414   19593203.5944
      -307.4264
  -5383439.27348  -4172893.20743  22379636.6064   22379636.7544
      4621.0254
   5783598.48047   4494118.86342  22349079.6764   22349078.1174
     -2016.9824
  -9561572.57449  -7425673.43746  19617500.3324   19617499.3164
      1982.7504
 04  9  7 22  6 44.9960000  0  7G10G19G 8G13G28G23G27
  -6772374.51646  -5274283.48442  22231681.4964   22231681.0864
      2717.7554
  -7261166.21148  -5632314.61344  21662699.4494   21662696.3914
      2887.0044
 -14775156.60549 -11476390.47345  20151015.2464   20151013.9064
      3252.2074
  -2811229.99249  -2178910.62146  19594103.7384   19594102.2384
      -314.7314
  -5452709.92648  -4226870.28143  22366455.2704   22366455.1334
      4618.0434
   5813898.52347   4517729.23442  22354845.2774   22354843.2974
     -2020.0034
  -9591270.02749  -7448814.31246  19611849.1764   19611847.7934
      1979.8304
 04  9  7 22  6 59.9960000  0  7G10G19G 8G13G28G23G27
  -6813004.88346  -5305943.49642  22223949.3244   22223948.6484
      2708.6914
  -7304357.14848  -5665969.85944  21654479.9104   21654477.0204
      2879.3964
 -14823887.92249 -11514362.91445  20141742.2624   20141740.7194
      3248.7544
  -2806396.71949  -2175144.44546  19595023.8324   19595021.6414
      -322.2184
  -5521932.96148  -4280810.22343  22353282.4884   22353281.9104
      4614.8694
   5844246.38747   4541376.86742  22360621.0044   22360618.2664
     -2023.1914
  -9620920.92249  -7471918.90246  19606206.8404   19606205.1374
      1976.7264
 04  9  7 22  7 14.9960000  0  7G10G19G 8G13G28G23G27
  -6853501.94546  -5337499.65642  22216243.3954   22216242.9384
      2699.8044
  -7347436.49648  -5699538.15643  21646281.6844   21646279.9774
      2871.9574
 -14872570.24249 -11552297.18045  20132477.8794   20132476.6374
      3245.4884
  -2801454.08649  -2171293.07046  19595964.2544   19595962.2704
      -329.5094
  -5591110.87547  -4334715.04343  22340117.5514   22340118.2624
      4611.8614
   5874639.12947   4565059.46142  22366404.1604   22366402.5514
     -2026.1834
  -9650528.03949  -7494989.37946  19600572.5594   19600571.0514
      1973.8084
 04  9  7 22  7 29.9960000  0  7G10G19G 8G13G28G23G27
  -6893863.19947  -5368949.96942  22208563.5434   22208561.4184
      2690.7504
  -7390401.65248  -5733017.47344  21638106.2074   21638103.8714
      2864.3444
 -14921201.15649 -11590191.38745  20123223.9494   20123222.2584
      3242.0614
  -2796399.75049  -2167354.64146  19596926.5204   19596923.8984
      -336.9564
  -5660241.21148  -4388582.77743  22326962.7074   22326963.3594
      4608.6894
   5905078.84046   4588778.65642  22372196.5354   22372194.8674
     -2029.3144
  -9680088.96149  -7518023.86346  19594947.8714   19594945.8054
      1970.7284
 04  9  7 22  7 44.9960000  0  7G10G19G 8G13G28G23G27
  -6934089.00846  -5400294.74642  22200908.6214   22200907.1254
      2681.7214
  -7433252.73848  -5766407.92244  21629952.3164   21629949.4224
      2856.7394
 -14969781.16449 -11628045.92245  20113979.6684   20113977.6724
      3238.6674
  -2791234.23449  -2163329.57446  19597909.0044   19597907.1524
      -344.3684
  -5729324.25448  -4442413.64143  22313816.8714   22313816.8324
      4605.5364
   5935564.80546   4612533.89543  22377998.7704   22377996.5824
     -2032.3984
  -9709604.09049  -7541022.66046  19589330.9654   19589329.3484
      1967.6754
 04  9  7 22  7 59.9960000  0  7G10G19G 8G13G28G23G27
  -6974179.35246  -5431533.96142  22193279.0434   22193278.4414
      2672.6904
  -7475989.80148  -5799709.49244  21621818.9814   21621816.9264
      2849.1374
 -15018310.51249 -11665860.99245  20104744.9024   20104743.1254
      3235.2904
  -2785958.02349  -2159218.26246  19598913.1914   19598911.3754
      -351.7474
  -5798360.00847  -4496207.66442  22300679.2704   22300679.3984
      4602.3844
   5966096.52747   4636324.79343  22383808.9414   22383807.6804
     -2035.4484
  -9739073.67649  -7563985.96946  19583723.2234   19583721.2734
      1964.6394
 04  9  7 22  8 14.9960000  0  7G10G19G 8G13G28G23G27
  -7014131.81246  -5462665.75042  22185676.8164   22185676.0554
      2663.4974
  -7518610.18048  -5832920.12544  21613709.0434   21613706.3524
      2841.3594
 -15066786.60949 -11703634.55545  20095519.7854   20095518.5044
      3231.7404
  -2780568.67649  -2155018.78146  19599938.5664   19599936.7584
      -359.2904
  -5867346.01247  -4549962.94543  22287552.1214   22287552.4964
      4599.0674
   5996676.37147   4660153.18443  22389627.8634   22389626.7584
     -2038.6564
  -9768495.29349  -7586911.89546  19578124.3094   19578122.7974
      1961.4414
 04  9  7 22  8 29.9960000  0  7G10G19G 8G13G28G23G27
  -7053947.49646  -5493690.93442  22178100.0664   22178098.9494
      2654.3794
  -7561114.91048  -5866040.70344  21605620.5434   21605618.4694
      2833.6494
 -15115210.84049 -11741367.72345  20086305.0984   20086304.0784
      3228.2824
  -2775067.57849  -2150732.21946  19600985.9574   19600984.1064
      -366.7404
  -5936283.17247  -4603680.11743  22274433.2154   22274434.4774
      4595.8114
   6027302.93846   4684017.95342  22395454.7384   22395454.6724
     -2041.7714
  -9797870.12149  -7609801.37546  19572534.8484   19572532.9654
      1958.3224
 04  9  7 22  8 44.9960000  0  7G10G19G 8G13G28G23G27
  -7093626.70346  -5524609.80942  22170549.1914   22170548.5514
      2645.2804
  -7603504.19148  -5899071.25844  21597553.7464   21597551.5274
      2825.9524
 -15163583.32449 -11779060.54745  20077100.2314   20077098.8204
      3224.8324
  -2769455.28549  -2146359.01646  19602053.6294   19602052.0944
      -374.1534
  -6005171.86747  -4657359.56243  22261324.3714   22261324.5084
      4592.5804
   6057975.41846   4707918.50842  22401291.8014   22401290.7814
     -2044.8324
  -9827198.59849  -7632654.73046  19566953.7934   19566951.8564
      1955.2324
 04  9  7 22  8 59.9960000  0  7G10G19G 8G13G28G23G27
  -7133169.90746  -5555422.64842  22163024.6374   22163023.6414
      2636.2144
  -7645778.35548  -5932012.15644  21589510.4024   21589507.9144
      2818.2784
 -15211904.92649 -11816713.73845  20067904.4414   20067903.6334
      3221.4404
  -2763732.48849  -2141899.69546  19603142.8014   19603141.0124
      -381.5204
  -6074012.49647  -4711001.53943  22248224.2774   22248224.8134
      4589.3754
   6088692.91447   4731854.15243  22407137.8094   22407136.7464
     -2047.8334
  -9856481.41449  -7655472.50846  19561381.6134   19561379.8324
      1952.1884
 04  9  7 22  9 14.9960000  0  7G10G19G 8G13G28G23G27
  -7172575.21946  -5586128.12942  22155525.9574   22155524.6294
      2627.0214
  -7687935.53948  -5964861.87144  21581487.3714   21581485.0514
      2810.4794
 -15260173.89549 -11854325.91445  20058719.4734   20058717.5514
      3217.9314
  -2757897.52749  -2137352.98846  19604253.0044   19604251.4224
      -388.9974
  -6142803.10247  -4764604.56243  22235133.7544   22235134.1954
      4586.0404
   6119457.01247   4755826.10943  22412992.0744   22412990.4534
     -2050.9404
  -9885716.69149  -7678253.24646  19555818.0594   19555816.0274
      1949.0184
 04  9  7 22  9 29.9960000  0  7G10G19G 8G13G28G23G27
  -7211846.44946  -5616729.07042  22148053.2774   22148051.8714
      2618.0824
  -7729979.28148  -5997623.19144  21573486.8014   21573483.6914
      2802.9164
 -15308394.09049 -11891900.07445  20049543.7074   20049542.2074
      3214.6804
  -2751954.43049  -2132722.01646  19605384.1914   19605381.8674
      -396.2074
  -6211547.46147  -4818171.52043  22222052.1524   22222052.2274
      4582.9574
   6150263.68846   4779831.25042  22418853.3324   22418853.1454
     -2053.7784
  -9914908.47349  -7701000.08646  19550262.8564   19550261.1334
      1946.1194
 04  9  7 22  9 44.9960000  0  7G10G19G 8G13G28G23G27
  -7250980.39846  -5647223.04742  22140605.6684   22140605.1094
      2608.9304
  -7771906.23448  -6030293.52044  21565508.0904   21565505.8404
      2795.1304
 -15356562.30149 -11929433.73845  20040377.5434   20040376.2194
      3211.2144
  -2745900.27349  -2128004.50446  19606536.0434   19606533.8484
      -403.6104
  -6280242.39547  -4871699.96943  22208979.8484   22208980.4184
      4579.6624
   6181115.66846   4803871.67642  22424724.8244   22424724.1134
     -2056.7994
  -9944053.43749  -7723710.44546  19544716.9654   19544714.9494
      1942.9984
 04  9  7 22  9 59.9960000  0  7G10G19G 8G13G28G23G27
  -7289977.43746  -5677610.36342  22133184.8634   22133184.0394
      2599.8034
  -7813716.77048  -6062873.12943  21557551.4734   21557548.9734
      2787.3694
 -15404678.94949 -11966927.21146  20031221.0124   20031219.5864
      3207.7774
  -2739735.49249  -2123200.79746  19607709.2544   19607707.2934
      -410.9854
  -6348888.10547  -4925190.08243  22195916.3634   22195917.0164
      4576.3814
   6212012.30546   4827946.93042  22430605.0044   22430603.4884
     -2059.7764
  -9973152.16049  -7746384.77046  19539179.6064   19539177.5664
      1939.9154
 04  9  7 22 10 14.9960000  0  7G10G19G 8G13G28G23G27
  -7328835.08247  -5707889.02742  22125790.6684   22125789.9494
      2590.5104
  -7855408.05148  -6095359.82844  21549618.5824   21549615.8094
      2779.4194
 -15452741.48049 -12004378.52745  20022075.0274   20022073.7934
      3204.1694
  -2733457.84849  -2118309.14146  19608903.2464   19608901.6064
      -418.5104
  -6417481.98047  -4978639.78543  22182863.8794   22182864.0234
      4572.9254
   6242955.83647   4852058.67242  22436493.9024   22436491.8364
     -2062.9024
 -10002202.17249  -7769021.12946  19533651.1764   19533649.3134
      1936.6674
 04  9  7 22 10 29.9960000  0  7G10G19G 8G13G28G23G27
  -7367552.39146  -5738058.34842  22118422.6134   22118421.7194
      2581.1544
  -7896979.22348  -6127752.90644  21541707.4184   21541705.2194
      2771.4114
 -15500749.11349 -12041787.05545  20012939.3244   20012938.1024
      3200.5094
  -2727066.64549  -2113328.98846  19610120.4024   19610117.7114
      -426.0804
  -6486023.07847  -5032048.37943  22169820.8794   22169821.9614
      4569.4074
   6273946.72746   4876207.36742  22442390.2384   22442389.4654
     -2066.0594
 -10031202.71549  -7791618.95746  19528132.7314   19528130.8284
      1933.3704
 04  9  7 22 10 44.9960000  0  7G10G19G 8G13G28G23G27
  -7406131.49646  -5768119.99242  22111082.1374   22111080.1684
      2571.9404
  -7938432.20348  -6160053.89543  21533819.0044   21533816.4614
      2763.5324
 -15548704.14549 -12079154.61345  20003813.9964   20003812.8284
      3197.0024
  -2720564.31249  -2108262.25446  19611357.1844   19611355.0664
      -433.4894
  -6554513.55146  -5085417.50842  22156786.7384   22156787.4304
      4566.0324
   6304982.52746   4900391.02742  22448296.3634   22448295.4224
     -2069.0534
 -10060156.06249  -7814180.00846  19522622.8714   19522621.5164
      1930.2234
 04  9  7 22 10 59.9960000  0  7G10G19G 8G13G28G23G27
  -7444570.34046  -5798072.35942  22103766.9344   22103765.3794
      2562.5904
  -7979764.93448  -6192261.18043  21525953.9574   21525950.6994
      2755.5154
 -15596604.51249 -12116479.55945  19994698.9104   19994697.5634
      3193.3584
  -2713949.03549  -2103107.51246  19612616.0274   19612614.3054
      -441.0184
  -6622951.31646  -5138745.60942  22143763.5434   22143764.1724
      4562.5184
   6336064.95346   4924611.01242  22454210.4344   22454210.9774
     -2072.1624
 -10089060.25449  -7836702.74246  19517122.3634   19517121.3134
      1926.9464
 04  9  7 22 11 14.9960000  0  7G10G19G 8G13G28G23G27
  -7482868.95746  -5827915.40242  22096479.1684   22096478.0784
      2553.2414
  -8020977.13748  -6224374.56243  21518111.2854   21518108.6684
      2747.4804
 -15644450.25849 -12153761.94945  19985594.3014   19985592.6684
      3189.7164
  -2707221.02049  -2097864.91446  19613896.1844   19613894.6064
      -448.5344
  -6691336.32846  -5192032.53943  22130750.5274   22130751.2664
      4559.0014
   6367193.54346   4948866.95742  22460136.0984   22460134.1804
     -2075.2394
 -10117915.22349  -7859187.14146  19511631.8094   19511630.0434
      1923.6654
 04  9  7 22 11 29.9960000  0  7G10G19G 8G13G28G23G27
  -7521030.10546  -5857651.37542  22089217.2624   22089216.6294
      2544.0774
  -8062071.52048  -6256396.12144  21510291.3484   21510288.4304
      2739.6264
 -15692244.27049 -12191004.01645  19976499.4264   19976497.7314
      3186.2674
  -2700383.18049  -2092536.73046  19615197.8164   19615195.8564
      -455.8564
  -6759671.17648  -5245280.39843  22117747.4814   22117748.0204
      4555.6574
   6398365.30946   4973156.57842  22466067.4494   22466065.7464
     -2078.1184
 -10146724.00049  -7881635.52346  19506149.9414   19506148.0664
      1920.5854
 04  9  7 22 11 44.9960000  0  7G10G19G 8G13G28G23G27
  -7559051.98846  -5887278.78542  22081981.6294   22081980.9344
      2534.7924
  -8103046.19148  -6288324.41444  21502494.0434   21502491.3094
      2731.6454
 -15739984.82049 -12228204.43445  19967414.5514   19967413.0434
      3182.7034
  -2693434.06249  -2087121.84446  19616520.1454   19616518.1134
      -463.2744
  -6827954.14847  -5298487.85543  22104753.2234   22104753.8134
      4552.1984
   6429581.81347   4997481.09442  22472007.1844   22472006.1764
     -2081.1004
 -10175484.79749  -7904046.53546  19500676.5904   19500674.8954
      1917.3864
 04  9  7 22 11 59.9960000  0  7G10G19G 8G13G28G23G27
  -7596934.68446  -5916797.77042  22074772.6914   22074772.0864
      2525.5134
  -8143901.17648  -6320159.46544  21494719.4964   21494716.8564
      2723.6664
 -15787672.02049 -12265363.27745  19958340.1454   19958338.4814
      3179.1474
  -2686373.99649  -2081620.52046  19617863.5904   19617861.7274
      -470.6714
  -6896185.27047  -5351654.89143  22091769.9654   22091769.1294
      4548.7414
   6460842.38346   5021839.89842  22477955.7624   22477955.0164
     -2084.0384
 -10204197.93749  -7926420.40646  19495212.9734   19495211.2344
      1914.2094
 04  9  7 22 12 14.9960000  0  7G10G19G 8G13G28G23G27
  -7634675.34846  -5946206.07842  22067591.7314   22067590.3134
      2516.0444
  -8184633.43448  -6351898.86343  21486968.8014   21486965.8524
      2715.4844
 -15835303.14149 -12302478.43045  19949276.0904   19949274.6604
      3175.4084
  -2679200.13749  -2076030.52046  19619228.4654   19619226.6684
      -478.2574
  -6964361.58247  -5404779.22343  22078795.5124   22078795.9844
      4545.0884
   6492149.68046   5046235.10542  22483914.1374   22483912.3674
     -2087.1534
 -10232860.43749  -7948754.81646  19489758.3164   19489757.1134
      1910.8334
 04  9  7 22 12 29.9960000  0  7G10G19G 8G13G28G23G27
  -7672276.68046  -5975505.79742  22060436.5984   22060434.5434
      2506.7554
  -8225245.66048  -6383544.73043  21479240.5124   21479237.2734
      2707.4824
 -15882881.04749 -12339552.10245  19940222.3954   19940221.0944
      3171.8604
  -2671915.49649  -2070354.18046  19620615.0354   19620613.3134
      -485.6434
  -7032485.72747  -5457862.91843  22065831.7624   22065832.2234
      4541.6104
   6523500.60947   5070664.28542  22489880.0664   22489878.5354
     -2090.0624
 -10261475.17249  -7971052.00846  19484313.2704   19484311.6914
      1907.6494
 04  9  7 22 12 44.9960000  0  7G10G19G 8G13G28G23G27
  -7709738.66447  -6004696.96142  22053307.2234   22053306.1684
      2497.4664
  -8265737.39548  -6415096.66843  21471535.5354   21471531.7234
      2699.4494
 -15930405.73449 -12376584.31245  19931178.8564   19931177.0784
      3168.3134
  -2664520.12549  -2064591.56646  19622022.2314   19622020.8634
      -493.0254
  -7100557.43747  -5510905.73843  22052878.1914   22052878.0084
      4538.1144
   6554895.07447   5095127.42642  22495853.8164   22495852.0984
     -2092.9644
 -10290042.14849  -7993311.98846  19478877.2074   19478875.8404
      1904.4654
 04  9  7 22 12 59.9960000  0  7G10G19G 8G13G28G23G27
  -7747063.25847  -6033781.02742  22046204.9814   22046203.5234
      2488.3064
  -8306110.62948  -6446556.32443  21463851.8634   21463849.5044
      2691.5494
 -15977879.08249 -12413576.52045  19922144.5594   19922143.2704
      3164.8904
  -2657016.34049  -2058744.48046  19623450.1764   19623448.4734
      -500.2524
  -7168578.67248  -5563909.24243  22039935.0044   22039933.7774
      4534.7494
   6586330.65647   5119622.60942  22501835.8244   22501834.7464
     -2095.7054
 -10318563.37549  -8015536.31646  19473449.7314   19473448.2584
      1901.4154
 04  9  7 22 13 14.9960000  0  7G10G19G 8G13G28G23G27
  -7784249.14547  -6062757.05542  22039127.8324   22039127.4264
      2479.0594
  -8346364.05548  -6477922.62143  21456191.8954   21456190.3594
      2683.5624
 -16025300.02049 -12450527.88345  19913120.7544   19913119.5554
      3161.3964
  -2649403.16049  -2052812.13746  19624898.6064   19624897.3484
      -507.5454
  -7236548.19547  -5616872.47743  22027000.0824   22026999.9104
      4531.3024
   6617808.30147   5144150.60542  22507825.9024   22507824.5084
     -2098.5104
 -10347037.77049  -8037724.16046  19468031.4104   19468029.7704
      1898.2934
 04  9  7 22 13 29.9960000  0  7G10G19G 8G13G28G23G27
  -7821296.37546  -6091625.02042  22032078.0594   22032076.8244
      2469.8154
  -8386497.57048  -6509195.45344  21448555.2624   21448552.3244
      2675.5684
 -16072668.52049 -12487438.39145  19904107.0744   19904105.4844
      3157.9004
  -2641680.74249  -2046794.68746  19626368.6454   19626367.0354
      -514.8284
  -7304466.07048  -5669795.41443  22014075.6454   22014076.3754
      4527.8584
   6649327.60947   5168711.05142  22513823.9574   22513822.5514
     -2101.2874
 -10375465.37549  -8059875.52746  19462621.6684   19462620.2854
      1895.1744
 04  9  7 22 13 44.9960000  0  7G10G19G 8G13G28G23G27
  -7858203.68446  -6120383.96142  22025054.7234   22025054.3794
      2460.4874
  -8426509.67248  -6540373.69544  21440940.9574   21440939.1524
      2667.4734
 -16119983.50849 -12524307.19145  19895103.0904   19895101.6644
      3154.3334
  -2633848.15649  -2040691.38346  19627858.9884   19627857.4924
      -522.1724
  -7372330.89147  -5722677.04743  22001161.5594   22001161.2624
      4524.3214
   6680889.63347   5193304.77342  22519829.8714   22519829.1334
     -2104.1354
 -10403845.00849  -8081989.53546  19457221.4574   19457219.6764
      1891.9764
 04  9  7 22 13 59.9960000  0  7G10G19G 8G13G28G23G27
  -7894971.94147  -6149034.53542  22018058.4574   22018057.4024
      2451.2174
  -8466401.18448  -6571457.96543  21433350.3634   21433346.8204
      2659.4344
 -16167245.54349 -12561134.74645  19886109.5514   19886107.8634
      3150.8024
  -2625906.26649  -2034502.91846  19629370.0744   19629368.5164
      -529.4594
  -7440143.38347  -5775517.89843  21988257.5044   21988257.1134
      4520.8334
   6712493.17647   5217930.78942  22525844.8164   22525842.0984
     -2106.9034
 -10432177.55949  -8104066.83246  19451829.9024   19451828.0904
      1888.8374
 04  9  7 22 14 14.9960000  0  7G10G19G 8G13G28G23G27
  -7931602.01247  -6177577.45742  22011088.0594   22011087.2424
      2442.0054
  -8506172.83248  -6602448.85243  21425781.5434   21425777.6994
      2651.4434
 -16214455.73049 -12597921.88745  19877125.3954   19877124.2814
      3147.3464
  -2617856.23449  -2028230.18046  19630902.1064   19630900.2384
      -536.6694
  -7507904.35247  -5828318.57443  21975362.4024   21975362.7814
      4517.3984
   6744137.03547   5242588.27742  22531865.8484   22531864.3954
     -2109.5914
 -10460463.99649  -8126108.21546  19446447.3874   19446445.4304
      1885.7634
 04  9  7 22 14 29.9960000  0  7G10G19G 8G13G28G23G27
  -7968096.51646  -6206014.73043  22004143.1684   22004143.1844
      2432.9674
  -8545827.14848  -6633348.27743  21418234.9734   21418232.9224
      2643.6214
 -16261616.83649 -12634670.78145  19868150.7774   19868149.6994
      3144.0744
  -2609700.85249  -2021875.35246  19632454.1604   19632452.4024
      -543.6924
  -7575616.33246  -5881081.14542  21962475.5434   21962477.2624
      4514.1324
   6775818.22747   5267274.90242  22537894.9734   22537893.1914
     -2112.0794
 -10488706.96149  -8148115.71546  19441072.6684   19441070.7504
      1882.8644
 04  9  7 22 14 44.9960000  0  7G10G19G 8G13G28G23G27
  -8004451.52747  -6234343.29743  21997225.1374   21997224.7854
      2423.6674
  -8585359.87548  -6664153.00043  21410713.2074   21410710.1414
      2635.5154
 -16308724.93749 -12671378.37545  19859186.5594   19859185.2114
      3140.5404
  -2601436.44949  -2015435.57846  19634027.0664   19634024.9144
      -550.9604
  -7643275.17246  -5933802.26242  21949601.0044   21949602.0514
      4510.5894
   6807540.40647   5291993.43442  22543931.3714   22543928.9734
     -2114.8124
 -10516902.59449  -8170086.33646  19435707.3874   19435705.3524
      1879.7094
 04  9  7 22 14 59.9960000  0  7G10G19G 8G13G28G23G27
  -8040669.06647  -6262564.75443  21990332.2704   21990332.0474
      2414.5034
  -8624773.03948  -6694864.50443  21403212.0274   21403209.5634
      2627.5444
 -16355781.91849 -12708046.14846  19850232.1294   19850230.6024
      3137.1324
  -2593065.33649  -2008912.64546  19635619.9814   19635617.2314
      -558.0744
  -7710882.95746  -5986483.60942  21936736.9264   21936736.7234
      4507.1864
   6839301.20346   5316742.04742  22549974.7314   22549973.7584
     -2117.3864
 -10545053.02749  -8192021.73446  19430350.1994   19430348.3834
      1876.6964
 04  9  7 22 15 14.9960000  0  7G10G19G 8G13G28G23G27
  -8076747.51647  -6290677.81242  21983467.3484   21983466.3054
      2405.2304
  -8664064.93048  -6725481.57043  21395735.4734   21395732.2894
      2619.4594
 -16402786.41049 -12744673.01246  19841286.9814   19841286.0084
      3133.6334
  -2584586.05549  -2002305.41846  19637233.7854   19637231.4224
      -565.2854
  -7778438.10247  -6039123.91042  21923881.6294   21923881.3594
      4503.6764
   6871101.94946   5341521.78942  22556026.9184   22556025.2114
     -2120.0504
 -10573156.72749  -8213920.71946  19425002.2774   19425000.5394
      1873.5804
 04  9  7 22 15 29.9960000  0  7G10G19G 8G13G28G23G27
  -8112686.10947  -6318681.90642  21976628.8404   21976626.9884
      2395.9064
  -8703234.64848  -6756003.38743  21388281.4494   21388278.8094
      2611.3154
 -16449737.85549 -12781258.53546  19832352.5744   19832351.2504
      3130.0964
  -2575997.97349  -1995613.43746  19638867.4344   19638865.5084
      -572.5394
  -7845939.60947  -6091722.42242  21911035.8244   21911035.4614
      4500.1014
   6902943.11746   5366333.00842  22562086.0124   22562084.2584
     -2122.7454
 -10601212.97349  -8235782.71946  19419663.2624   19419661.5124
      1870.4164
 04  9  7 22 15 44.9960000  0  7G10G19G 8G13G28G23G27
  -8148487.11347  -6346578.76643  21969816.0124   21969814.8754
      2386.7344
  -8742284.33648  -6786431.68443  21380850.3094   21380847.5204
      2603.3134
 -16496638.19549 -12817804.25446  19823428.1294   19823426.8014
      3126.6894
  -2567303.52349  -1988838.55146  19640522.1064   19640520.4024
      -579.6304
  -7913389.71547  -6144280.91042  21898200.1294   21898200.8164
      4496.6744
   6934822.10946   5391173.71542  22568152.3014   22568150.3324
     -2125.2664
 -10629223.98449  -8257609.49246  19414333.3014   19414331.3054
      1867.4014
 04  9  7 22 15 59.9960000  0  7G10G19G 8G13G28G23G27
  -8184146.64147  -6374365.41442  21963030.1604   21963028.7854
      2377.3024
  -8781209.96548  -6816763.31243  21373443.6764   21373439.9884
      2595.0424
 -16543483.65249 -12854307.19146  19814513.2384   19814512.3524
      3123.0304
  -2558499.26649  -1981978.11346  19642197.3954   19642195.7544
      -586.9514
  -7980784.61347  -6196796.30142  21885374.9574   21885375.6644
      4492.9934
   6966742.46146   5416046.59842  22574226.0434   22574224.9964
     -2128.0234
 -10657186.07849  -8279398.13346  19409012.4494   19409010.2544
      1864.1404
 04  9  7 22 16 14.9960000  0  7G10G19G 8G13G28G23G27
  -8219666.40647  -6402043.16042  21956271.3564   21956269.8164
      2367.9844
  -8820013.20348  -6846999.59043  21366059.3164   21366056.4344
      2586.8834
 -16590276.19949 -12890768.90246  19805609.4814   19805608.0274
      3119.5034
  -2549586.91049  -1975033.42246  19643893.3484   19643891.6254
      -594.1574
  -8048125.84847  -6249269.96542  21872560.9574   21872560.5204
      4489.4164
   6998702.00046   5440950.07042  22580308.0354   22580307.5314
     -2130.6364
 -10685101.13349  -8301150.11746  19403700.0594   19403698.2074
      1861.0044
 04  9  7 22 16 29.9960000  0  7G10G19G 8G13G28G23G27
  -8255046.56247  -6429612.09442  21949538.2774   21949537.3634
      2358.6774
  -8858693.88748  -6877140.37143  21358698.5824   21358695.8754
      2578.7124
 -16637015.80149 -12927189.36346  19796714.9184   19796713.2624
      3115.9734
  -2540566.85249  -1968004.83646  19645610.1454   19645608.2544
      -601.3374
  -8115413.39547  -6301701.75042  21859756.5044   21859755.9454
      4485.8364
   7030700.46546   5465883.89142  22586397.0514   22586396.7624
     -2133.2314
 -10712969.14149  -8322865.44546  19398397.1524   19398395.1684
      1857.8674
 04  9  7 22 16 44.9960000  0  7G10G19G 8G13G28G23G27
  -8290288.14847  -6457073.06642  21942832.3244   21942831.4454
      2349.4394
  -8897253.07048  -6907186.47743  21351360.8164   21351358.9104
      2570.6124
 -16683703.77749 -12963569.59846  19787830.4104   19787829.0594
      3112.5324
  -2531440.51649  -1960893.41046  19647346.6064   19647344.7854
      -608.4224
  -8182648.30947  -6354092.54343  21846962.2384   21846962.2194
      4482.3284
   7062736.46945   5490846.85542  22592492.6524   22592492.8164
     -2135.7344
 -10740791.28949  -8344545.03946  19393102.4494   19393100.9534
      1854.8104
 04  9  7 22 16 59.9960000  0  7G10G19G 8G13G28G23G27
  -8325389.96547  -6484425.13743  21936152.7074   21936151.8244
      2340.1214
  -8935689.42648  -6937136.84443  21344046.8014   21344043.5124
      2562.4244
 -16730338.75049 -12999908.52746  19778956.4024   19778954.8094
      3108.9984
  -2522206.58249  -1953698.14846  19649103.8484   19649101.9734
      -615.5964
  -8249829.18047  -6406441.21942  21834177.6994   21834177.8754
      4478.7254
   7094810.94546   5515839.86342  22598597.1134   22598596.5044
     -2138.2984
 -10768566.33249  -8366187.92246  19387816.8634   19387815.1414
      1851.6704
 04  9  7 22 17 14.9960000  0  7G10G19G 8G13G28G23G27
  -8360353.80546  -6511669.68042  21929499.4494   21929497.6724
      2330.9234
  -8974004.57448  -6966992.78543  21336755.9654   21336753.1884
      2554.3434
 -16776922.79749 -13036207.77346  19770091.7234   19770090.1454
      3105.6034
  -2512867.39849  -1946420.87146  19650880.7774   19650879.3244
      -622.6124
  -8316957.77747  -6458749.17642  21821403.5274   21821404.5354
      4475.2404
   7126921.62546   5540861.06642  22604707.4734   22604707.0784
     -2140.7124
 -10796296.20349  -8387795.62146  19382540.1764   19382538.5904
      1848.6584
 04  9  7 22 17 29.9960000  0  7G10G19G 8G13G28G23G27
  -8395177.15247  -6538804.74642  21922872.7384   21922870.9534
      2321.5574
  -9012195.76248  -6996752.16443  21329488.4024   21329485.4184
      2546.0794
 -16823453.24649 -13072465.25846  19761237.1374   19761235.7704
      3102.0304
  -2503420.48849  -1939059.66446  19652679.0204   19652677.0234
      -629.7944
  -8384031.56247  -6511014.36743  21808640.0354   21808639.4694
      4471.5864
   7159070.95346   5565912.40243  22610825.6294   22610825.3364
     -2143.2894
 -10823978.43049  -8409366.18746  19377272.6214   19377270.6884
      1845.4824
 04  9  7 22 17 44.9950000  0  7G10G19G 8G13G28G23G27
  -8429856.65647  -6565827.73443  21916273.2884   21916272.1944
      2311.9674
  -9050259.45348  -7026412.15643  21322244.9214   21322243.1874
      2537.5794
 -16869925.82849 -13108677.64846  19752393.9444   19752392.3004
      3098.1724
  -2493865.75049  -1931614.43046  19654497.0624   19654494.9094
      -636.9834
  -8451044.89148  -6563232.50843  21795888.5074   21795888.1634
      4467.5554
   7191257.41846   5590992.69542  22616949.6944   22616949.8904
     -2145.7644
 -10851610.04349  -8430897.31246  19372014.4834   19372012.3624
      1842.1084
 04  9  7 22 17 59.9950000  0  7G10G19G 8G13G28G23G27
  -8464397.01647  -6592742.29743  21909700.4054   21909698.9294
      2302.6914
  -9088200.58648  -7055976.62943  21315025.2964   21315022.1904
      2529.4094
 -16916346.94949 -13144849.93746  19743560.4994   19743558.6794
      3094.7414
  -2484202.06649  -1924084.30146  19656335.6244   19656333.8194
      -644.2464
  -8518006.71147  -6615410.51243  21783145.8514   21783144.6944
      4464.1214
   7223484.90646   5616104.92242  22623083.5384   22623082.3984
     -2148.4994
 -10879195.05149  -8452392.10546  19366764.8904   19366763.3704
      1839.0014
 04  9  7 22 18 14.9950000  0  7G10G19G 8G13G28G23G27
  -8498797.86347  -6619548.15642  21903154.0624   21903153.3044
      2293.3904
  -9126018.52748  -7085445.15643  21307828.9134   21307825.8744
      2521.1964
 -16962715.60249 -13180981.34845  19734736.4294   19734734.5854
      3091.2434
  -2474432.24649  -1916471.47746  19658194.9214   19658193.6014
      -651.3214
  -8584914.53147  -6667546.42642  21770412.7494   21770413.1794
      4460.5214
   7255748.89846   5641245.59042  22629222.8514   22629223.0264
     -2150.9334
 -10906733.46949  -8473850.61346  19361524.8434   19361523.1674
      1835.8954
 04  9  7 22 18 29.9950000  0  7G10G19G 8G13G28G23G27
  -8533058.96147  -6646245.09842  21896634.6484   21896633.0234
      2284.0734
  -9163712.87547  -7114817.35243  21300655.7414   21300653.1324
      2512.9574
 -17009031.38749 -13217071.55546  19725922.8124   19725921.1484
      3087.7194
  -2464556.24249  -1908775.90646  19660074.6324   19660072.9214
      -658.4004
  -8651767.75847  -6719639.82442  21757691.0694   21757691.1714
      4456.8824
   7288049.53946   5666414.83642  22635369.7804   22635368.9874
     -2153.3764
 -10934225.05149  -8495272.62146  19356293.3354   19356291.6484
      1832.7724
 04  9  7 22 18 44.9950000  0  7G10G19G 8G13G28G23G27
  -8567182.27747  -6672834.71542  21890140.5934   21890139.7574
      2274.8884
  -9201285.51247  -7144094.69143  21293505.4914   21293503.0304
      2504.8424
 -17055296.53149 -13253122.31246  19717119.1164   19717117.4604
      3084.3434
  -2454576.30149  -1900999.35246  19661973.7654   19661972.1674
      -665.3294
  -8718568.48847  -6771692.26643  21744979.1714   21744979.9014
      4453.3824
   7320384.52047   5691610.82442  22641524.2024   22641521.8194
     -2155.6654
 -10961671.97749  -8516659.83246  19351070.4764   19351068.3584
      1829.7954
 04  9  7 22 18 59.9950000  0  7G10G19G 8G13G28G23G27
  -8601163.59047  -6699313.65642  21883674.4764   21883673.6554
      2265.4214
  -9238731.94947  -7173273.69943  21286379.9444   21286377.3354
      2496.4294
 -17101506.55549 -13289130.11746  19708325.2494   19708323.5774
      3080.6684
  -2444488.26249  -1893138.55945  19663893.1244   19663891.8704
      -672.5364
  -8785312.31247  -6823700.40643  21732278.2734   21732279.0734
      4449.5884
   7352757.64147   5716836.58243  22647684.4374   22647683.1364
     -2158.2084
 -10989069.89849  -8538008.85546  19345856.6014   19345854.8944
      1826.5284
 04  9  7 22 19 14.9950000  0  7G10G19G 8G13G28G23G27
  -8635003.93447  -6725682.72343  21877235.1874   21877233.6244
      2256.0234
  -9276053.13348  -7202355.10543  21279278.1324   21279275.1834
      2488.0794
 -17147662.71149 -13325095.92646  19699542.4834   19699540.3824
      3077.0774
  -2434293.50849  -1885194.60945  19665832.9914   19665831.5624
      -679.6504
  -8852000.23447  -6875664.97343  21719588.9834   21719588.7844
      4445.8614
   7385167.55547   5742090.99243  22653851.6014   22653850.9874
     -2160.6614
 -11016420.03149  -8559320.64546  19340652.1324   19340650.5234
      1823.3424
 04  9  7 22 19 29.9950000  0  7G10G19G 8G13G28G23G27
  -8668703.46547  -6751942.09442  21870822.4214   21870821.3784
      2246.6354
  -9313249.10947  -7231338.97343  21272199.8354   21272195.9374
      2479.7324
 -17193765.02349 -13361019.80146  19690768.8824   19690767.2924
      3073.4884
  -2423992.36349  -1877167.75845  19667793.3194   19667792.0074
      -686.7434
  -8918632.21947  -6927585.95342  21706909.2964   21706908.0234
      4442.1324
   7417614.03147   5767373.88343  22660025.4834   22660024.8824
     -2163.0984
 -11043722.43749  -8580595.24246  19335456.2494   19335455.0654
      1820.1604
 04  9  7 22 19 44.9950000  0  7G10G19G 8G13G28G23G27
  -8702262.07448  -6778091.65642  21864436.0154   21864435.0974
      2237.2414
  -9350319.61348  -7260225.06643  21265145.5384   21265142.5544
      2471.3674
 -17239813.54749 -13396901.76646  19682006.4294   19682004.8154
      3069.9024
  -2413584.93449  -1869058.08245  19669774.1014   19669772.1874
      -693.8294
  -8985208.23847  -6979463.31242  21694238.7964   21694239.3154
      4438.4014
   7450096.71947   5792685.02343  22666206.9994   22666206.6404
     -2165.5124
 -11070977.13749  -8601832.67246  19330270.1014   19330268.3944
      1816.9804
 04  9  7 22 19 59.9950000  0  7G10G19G 8G13G28G23G27
  -8735679.91447  -6804131.52742  21858076.9444   21858076.1834
      2227.8564
  -9387264.68447  -7289013.41443  21258114.3434   21258111.4954
      2463.0054
 -17285808.38749 -13432741.88746  19673254.0154   19673252.4764
      3066.3234
  -2403071.42249  -1860865.76245  19671774.4914   19671772.8274
      -700.9014
  -9051728.04747  -7031296.87542  21681581.0074   21681581.1834
      4434.6544
   7482615.32046   5818024.09442  22672394.9994   22672394.7924
     -2167.9074
 -11098184.24249  -8623033.00846  19325092.7654   19325090.8514
      1813.8074
 04  9  7 22 20 14.9950000  0  7G10G19G 8G13G28G23G27
  -8768958.55147  -6830062.93442  21851744.3904   21851743.1244
      2218.5764
  -9424085.70747  -7317705.10543  21251108.4294   21251106.0304
      2454.7354
 -17331750.91849 -13468541.24646  19664510.6874   19664509.5464
      3062.8354
  -2392453.68749  -1852592.21545  19673794.9684   19673793.3044
      -707.8494
  -9118193.28547  -7083087.93043  21668933.0694   21668933.8234
      4431.0164
   7515167.95746   5843389.72342  22678589.7024   22678589.2614
     -2170.1764
 -11125345.21149  -8644197.39846  19319924.0544   19319922.4834
      1810.7314
 04  9  7 22 20 29.9950000  0  7G10G19G 8G13G28G23G27
  -8802090.49247  -6855880.02742  21845439.0544   21845438.4404
      2208.7964
  -9460775.10246  -7346294.20742  21244126.2334   21244123.6204
      2445.9604
 -17377633.87549 -13504294.19946  19655780.1554   19655778.6364
      3058.8644
  -2381724.41449  -1844231.75445  19675836.6244   19675834.3314
      -715.2854
  -9184596.41047  -7134830.52343  21656297.5384   21656297.8154
      4426.8754
   7547761.70347   5868787.35242  22684791.7184   22684790.8864
     -2172.9164
 -11152452.69549  -8665320.10546  19314765.3354   19314764.1944
      1807.1664
 04  9  7 22 20 44.9950000  0  7G10G19G 8G13G28G23G27
  -8835076.37147  -6881583.31242  21839162.4054   21839161.3124
      2199.0594
  -9497333.30947  -7374781.09042  21237169.1084   21237165.7734
      2437.2144
 -17423457.81249 -13540001.15246  19647060.0154   19647058.2694
      3054.9294
  -2370884.52749  -1835785.11745  19677899.4374   19677897.3624
      -722.6594
  -9250937.90248  -7186525.15643  21643673.2264   21643672.5234
      4422.7664
   7580395.64546   5894216.31642  22691001.3124   22691001.2104
     -2175.5964
 -11179507.31649  -8686401.62946  19309617.4054   19309615.9404
      1803.6414
 04  9  7 22 20 59.9950000  0  6G10G19G 8G13G28G27
  -8867914.48847  -6907171.45742  21832913.4214   21832911.9954
      2189.2084
  -9533758.54347  -7403164.38343  21230237.9214   21230234.6484
      2428.3494
 -17469221.23049 -13575660.94546  19638350.9684   19638349.8474
      3050.8954
  -2359932.48049  -1827251.05946  19679983.4054   19679981.7264
      -730.1364
  -9317215.94547  -7238170.37142  21631060.4294   21631059.3234
      4418.5364
 -11206507.53949  -8707440.76646  19304479.4994   19304477.9404
      1800.0154
 04  9  7 22 21 14.9950000  0  6G10G19G 8G13G28G27
  -8900607.71147  -6932646.68042  21826692.4604   21826690.9334
      2179.5484
  -9570053.53547  -7431446.15243  21223331.1634   21223328.3624
      2419.6664
 -17514927.05149 -13611275.87546  19629654.0234   19629652.4014
      3047.0554
  -2348871.29349  -1818631.96945  19682088.6084   19682086.8824
      -737.4124
  -9383433.40648  -7289768.32443  21618460.8124   21618458.6674
      4414.4974
 -11233456.15649  -8728439.68746  19299351.6404   19299349.7104
      1796.5744
 04  9  7 22 21 29.9950000  0  6G10G19G 8G13G28G27
  -8933156.28547  -6958009.23442  21820499.0234   21820497.0264
      2169.9054
  -9606218.47748  -7459626.62543  21216449.0464   21216446.2144
      2410.9964
 -17560575.29349 -13646845.92646  19620967.4524   19620965.9054
      3043.2164
  -2337701.34049  -1809928.12146  19684214.3354   19684212.5344
      -744.6644
  -9449590.34047  -7341319.17642  21605871.1874   21605869.3944
      4410.4624
 -11260353.39149  -8749398.56646  19294233.0854   19294231.2924
      1793.1494
 04  9  7 22 21 44.9950000  0  6G10G19G 8G13G28G27
  -8965560.03147  -6983258.90642  21814332.4994   21814331.3434
      2160.2504
  -9642252.98447  -7487705.45343  21209592.2334   21209588.6874
      2402.3014
 -17606165.75049 -13682370.94546  19612292.0384   19612290.1444
      3039.3644
  -2326422.77049  -1801139.64846  19686360.6634   19686358.6984
      -751.9054
  -9515686.50447  -7392822.62543  21593292.8584   21593291.8274
      4406.4114
 -11287199.21549  -8770317.39146  19289124.4834   19289122.9014
      1789.7224
 04  9  7 22 21 59.9950000  0  6G10G19G 8G13G28G27
  -8997814.73047  -7008392.41842  21808194.6084   21808193.2804
      2150.3134
  -9678152.72747  -7515679.23443  21202760.7414   21202757.2374
      2393.3164
 -17651693.98049 -13717847.47346  19603627.9994   19603626.6484
      3035.2154
  -2315031.46949  -1792263.32046  19688528.2804   19688526.3904
      -759.4204
  -9581717.49247  -7444275.30543  21580727.9994   21580726.8514
      4402.0664
 -11313989.17649  -8791192.68746  19284026.4524   19284024.9484
      1785.9974
 04  9  7 22 22 14.9950000  0  6G10G19G 8G13G28G27
  -9029921.89848  -7033410.99642  21802084.5774   21802083.2064
      2140.4784
  -9713919.11746  -7543549.11742  21195954.4374   21195951.2534
      2384.4264
 -17697161.82049 -13753276.94546  19594975.7884   19594974.1284
      3031.1894
  -2303529.34049  -1783300.64145  19690717.1084   19690715.4524
      -766.8094
  -9647685.00048  -7495678.45343  21568174.4684   21568173.9214
      4397.8344
 -11340725.16849  -8812025.91446  19278938.8194   19278937.1054
      1782.3994
 04  9  7 22 22 29.9950000  0  6G10G19G 8G13G28G27
  -9061877.24248  -7058311.26242  21796003.9914   21796002.3704
      2130.3564
  -9749547.72347  -7571311.67243  21189174.2734   21189171.3124
      2375.2404
 -17742565.02049 -13788656.05546  19586335.8664   19586334.5694
      3026.8804
  -2291912.17249  -1774248.32045  19692927.5074   19692926.4604
      -774.4784
  -9713584.44548  -7547028.66043  21555633.9374   21555633.2374
      4393.2964
 -11367402.79749  -8832813.67646  19273862.2414   19273860.4804
      1778.5094
 04  9  7 22 22 44.9950000  0  6G10G19G 8G13G28G27
  -9093685.62147  -7083097.00842  21789950.2654   21789948.9484
      2120.5594
  -9785043.27747  -7598970.51242  21182419.0624   21182416.8434
      2366.3704
 -17787908.38349 -13823988.53946  19577707.3274   19577705.5894
      3022.8914
  -2280185.07049  -1765110.34045  19695159.2654   19695158.0734
      -781.8074
  -9779420.51648  -7598329.46543  21543105.8274   21543104.7574
      4389.0714
 -11394026.84849  -8853559.69146  19268795.8984   19268794.3514
      1774.9374
 04  9  7 22 22 59.9950000  0  6G10G19G 8G13G28G27
  -9125346.77047  -7107768.03142  21783925.5854   21783924.0504
      2110.7434
  -9820405.21147  -7626525.26242  21175691.0154   21175688.4914
      2357.4624
 -17833191.49649 -13859274.07446  19569090.1794   19569088.6444
      3018.8744
  -2268347.82849  -1755886.53945  19697411.9374   19697409.7694
      -789.1494
  -9845192.80148  -7649580.56243  21530589.7334   21530589.5734
      4384.8194
 -11420596.94149  -8874263.65646  19263739.5304   19263738.2764
      1771.3404
 04  9  7 22 23 14.9950000  0  6G10G19G 8G13G28G27
  -9156858.97747  -7132322.98842  21777929.2804   21777927.9404
      2100.8144
  -9855631.88347  -7653974.56243  21168987.8904   21168984.7494
      2348.4454
 -17878412.85549 -13894511.48846  19560484.8354   19560483.3084
      3014.7574
  -2256398.98049  -1746575.76245  19699685.5544   19699684.2734
      -796.5904
  -9910899.67247  -7700780.66043  21518086.0234   21518085.1984
      4380.4584
 -11447111.55149  -8894924.39146  19258694.3044   19258692.3784
      1767.6414
 04  9  7 22 23 29.9950000  0  6G10G19G 8G13G28G27
  -9188223.69147  -7156763.01642  21771960.9134   21771959.3704
      2090.9814
  -9890724.60947  -7681319.52743  21162308.7414   21162306.3824
      2339.5154
 -17923573.77049 -13929701.79746  19551890.9604   19551888.8664
      3010.7284
  -2244340.08249  -1737179.23045  19701980.4294   19701978.2064
      -803.9274
  -9976542.30948  -7751930.73443  21505595.3044   21505594.0304
      4376.1764
 -11473572.05549  -8915542.95746  19253659.0774   19253657.0424
      1764.0344
 04  9  7 22 23 44.9950000  0  6G10G19G 8G13G28G27
  -9219441.66447  -7181088.71542  21766019.9374   21766018.8784
      2081.1984
  -9925683.78547  -7708560.44543  21155656.8984   21155654.0974
      2330.6124
 -17968674.86349 -13964845.49646  19543308.5854   19543306.7534
      3006.7404
  -2232172.13749  -1727697.73845  19704295.5234   19704294.1164
      -811.1964
 -10042121.29348  -7803031.21943  21493115.2734   21493114.3044
      4371.9324
 -11499979.19949  -8936119.94946  19248633.6404   19248631.9994
      1760.4764
 04  9  7 22 23 59.9950000  0  6G10G19G 8G13G28G27
  -9250511.38347  -7205298.87142  21760107.2414   21760106.5934
      2071.3154
  -9960507.98847  -7735696.18442  21149030.2334   21149026.3784
      2321.6144
 -18013714.76649 -13999941.51246  19534738.2184   19534735.7224
      3002.6604
  -2219893.82849  -1718130.23445  19706632.1404   19706630.0694
      -818.5544
 -10107635.05948  -7854080.83243  21480648.9444   21480647.4484
      4367.5844
 -11526331.55149  -8956654.25046  19243618.8904   19243617.6204
      1756.8234
 04  9  7 22 24 14.9950000  0  6G10G19G 8G13G28G27
  -9281433.57046  -7229394.10542  21754222.9134   21754222.0384
      2061.4794
  -9995197.77347  -7762727.12942  21142428.8824   21142426.0624
      2312.6524
 -18058694.29349 -14034990.49246  19526178.4834   19526176.8824
      2998.6354
  -2207506.16049  -1708477.53145  19708989.6164   19708988.0424
      -825.8454
 -10173084.38748  -7905080.26243  21468194.8984   21468193.3554
      4363.2894
 -11552629.73449  -8977146.34046  19238614.7414   19238612.9604
      1753.2124
 04  9  7 22 24 29.9950000  0  6G10G19G 8G13G28G27
  -9312211.62147  -7253376.99242  21748366.6874   21748365.3084
      2051.8704
 -10029756.25847  -7789655.83242  21135852.3194   21135849.2144
      2303.8994
 -18103616.70749 -14069994.96546  19517629.9134   19517628.3194
      2994.8284
  -2195012.67249  -1698742.35945  19711367.2184   19711365.0854
      -832.8994
 -10238472.34848  -7956031.88342  21455751.6944   21455750.0584
      4359.1974
 -11578877.21949  -8997598.92246  19233620.1714   19233618.1944
      1749.8324
 04  9  7 22 24 44.9950000  0  6G10G19G 8G13G28G27
  -9342845.61347  -7277247.64142  21742537.4834   21742535.4294
      2042.2664
 -10064183.48847  -7816482.17242  21129301.8584   21129298.1244
      2295.1494
 -18148482.02049 -14104954.93046  19509092.1484   19509090.5854
      2991.0214
  -2182413.56249  -1688924.89545  19713764.6164   19713762.8624
      -839.9414
 -10303799.00048  -8006935.66043  21443319.7184   21443319.2264
      4355.1104
 -11605074.01649  -9018012.00846  19228634.7184   19228632.9604
      1746.4534
 04  9  7 22 24 59.9950000  0  6G10G19G 8G13G28G27
  -9373333.00047  -7301004.01642  21736735.5074   21736734.1284
      2032.4924
 -10098476.80947  -7843204.27743  21122775.4524   21122773.2844
      2286.2214
 -18193287.65649 -14139868.40646  19500566.0464   19500564.3744
      2987.0424
  -2169706.45349  -1679023.26245  19716182.1874   19716180.8274
      -847.1414
 -10369061.64548  -8057789.68443  21430900.8824   21430899.2334
      4350.8434
 -11631217.64149  -9038383.66446  19223659.5234   19223658.3664
      1742.9084
 04  9  7 22 25 14.9950000  0  6G10G19G 8G13G28G27
  -9403673.11347  -7324645.67642  21730962.2264   21730960.3514
      2022.6744
 -10132635.31647  -7869821.26242  21116275.5934   21116271.9564
      2277.2344
 -18238032.87149 -14174734.79746  19492050.9684   19492049.8984
      2983.0144
  -2156890.94949  -1669037.17645  19718621.3274   19718619.3514
      -854.3674
 -10434259.69948  -8108593.32443  21418493.6164   21418493.4334
      4346.5374
 -11657307.48449  -9058713.40646  19218695.2104   19218693.4804
      1739.3234
 04  9  7 22 25 29.9950000  0  6G10G19G 8G13G28G27
  -9433864.93747  -7348171.77042  21725216.6084   21725215.6244
      2012.7884
 -10166657.87147  -7896332.30942  21109801.0154   21109797.7764
      2268.1704
 -18282716.63749 -14209553.30546  19483548.4294   19483546.3904
      2978.9184
  -2143966.08649  -1658965.87145  19721081.2734   19721078.9444
      -861.6584
 -10499391.73848  -8159345.46143  21406100.1404   21406098.7024
      4342.1364
 -11683342.27049  -9079000.25846  19213740.9914   19213739.1324
      1735.6524
 04  9  7 22 25 44.9950000  0  6G10G19G 8G13G28G27
  -9463910.17247  -7371583.65242  21719498.6874   21719497.8664
      2003.0164
 -10200546.18747  -7922738.76642  21103352.4994   21103349.5384
      2259.2214
 -18327340.71149 -14244325.30546  19475056.1714   19475055.1084
      2974.9384
  -2130933.96549  -1648810.97345  19723561.3354   19723559.3984
      -868.8084
 -10564459.31648  -8210047.49243  21393717.8584   21393716.9644
      4337.8394
 -11709323.78949  -9099245.58646  19208796.6794   19208794.8984
      1732.1014
 04  9  7 22 25 59.9950000  0  6G10G19G 8G13G28G27
  -9493809.55547  -7394881.84842  21713809.5074   21713808.5584
      1993.2924
 -10234300.69147  -7949040.99642  21096929.3824   21096925.7964
      2250.3004
 -18371905.71149 -14279051.27046  19466575.9524   19466574.8234
      2971.0004
  -2117795.41449  -1638573.16045  19726061.4524   19726059.8744
      -875.9034
 -10629463.27048  -8260699.86343  21381348.1794   21381347.3584
      4333.5974
 -11735252.70749  -9119449.94546  19203862.6794   19203860.6484
      1728.5954
 04  9  7 22 26 14.9950000  0  6G10G19G 8G13G28G27
  -9523564.00447  -7418067.14842  21708147.0304   21708146.2804
      1983.6304
 -10267922.36748  -7975239.66443  21090531.2494   21090527.7764
      2241.4454
 -18416412.62949 -14313731.97346  19458106.7184   19458105.4334
      2967.1284
  -2104551.53149  -1628253.27045  19728580.9604   19728579.8004
      -882.9264
 -10694404.39148  -8311303.31643  21368989.5934   21368989.4684
      4329.4084
 -11761130.21949  -9139614.23446  19198938.4374   19198936.4444
      1725.1674
 04  9  7 22 26 29.9950000  0  6G10G19G 8G13G28G27
  -9553173.37146  -7441139.40642  21702513.2184   21702511.9524
      1973.9584
 -10301410.77747  -8001334.49242  21084158.1244   21084154.6444
      2232.5614
 -18460861.31649 -14348367.31246  19449648.4374   19449647.0974
      2963.2464
  -2091202.36349  -1617851.34445  19731121.8824   19731119.9254
      -889.9454
 -10759282.27348  -8361857.43043  21356643.3824   21356642.3904
      4325.1924
 -11786955.92649  -9159738.16046  19194024.0544   19194021.9644
      1721.7144
 04  9  7 22 26 44.9950000  0  6G10G19G 8G13G28G27
  -9582637.48847  -7464098.43442  21696905.8744   21696905.1444
      1964.2744
 -10334765.66848  -8027325.29342  21077810.8584   21077807.5694
      2223.6594
 -18505251.48849 -14382957.04746  19441201.1324   19441199.8124
      2959.3454
  -2077747.90649  -1607367.36745  19733682.2804   19733680.3824
      -896.9644
 -10824096.77348  -8412362.19943  21344309.7264   21344308.4914
      4320.9674
 -11812729.73849  -9179821.64846  19189119.1874   19189117.3234
      1718.2544
 04  9  7 22 26 59.9950000  0  6G10G19G 8G13G28G27
  -9611957.48047  -7486945.19542  21691326.8274   21691325.2494
      1954.6664
 -10367988.06647  -8053212.88743  21071489.0934   21071486.1754
      2214.8274
 -18549584.32049 -14417502.10546  19432765.3434   19432763.5384
      2955.5224
  -2064189.50049  -1596802.39145  19736261.9444   19736260.3194
      -903.8944
 -10888848.89848  -8462818.35243  21331988.1244   21331986.4724
      4316.8084
 -11838452.75449  -9199865.55146  19184224.3194   19184222.6244
      1714.8684
 04  9  7 22 27 14.9950000  0  6G10G19G 8G13G28G27
  -9641132.72347  -7509679.14542  21685774.8354   21685773.5344
      1945.0164
 -10401077.06647  -8078996.48843  21065192.2414   21065189.1794
      2205.9334
 -18593859.00449 -14452001.84046  19424339.8584   19424338.4294
      2951.6464
  -2050526.64149  -1586156.02345  19738861.8514   19738860.5584
      -910.8574
 -10953537.72748  -8513225.19943  21319678.4994   21319676.5074
      4312.5894
 -11864124.21949  -9219869.28546  19179339.4684   19179337.4684
      1711.4314
 04  9  7 22 27 29.9950000  0  6G10G19G 8G13G28G27
  -9670164.02047  -7532300.92642  21680250.8274   21680249.5584
      1935.4204
 -10434033.41847  -8104676.76642  21058920.9444   21058918.0694
      2197.0904
 -18638076.44149 -14486456.98846  19415925.4294   19415924.1014
      2947.8294
  -2036760.32449  -1575429.03545  19741482.1164   19741480.0734
      -917.7544
 -11018164.00848  -8563583.30143  21307380.3664   21307378.2764
      4308.4194
 -11889744.93449  -9239833.48446  19174463.7264   19174461.7764
      1708.0484
 04  9  7 22 27 44.9950000  0  6G10G19G 8G13G28G27
  -9699051.11347  -7554810.35942  21674753.8824   21674751.9294
      1925.8064
 -10466856.63347  -8130253.27742  21052675.1634   21052672.4874
      2188.2144
 -18682236.03949 -14520867.04746  19407522.1874   19407520.7304
      2943.9734
  -2022890.49249  -1564621.39146  19744121.1244   19744119.7574
      -924.6554
 -11082727.29348  -8613892.28143  21295093.6484   21295092.9484
      4304.2194
 -11915314.65249  -9259757.94546  19169598.1244   19169596.1244
      1704.6484
 04  9  7 22 27 59.9950000  0  6G10G19G 8G13G28G27
  -9727793.94547  -7577207.36342  21669283.4214   21669282.4294
      1916.1894
 -10499546.64547  -8155726.00042  21046454.2104   21046451.4564
      2179.3344
 -18726337.88749 -14555232.11746  19399129.6714   19399128.1674
      2940.1234
  -2008917.27349  -1553733.18045  19746780.0234   19746778.6514
      -931.5484
 -11147227.43048  -8664152.11343  21282820.1634   21282819.1244
      4300.0094
 -11940833.27749  -9279642.58246  19164741.9134   19164740.4174
      1701.2424
 04  9  7 22 28 14.9950000  0  6G10G19G 8G13G28G27
  -9756393.40646  -7599492.67242  21663841.9214   21663840.2494
      1906.6314
 -10532104.13747  -8181095.44942  21040259.0234   21040254.9374
      2170.4994
 -18770382.76249 -14589552.78546  19390748.4684   19390746.9174
      2936.3254
  -1994841.60249  -1542765.14845  19749458.2804   19749456.7844
      -938.3784
 -11211665.22348  -8714363.32443  21270557.4374   21270557.7764
      4295.8534
 -11966301.67649  -9299488.08246  19159895.4834   19159893.5234
      1697.8934
 04  9  7 22 28 29.9950000  0  6G10G19G 8G13G28G27
  -9784843.03547  -7621661.22343  21658427.8664   21658426.8664
      1896.6424
 -10564522.52747  -8206356.53142  21034090.3984   21034086.2064
      2161.2264
 -18814364.38749 -14623824.17646  19382378.9834   19382377.4014
      2932.1084
  -1980657.16049  -1531712.35545  19752157.4524   19752156.6444
      -945.6294
 -11276034.12548  -8764520.87943  21258308.8904   21258308.2534
      4291.2604
 -11991713.35949  -9319289.39546  19155059.9374   19155058.2494
      1694.1124
 04  9  7 22 28 44.9950000  0  6G10G19G 8G13G28G27
  -9813143.42247  -7643713.46942  21653041.9444   21653041.4374
      1886.6924
 -10596802.35547  -8231509.60942  21027946.5464   21027943.4724
      2151.9894
 -18858283.24249 -14658046.64846  19374021.7104   19374019.9644
      2927.9244
  -1966365.05149  -1520575.64845  19754877.3514   19754876.0384
      -952.8074
 -11340334.46948  -8814625.00043  21246073.2494   21246071.6444
      4286.6904
 -12017068.91849  -9339046.96146  19150234.7024   19150233.2264
      1690.3714
 04  9  7 22 28 59.9950000  0  6G10G19G 8G13G28G27
  -9841297.09047  -7665651.38742  21647684.7804   21647683.5194
      1876.9114
 -10628945.93747  -8256556.54343  21021830.0624   21021827.4174
      2142.9054
 -18902141.82449 -14692222.16446  19365675.7804   19365673.9214
      2923.9054
  -1951967.78949  -1509357.02045  19757616.8584   19757615.6124
      -959.8174
 -11404568.75848  -8864677.64843  21233850.1404   21233847.6944
      4282.2864
 -12042370.75849  -9358762.68746  19145420.1084   19145418.3944
      1686.7894
 04  9  7 22 29 14.9950000  0  6G10G19G 8G13G28G27
  -9869305.90247  -7687476.42642  21642355.2574   21642353.8354
      1867.2544
 -10660954.93047  -8281498.60542  21015738.7264   21015736.6514
      2133.9334
 -18945941.84849 -14726352.04746  19357340.6244   19357339.1284
      2920.0024
  -1937467.41849  -1498058.04745  19760376.9524   19760374.7304
      -966.6914
 -11468738.64848  -8914680.12943  21221639.1014   21221636.5624
      4277.9934
 -12067620.76649  -9378438.01646  19140615.0464   19140613.4294
      1683.3344
 04  9  7 22 29 29.9950000  0  6G10G19G 8G13G28G27
  -9897167.91847  -7709187.09442  21637053.2494   21637052.3584
      1857.4684
 -10692827.31647  -8306334.21542  21009674.2884   21009671.1364
      2124.8264
 -18989681.30949 -14760434.73046  19349017.1794   19349016.1754
      2915.9644
  -1922862.17649  -1486677.35545  19763155.8434   19763153.9174
      -973.6834
 -11532842.06648  -8964630.79743  21209440.4294   21209439.2764
      4273.5614
 -12092816.86749  -9398071.34046  19135820.7184   19135818.6514
      1679.7404
 04  9  7 22 29 44.9950000  0  6G10G19G 8G13G28G27
  -9924883.73047  -7730783.84042  21631779.2804   21631777.8824
      1847.7214
 -10724563.57047  -8331063.76242  21003634.6554   21003631.8234
      2115.7504
 -19033360.61349 -14794470.54746  19340705.7964   19340704.2964
      2911.9544
  -1908152.80149  -1475215.52045  19765954.6794   19765952.8904
      -980.6254
 -11596879.45748  -9014530.02343  21197254.2964   21197252.8554
      4269.1594
 -12117959.74249  -9417663.19146  19131035.8124   19131034.1874
      1676.1924
 04  9  7 22 29 59.9950000  0  6G10G19G 8G13G28G27
  -9952454.07047  -7752267.22342  21626532.6244   21626531.2654
      1838.0234
 -10756164.20347  -8355687.58242  20997621.4604   20997618.3784
      2106.7094
 -19076980.58649 -14828460.12146  19332404.8274   19332403.5154
      2907.9984
  -1893340.07449  -1463673.15645  19768773.6404   19768771.9174
      -987.5154
 -11660851.49248  -9064378.31243  21185081.1084   21185079.5934
      4264.8024
 -12143050.09049  -9437214.10546  19126261.3664   19126259.9764
      1672.6904
 04  9  7 22 30 14.9950000  0  6G10G19G 8G13G28G27
  -9979881.03547  -7773638.89842  21621313.2964   21621312.2264
      1828.4644
 -10787631.22747  -8380207.30942  20991633.8044   20991629.7694
      2097.8024
 -19120543.21949 -14862405.02746  19324114.6794   19324113.7694
      2904.1764
  -1878426.39149  -1452052.13345  19771611.9054   19771609.7224
      -994.2464
 -11724760.05948  -9114177.16043  21172919.5854   21172918.1284
      4260.5714
 -12168089.69149  -9456725.48846  19121496.1634   19121494.7764
      1669.3074
 04  9  7 22 30 29.9950000  0  6G10G19G 8G13G28G27
 -10007165.65647  -7794899.64142  21616120.6404   21616119.7304
      1818.9754
 -10818965.61347  -8404623.73442  20985670.0694   20985667.4134
      2088.9594
 -19164049.40249 -14896305.94546  19315835.9134   19315834.5194
      2900.4124
  -1863413.03549  -1440353.41845  19774468.6244   19774466.8624
     -1000.8904
 -11788606.09448  -9163927.27743  21160769.9134   21160768.5464
      4256.4024
 -12193079.85249  -9476198.34446  19116740.9994   19116739.4404
      1666.0114
 04  9  7 22 30 44.9950000  0  6G10G19G 8G13G28G27
 -10034304.71947  -7816046.95742  21610956.6794   21610955.2334
      1809.2714
 -10850163.69947  -8428933.94142  20979733.3904   20979730.6164
      2079.8724
 -19207496.07449 -14930160.48046  19307568.4994   19307567.1244
      2896.4454
  -1848296.85249  -1428574.59045  19777345.2804   19777343.5544
     -1007.7464
 -11852386.20748  -9213626.01643  21148633.0074   21148631.4294
      4252.0084
 -12218017.10549  -9495629.96946  19111995.7804   19111993.9954
      1662.4844
 04  9  7 22 30 59.9950000  0  6G10G19G 8G13G28G27
 -10061296.24247  -7837079.31242  21605820.2184   21605819.4564
      1799.4354
 -10881223.67647  -8453136.50043  20973823.5154   20973820.3124
      2070.6654
 -19250880.93449 -14963966.85946  19299312.3514   19299310.8664
      2892.3244
  -1833076.01249  -1416714.22345  19780240.9834   19780240.2184
     -1014.7234
 -11916098.19148  -9263271.69543  21136509.0154   21136507.2574
      4247.4664
 -12242899.53949  -9515018.87546  19107260.7884   19107258.7654
      1658.8294
 04  9  7 22 31 14.9950000  0  6G10G19G 8G13G28G27
 -10088138.38748  -7857995.26242  21600712.6484   21600711.9094
      1789.4764
 -10912143.52347  -8477229.88742  20967939.8904   20967937.1244
      2061.3234
 -19294202.31649 -14997723.78146  19291068.8584   19291067.1594
      2888.0924
  -1817749.01249  -1404771.12545  19783158.1944   19783156.8584
     -1021.8004
 -11979740.23848  -9312862.87944  21124398.3194   21124397.1554
      4242.8034
 -12267725.23449  -9534363.56246  19102536.4374   19102534.6244
      1655.0464
 04  9  7 22 31 29.9950000  0  6G10G19G 8G13G28G27
 -10114834.03947  -7878797.07043  21595632.0384   21595631.7454
      1779.7104
 -10942925.98047  -8501216.15642  20962081.9604   20962079.1634
      2052.1644
 -19337463.05949 -15031433.44146  19282836.7334   19282835.0814
      2884.0494
  -1802318.77749  -1392747.58245  19786094.3584   19786093.3194
     -1028.6824
 -12043314.95348  -9362401.54744  21112300.5304   21112298.8394
      4238.3144
 -12292497.03949  -9553666.27346  19097822.3904   19097821.0034
      1651.4544
 04  9  7 22 31 44.9950000  0  6G10G19G 8G13G28G27
 -10141382.98447  -7899484.57843  21590580.1874   21590579.6944
      1769.9304
 -10973570.55547  -8525095.07042  20956250.8124   20956247.7224
      2042.9724
 -19380662.56249 -15065095.38346  19274615.3584   19274614.3274
      2879.9674
  -1786785.31249  -1380643.59445  19789050.6244   19789049.2064
     -1035.5644
 -12106822.12548  -9411887.59844  21100215.4444   21100214.2414
      4233.8114
 -12317214.71549  -9572926.79746  19093118.7964   19093116.7104
      1647.8454
 04  9  7 22 31 59.9950000  0  6G10G19G 8G13G28G27
 -10167784.03547  -7920056.81642  21585556.3044   21585555.4604
      1760.0704
 -11004076.00447  -8548865.53142  20950444.8354   20950441.1634
      2033.6974
 -19423799.80549 -15098708.80546  19266407.3664   19266405.6054
      2875.8164
  -1771147.48849  -1368458.28545  19792026.2264   19792025.3234
     -1042.5224
 -12170260.34848  -9461319.94544  21088143.3584   21088142.0854
      4229.2154
 -12341876.90649  -9592144.08646  19088425.5074   19088423.8984
      1644.1464
 04  9  7 22 32 14.9950000  0  6G10G19G 8G13G28G27
 -10194037.73847  -7940514.25842  21580560.5774   21580559.4604
      1750.2474
 -11034442.78947  -8572527.94542  20944666.8194   20944663.9644
      2024.4524
 -19466875.14149 -15132273.99646  19258210.5774   19258208.4834
      2871.6894
  -1755406.08249  -1356192.26645  19795021.5774   19795020.5814
     -1049.4274
 -12233629.95349  -9510698.83644  21076084.9604   21076083.4134
      4224.6404
 -12366484.12149  -9611318.55146  19083743.4054   19083741.4804
      1640.4814
 04  9  7 22 32 29.9950000  0  6G10G19G 8G13G28G27
 -10220146.35547  -7960858.63742  21575592.3984   21575591.4134
      1740.5744
 -11064672.91447  -8596083.83642  20938914.5234   20938911.0734
      2015.3424
 -19509890.82849 -15165792.69946  19250024.0464   19250023.0234
      2867.7134
  -1739563.46949  -1343847.39545  19798036.5154   19798035.5974
     -1056.1744
 -12296932.96548  -9560025.84043  21064038.5464   21064036.8704
      4220.2014
 -12391038.52049  -9630451.83246  19079070.7574   19079068.7764
      1636.9604
 04  9  7 22 32 44.9950000  0  6G10G19G 8G13G28G27
 -10246109.92247  -7981089.99642  21570650.8824   21570650.5694
      1730.9044
 -11094766.27746  -8619533.22342  20933187.0934   20933184.4914
      2006.2244
 -19552846.87149 -15199264.93446  19241850.1484   19241848.8234
      2863.7364
  -1723620.02748  -1331423.95745  19801070.1554   19801069.8234
     -1062.8964
 -12360169.49248  -9609301.03944  21052004.3044   21052003.6124
      4215.7684
 -12415540.30149  -9649544.13346  19074408.1084   19074406.0624
      1633.4524
 04  9  7 22 32 59.9950000  0  6G10G19G 8G13G28G27
 -10271926.12947  -8001206.50042  21565738.4994   21565737.8704
      1721.0804
 -11124720.57847  -8642874.22342  20927487.0464   20927484.7374
      1996.9534
 -19595741.03149 -15232688.95346  19233687.8904   19233686.1404
      2859.6114
  -1707573.41848  -1318920.12945  19804124.2334   19804122.6364
     -1069.7744
 -12423336.94948  -9658522.37544  21039984.1084   21039983.1164
      4211.1644
 -12439986.86749  -9668593.40246  19069756.1874   19069754.3084
      1629.7714
 04  9  7 22 33 14.9950000  0  6G10G19G 8G13G28G27
 -10297595.02047  -8021208.26642  21560854.9294   21560853.3124
      1711.2594
 -11154535.71946  -8666106.82042  20921813.4524   20921810.0544
      1987.6764
 -19638572.92649 -15266064.44946  19225537.1634   19225536.0894
      2855.4604
  -1691424.02749  -1306336.20345  19807196.9604   19807196.1054
     -1076.6264
 -12486435.34048  -9707689.91843  21027976.4134   21027976.2264
      4206.5594
 -12464378.32049  -9687599.72746  19065114.1324   19065112.7884
      1626.0974
 04  9  7 22 33 29.9950000  0  6G10G19G 8G13G28G27
 -10323120.41847  -8041098.19143  21555997.2104   21555996.1444
      1701.6934
 -11184215.34446  -8689233.77042  20916165.4294   20916163.1484
      1978.6424
 -19681346.49249 -15299394.50446  19217397.8664   19217396.3154
      2851.5714
  -1675175.75848  -1293675.22745  19810289.2414   19810288.1404
     -1083.2184
 -12549468.30148  -9756806.44144  21015981.8354   21015981.4874
      4202.1974
 -12488718.37149  -9706566.00846  19060482.9914   19060480.7844
      1622.6704
 04  9  7 22 33 44.9950000  0  6G10G19G 8G13G28G27
 -10348501.36348  -8060875.53942  21551167.1084   21551165.8824
      1692.0634
 -11213758.27347  -8712254.20742  20910544.2494   20910540.5584
      1969.5294
 -19724060.63749 -15332678.24246  19209269.2884   19209267.9764
      2847.6104
  -1658827.77349  -1280936.56245  19813400.5304   19813398.5774
     -1089.8664
 -12612434.74248  -9805871.18744  21003999.3664   21003999.4764
      4197.7634
 -12513006.03949  -9725491.46546  19055861.2184   19055858.9134
      1619.1784
 04  9  7 22 33 59.9950000  0  6G10G19G 8G13G28G27
 -10373734.23047  -8080537.54743  21546365.0384   21546364.8314
      1682.1914
 -11243160.82846  -8735165.26642  20904949.0384   20904945.7304
      1960.1704
 -19766711.66849 -15365912.80946  19201153.2494   19201151.4724
      2843.4024
  -1642376.65648  -1268117.52345  19816530.6014   19816529.3154
     -1096.7414
 -12675330.84848  -9854881.07444  20992031.7104   20992030.9294
      4193.0744
 -12537237.55549  -9744373.17246  19051250.0624   19051248.2844
      1615.4344
 04  9  7 22 34 14.9950000  0  6G10G19G 8G13G28G27
 -10398823.63347  -8100087.71943  21541591.4764   21541590.2334
      1672.6274
 -11272427.31646  -8757970.33242  20899379.1714   20899375.4404
      1951.0994
 -19809304.23849 -15399101.82446  19193047.7734   19193046.7764
      2839.5054
  -1625827.02049  -1255221.73445  19819680.4604   19819678.7264
     -1103.3094
 -12738161.01248  -9903839.60944  20980075.1244   20980074.6054
      4188.6784
 -12561417.51649  -9763214.68446  19046648.9214   19046646.5424
      1611.9974
 04  9  7 22 34 29.9950000  0  6G10G19G 8G13G28G27
 -10423770.47347  -8119526.81642  21536844.1874   21536843.0114
      1663.1234
 -11301558.68747  -8780670.09442  20893836.4524   20893832.0624
      1942.0914
 -19851838.98049 -15432245.76246  19184954.0234   19184952.5584
      2835.6494
  -1609180.11749  -1242250.12545  19822847.6404   19822845.9764
     -1109.7934
 -12800925.94149  -9952747.30944  20968131.7024   20968130.4214
      4184.3294
 -12585546.53149  -9782016.52746  19042057.0384   19042055.1834
      1608.6014
 04  9  7 22 34 44.9950000  0  6G10G19G 8G13G28G27
 -10448572.63347  -8138853.18043  21532124.5384   21532123.1594
      1653.4774
 -11330552.54747  -8803262.67242  20888319.2804   20888316.5734
      1932.9244
 -19894313.66449 -15465342.92246  19176871.5464   19176870.1324
      2831.6464
  -1592433.82448  -1229201.08645  19826034.9054   19826032.9684
     -1116.4204
 -12863623.39548 -10001602.44544  20956200.5544   20956199.2494
      4179.8304
 -12609622.69549  -9800777.16846  19037475.4444   19037473.6444
      1605.0784
 04  9  7 22 34 59.9950000  0  6G10G19G 8G13G28G27
 -10473229.92247  -8158066.65242  21527433.3194   21527430.7694
      1643.8194
 -11359408.61746  -8825747.92642  20882827.4834   20882824.4484
      1923.7384
 -19936728.28148 -15498393.25846  19168800.2414   19168798.4604
      2827.6414
  -1575588.23448  -1216074.68045  19829240.3584   19829238.6554
     -1123.0394
 -12926253.00848 -10050404.70744  20944282.3514   20944281.5974
      4175.3084
 -12633645.53949  -9819496.25846  19032904.1014   19032902.1754
      1601.5234
 04  9  7 22 35 14.9950000  0  6G10G19G 8G13G28G27
 -10497745.75846  -8177169.91842  21522767.4524   21522765.9564
      1634.3894
 -11388130.07846  -8848128.25042  20877361.7884   20877358.4294
      1914.7644
 -19979085.77348 -15531399.09446  19160739.3584   19160738.0894
      2823.8334
  -1558646.80948  -1202873.59445  19832464.2884   19832462.2924
     -1129.4284
 -12988818.12548 -10099156.69944  20932376.4994   20932375.3864
      4171.0084
 -12657618.51649  -9838176.51246  19028342.1794   19028340.2734
      1598.1984
 04  9  7 22 35 29.9950000  0  6G10G19G 8G13G28G27
 -10522118.89846  -8196161.96543  21518128.9684   21518127.4874
      1624.8764
 -11416715.57446  -8870402.62142  20871922.3584   20871917.9214
      1905.7004
 -20021384.90649 -15564359.45346  19152690.6014   19152689.0234
      2819.9424
  -1541608.74648  -1189597.19145  19835706.4054   19835704.7924
     -1135.8714
 -13051317.25048 -10147857.29344  20920482.8664   20920481.9724
      4166.6084
 -12681540.16449  -9856816.75046  19023790.2734   19023788.3704
      1594.7774
 04  9  7 22 35 44.9950000  0  6G10G19G 8G13G28G27
 -10546349.45746  -8215042.96542  21513517.8984   21513517.5504
      1615.3714
 -11445165.26646  -8892571.23042  20866508.0934   20866505.8044
      1896.6464
 -20063625.87549 -15597274.48846  19144652.1874   19144650.7844
      2816.0654
  -1524474.12548  -1176245.56245  19838966.8984   19838965.6084
     -1142.3084
 -13113750.46948 -10196506.52044  20908603.1084   20908601.6324
      4162.2154
 -12705410.80149  -9875417.23446  19019247.5154   19019245.8784
      1591.3764
 04  9  7 22 35 59.9950000  0  6G10G19G 8G13G28G27
 -10570433.71547  -8233809.91442  21508935.0074   21508933.8234
      1605.6174
 -11473475.18447  -8914630.87542  20861121.5074   20861117.7844
      1887.3284
 -20105804.71949 -15630141.10546  19136625.6874   19136624.3944
      2811.9234
  -1507239.33648  -1162815.87145  19842246.5694   19842244.8704
     -1148.9864
 -13176113.81249 -10245101.27744  20896735.2574   20896734.3554
      4157.5564
 -12729226.38749  -9893974.83646  19014715.5464   19014713.8584
      1587.7064
 04  9  7 22 36 14.9940000  0  6G10G19G 8G13G28G27
 -10594373.39848  -8252464.21542  21504379.6664   21504378.6584
      1595.9794
 -11501646.64146  -8936582.62942  20855760.3224   20855757.5534
      1878.0974
 -20147921.87949 -15662959.66846  19128610.9244   19128609.6904
      2807.8114
  -1489908.91848  -1149311.67645  19845544.5724   19845542.7294
     -1155.3614
 -13238406.28948 -10293640.81644  20884881.1274   20884880.1584
      4152.8324
 -12752988.57849  -9912490.83246  19010193.6504   19010192.3264
      1584.1464
 04  9  7 22 36 29.9940000  0  6G10G19G 8G13G28G27
 -10618171.97748  -8271008.55942  21499850.7524   21499849.9004
      1586.5724
 -11529683.40646  -8958429.45342  20850424.6504   20850421.6664
      1869.1184
 -20189983.16449 -15695734.68446  19120607.1354   19120605.7484
      2804.0864
  -1472481.11348  -1135731.59445  19848860.9164   19848859.3734
     -1161.8544
 -13300636.27748 -10342131.69944  20873039.2294   20873038.4044
      4148.6664
 -12776700.74249  -9930967.83646  19005681.5964   19005679.9514
      1580.8114
 04  9  7 22 36 44.9940000  0  6G10G19G 8G13G28G27
 -10641826.23047  -8289440.45743  21495349.5494   21495348.9364
      1576.9504
 -11557581.85546  -8980168.47742  20845116.1974   20845113.3224
      1859.8974
 -20231984.03948 -15728462.63746  19112614.7834   19112613.2174
      2800.0584
  -1454955.59448  -1122075.35245  19852195.9084   19852194.6544
     -1168.3684
 -13362797.85248 -10390569.24644  20861210.3304   20861208.9944
      4144.1054
 -12800359.65649  -9949403.35246  19001179.3694   19001177.8544
      1577.2614
 04  9  7 22 36 59.9940000  0  6G10G19G 8G13G28G27
 -10665338.19547  -8307761.46942  21490875.4554   21490874.3034
      1567.4644
 -11585343.96547  -9001801.28942  20839833.5574   20839829.8814
      1850.8074
 -20273926.28548 -15761144.89846  19104633.0334   19104631.9904
      2796.1504
  -1437334.57048  -1108344.69945  19855549.1354   19855547.1904
     -1174.7354
 -13424892.98048 -10438955.03944  20849394.0184   20849392.9434
      4139.6754
 -12823967.17649  -9967798.82846  18996687.2524   18996685.3654
      1573.8354
 04  9  7 22 37 14.9940000  0  6G10G19G 8G13G28G27
 -10688709.33247  -8325972.77342  21486427.7834   21486426.5724
      1558.0764
 -11612971.01246  -9023328.84842  20834575.8614   20834573.0494
      1841.8034
 -20315811.32849 -15793782.57846  19096662.8774   19096661.2174
      2792.3364
  -1419619.66848  -1094540.89845  19858919.9714   19858918.0254
     -1180.9934
 -13486922.86348 -10487289.98044  20837589.6044   20837589.1624
      4135.3264
 -12847524.70349  -9986155.33246  18992204.3614   18992202.5534
      1570.5024
 04  9  7 22 37 29.9940000  0  6G10G19G 8G13G28G27
 -10711937.82447  -8344072.90242  21482007.3464   21482006.8854
      1548.5664
 -11640461.15646  -9044749.71942  20829345.2364   20829340.7604
      1832.6764
 -20357637.30549 -15826374.25446  19088703.6194   19088702.1074
      2788.3984
  -1401809.31249  -1080662.69545  19862309.2834   19862308.2214
     -1187.3574
 -13548885.67648 -10535572.62544  20825798.8774   20825798.1114
      4130.8544
 -12871030.47349 -10004471.51246  18987731.1974   18987729.4434
      1567.0514
 04  9  7 22 37 44.9940000  0  6G10G19G 8G13G28G27
 -10735025.54347  -8362063.33242  21477613.8224   21477613.2014
      1539.1814
 -11667816.09046  -9066065.23842  20824139.1664   20824135.3384
      1823.6624
 -20399406.12549 -15858921.37946  19080755.6114   19080753.8224
      2784.5884
  -1383905.40648  -1066711.62545  19865716.0024   19865715.2324
     -1193.5944
 -13610782.95348 -10583804.23844  20814020.6274   20814019.4594
      4126.4854
 -12894485.97749 -10022748.53146  18983268.0334   18983265.9084
      1563.7004
 04  9  7 22 37 59.9940000  0  6G10G19G 8G13G28G27
 -10757972.05945  -8379943.74242  21473247.3074   21473246.4124
      1529.7684
 -11695035.13347  -9087274.87542  20818959.9404   20818956.2914
      1814.6034
 -20441117.17249 -15891423.48846  19072817.3854   19072816.3074
      2780.7364
  -1365907.63748  -1052687.41445  19869140.6434   19869140.0654
     -1199.8514
 -13672614.09848 -10631984.33244  20802253.9474   20802253.4204
      4122.0764
 -12917890.87949 -10040986.12546  18978814.1584   18978812.4164
      1560.3274
 04  9  7 22 38 14.9940000  0  6G10G19G 8G13G28G27
 -10780775.71147  -8397712.82842  21468908.0724   21468907.2604
      1520.2434
 -11722116.55147  -9108377.24243  20813806.5574   20813802.5614
      1805.4284
 -20482768.59849 -15923879.14846  19064891.7684   19064890.2484
      2776.7624
  -1347814.55548  -1038588.93045  19872584.1504   19872583.1154
     -1206.2054
 -13734377.30548 -10680111.45344  20790501.5254   20790500.0844
      4117.5474
 -12941243.40249 -10059182.89546  18974370.4004   18974368.5654
      1556.8354
 04  9  7 22 38 29.9940000  0  6G10G19G 8G13G28G27
 -10803436.19148  -8415370.35943  21464596.4714   21464594.7444
      1510.6994
 -11749059.91847  -9129372.06242  20808680.1354   20808675.3264
      1796.2244
 -20524359.98049 -15956288.00846  19056977.4864   19056975.7324
      2772.7594
  -1329625.97349  -1024416.02345  19876045.5024   19876044.7524
     -1212.5724
 -13796072.04348 -10728185.23444  20778760.4864   20778759.9404
      4112.9834
 -12964543.02749 -10077338.43446  18969936.5334   18969934.7874
      1553.3084
 04  9  7 22 38 44.9940000  0  6G10G19G 8G13G28G27
 -10825954.43046  -8432917.05942  21460311.0254   21460310.1474
      1501.2164
 -11775865.90247  -9150259.83242  20803579.0104   20803574.7754
      1787.0664
 -20565891.82049 -15988650.46946  19049074.1904   19049072.9244
      2768.7894
  -1311342.96149  -1010169.54745  19879524.4794   19879523.4204
     -1218.8674
 -13857699.06248 -10776206.25844  20767033.8224   20767032.5964
      4108.4684
 -12987790.61748 -10095453.44546  18965512.9404   18965510.9984
      1549.8394
 04  9  7 22 38 59.9940000  0  6G10G19G 8G13G28G27
 -10848332.71148  -8450354.68043  21456052.7524   21456051.1824
      1491.8854
 -11802536.68047  -9171042.27042  20798502.9004   20798499.2564
      1778.0524
 -20607366.56249 -16020968.45346  19041182.2444   19041180.2054
      2764.9834
  -1292967.93449   -995851.35945  19883021.2444   19883019.8774
     -1225.0024
 -13919260.55948 -10824176.21944  20755319.0024   20755317.9164
      4104.1004
 -13010988.32849 -10113529.58246  18961098.2214   18961096.4554
      1546.5144
 04  9  7 22 39 14.9940000  0  6G10G19G 8G13G28G27
 -10870569.67647  -8467682.17643  21451821.0494   21451820.0254
      1482.4644
 -11829070.77747  -9191718.16842  20793452.9244   20793450.6434
      1768.9404
 -20648782.88749 -16053240.91446  19033300.7134   19033298.6474
      2761.0884
  -1274499.52349   -981460.41445  19886535.8224   19886534.9474
     -1231.2274
 -13980754.87948 -10872093.84444  20743616.5964   20743615.4164
      4099.6214
 -13034134.77349 -10131565.77746  18956693.5884   18956691.8894
      1543.0964
 04  9  7 22 39 29.9940000  0  6G10G19G 8G13G28G27
 -10892663.59048  -8484898.22342  21447616.8694   21447615.7484
      1472.9284
 -11855466.23847  -9212286.03943  20788429.9164   20788427.4944
      1759.6974
 -20690138.69549 -16085466.21146  19025430.7134   19025429.2954
      2757.0544
  -1255936.31649   -966995.60545  19890067.6974   19890067.3814
     -1237.5474
 -14042180.18048 -10919957.68444  20731928.1274   20731926.9084
      4095.0204
 -13057227.98849 -10149560.48046  18952299.3694   18952297.2684
      1539.5484
 04  9  7 22 39 44.9940000  0  6G10G19G 8G13G28G27
 -10914615.90247  -8502003.92242  21443439.5494   21443438.2484
      1463.4884
 -11881724.41746  -9232746.94942  20783434.0334   20783431.0964
      1750.5454
 -20731435.32449 -16117645.40246  19017572.4634   19017570.6234
      2753.1094
  -1237279.81249   -952458.10245  19893618.9714   19893617.0414
     -1243.7674
 -14103537.62548 -10967768.64544  20720251.3614   20720250.8114
      4090.4964
 -13080269.39149 -10167514.82446  18947914.5184   18947912.5414
      1536.0934
 04  9  7 22 39 59.9940000  0  6G10G19G 8G13G28G27
 -10936425.42247  -8518998.37542  21439289.3694   21439288.4284
      1453.9684
 -11907844.08246  -9253099.91442  20778463.6114   20778459.8264
      1741.3114
 -20772671.46549 -16149777.45746  19009725.4944   19009724.1114
      2749.0764
  -1218529.13349   -937847.19145  19897186.5574   19897185.2214
     -1250.0454
 -14164825.95348 -11015525.74644  20708589.1114   20708588.2994
      4085.8894
 -13103257.76249 -10185427.84446  18943540.2834   18943538.2014
      1532.5584
 04  9  7 22 40 14.9940000  0  6G10G19G 8G13G28G27
 -10958095.34848  -8535884.03542  21435165.5724   21435164.2834
      1444.6624
 -11933828.24246  -9273347.30942  20773519.0024   20773516.0884
      1732.2774
 -20813850.23449 -16181864.80546  19001889.4714   19001887.3574
      2745.2514
  -1199687.50449   -923165.43745  19900771.9324   19900770.4864
     -1256.1094
 -14226048.28548 -11063231.41844  20696938.5334   20696937.5294
      4081.4894
 -13126196.01249 -10203301.79746  18939174.9554   18939173.1664
      1529.2174
 04  9  7 22 40 29.9940000  0  6G10G19G 8G13G28G27
 -10979623.27748  -8552659.05542  21431068.6274   21431067.4004
      1435.1954
 -11959674.36346  -9293487.12942  20768600.7054   20768597.4284
      1723.0754
 -20854969.19549 -16213905.55146  18994064.5724   18994062.7324
      2741.2644
  -1180752.78149   -908411.12144  19904375.2294   19904373.5724
     -1262.3154
 -14287201.94548 -11110883.60244  20685301.7914   20685300.4904
      4076.9114
 -13149081.76249 -10221134.85946  18934820.0414   18934818.0104
      1525.7174
 04  9  7 22 40 44.9940000  0  6G10G19G 8G13G28G27
 -11001009.83648  -8569323.91442  21426999.4794   21426998.1004
      1425.7714
 -11985382.99647  -9313519.79742  20763708.7444   20763705.0414
      1713.9094
 -20896028.84049 -16245900.07446  18986251.0964   18986249.4824
      2737.3104
  -1161725.66449   -893584.82045  19907996.1824   19907994.7564
     -1268.4744
 -14348287.35948 -11158482.59044  20673676.8694   20673676.4944
      4072.3614
 -13171915.41449 -10238927.30946  18930474.5804   18930473.3304
      1522.2434
 04  9  7 22 40 59.9940000  0  6G10G19G 8G13G28G27
 -11022255.21948  -8585878.75442  21422956.3544   21422954.9244
      1416.3594
 -12010954.04746  -9333445.27742  20758842.0884   20758837.6934
      1704.7374
 -20937029.05549 -16277848.28546  18978449.0184   18978447.6904
      2733.3484
  -1142606.53549   -878686.84045  19911634.1274   19911632.9514
     -1274.6094
 -14409304.55148 -11206028.41444  20662066.2684   20662065.0374
      4067.8134
 -13194697.09449 -10256679.26246  18926139.7444   18926137.6044
      1518.7794
 04  9  7 22 41 14.9940000  0  6G10G19G 8G13G28G27
 -11043360.49648  -8602324.45342  21418939.7684   21418939.6704
      1407.0184
 -12036388.38746  -9353264.23842  20754001.7444   20753998.7214
      1695.6234
 -20977970.81249 -16309750.94946  18970658.1664   18970656.6504
      2729.4514
  -1123396.46949   -863717.97745  19915289.7524   19915288.2254
     -1280.6714
 -14470254.39148 -11253521.75444  20650467.7054   20650467.0804
      4063.3234
 -13217427.71149 -10274391.42246  18921813.9714   18921812.0254
      1515.3744
 04  9  7 22 41 29.9940000  0  6G10G19G 8G13G28G27
 -11064322.31648  -8618658.32842  21414951.1044   21414949.8504
      1397.4554
 -12061682.64846  -9372974.04742  20749189.2134   20749186.5454
      1686.2844
 -21018850.69949 -16341605.40646  18962878.4794   18962877.6154
      2725.3264
  -1104092.29349   -848675.78544  19918963.3224   19918961.4824
     -1286.9454
 -14531133.28948 -11300959.83644  20638882.9244   20638881.9404
      4058.5934
 -13240103.87149 -10292061.16846  18917499.0654   18917497.3184
      1511.7444
 04  9  7 22 41 44.9940000  0  6G10G19G 8G13G28G27
 -11085143.32048  -8634882.48442  21410988.6194   21410988.2644
      1388.0674
 -12086839.32846  -9392576.66042  20744402.0724   20744398.1584
      1677.1124
 -21059671.28949 -16373413.65246  18955110.6274   18955109.4124
      2721.3734
  -1084696.78148   -833562.41845  19922654.4084   19922652.1664
     -1293.0344
 -14591943.79748 -11348344.63344  20627311.0254   20627309.6274
      4054.0344
 -13262728.07049 -10309690.41046  18913193.2524   18913192.0184
      1508.2804
 04  9  7 22 41 59.9940000  0  6G10G19G 8G13G28G27
 -11105822.43048  -8650996.09442  21407053.9634   21407052.6434
      1378.6074
 -12111857.20346  -9412071.10942  20739641.4084   20739637.3574
      1667.8584
 -21100431.30549 -16405174.71146  18947354.8384   18947353.2254
      2717.3344
  -1065208.91448   -818377.08645  19926362.4004   19926360.6974
     -1299.1914
 -14652684.59448 -11395675.07444  20615752.3074   20615750.9164
      4049.3864
 -13285299.08249 -10327278.21546  18908898.1044   18908897.0494
      1504.7344
 04  9  7 22 42 14.9940000  0  6G10G19G 8G13G28G27
 -11126356.60547  -8666996.75442  21403145.4324   21403145.1824
      1368.9454
 -12136733.01246  -9431454.84843  20734908.1904   20734903.9794
      1658.3874
 -21141127.62549 -16436886.11746  18939610.5334   18939608.7484
      2713.0884
  -1045625.87948   -803117.59444  19930089.2054   19930087.5414
     -1305.5364
 -14713352.48448 -11442948.71944  20604207.5574   20604206.3224
      4044.5264
 -13307813.65249 -10344822.03946  18904613.9714   18904612.4044
      1500.9714
 04  9  7 22 42 29.9940000  0  6G10G19G 8G13G28G27
 -11146747.46947  -8682885.76242  21399266.2524   21399265.1864
      1359.3914
 -12161468.27346  -9450729.04742  20730200.7054   20730196.6784
      1649.0174
 -21181761.59449 -16468548.93746  18931877.8774   18931876.5104
      2708.9314
  -1025949.41448   -787785.32044  19933833.6584   19933831.9164
     -1311.7644
 -14773948.82848 -11490166.62544  20592676.3774   20592675.5494
      4039.7564
 -13330273.28949 -10362323.05946  18900340.3154   18900338.6004
      1497.3094
 04  9  7 22 42 44.9940000  0  6G10G19G 8G13G28G27
 -11166996.83647  -8698664.48042  21395412.6744   21395411.6114
      1349.9584
 -12186064.70746  -9469895.10543  20725520.0574   20725515.9984
      1639.7624
 -21222334.97349 -16500164.55546  18924156.9004   18924155.6434
      2704.8924
  -1006181.60548   -772381.87145  19937594.5654   19937593.7914
     -1317.8544
 -14834475.41848 -11537330.16444  20581158.3224   20581157.5614
      4035.1064
 -13352679.82849 -10379782.69546  18896076.4714   18896074.5844
      1493.7694
 04  9  7 22 42 59.9940000  0  6G10G19G 8G13G28G27
 -11187103.43747  -8714331.94942  21391586.5724   21391585.5334
      1340.4404
 -12210520.93446  -9488951.89842  20720865.8614   20720862.9204
      1630.4154
 -21262846.19549 -16531731.74246  18916447.9404   18916446.5224
      2700.7484
   -986321.23449   -756906.28544  19941374.2524   19941372.8464
     -1324.0254
 -14894930.67648 -11584438.13344  20569654.6434   20569653.2324
      4030.3514
 -13375031.70749 -10397199.74646  18891823.1904   18891821.2094
      1490.1254
 04  9  7 22 43 14.9940000  0  6G10G19G 8G13G28G27
 -11207067.14148  -8729888.09842  21387787.8154   21387786.5414
      1330.9144
 -12234836.55947  -9507899.13342  20716238.7524   20716235.3544
      1621.0424
 -21303294.98849 -16563250.26646  18908750.9634   18908749.6314
      2696.5864
   -966368.25448   -741358.53544  19945171.1274   19945170.0064
     -1330.1994
 -14955314.22348 -11631490.20744  20558163.9634   20558162.3154
      4025.5704
 -13397328.76249 -10414574.07446  18887580.0254   18887578.0614
      1486.4704
 04  9  7 22 43 29.9940000  0  6G10G19G 8G13G28G27
 -11226889.64848  -8745334.24242  21384015.6904   21384014.0884
      1321.5014
 -12259013.15646  -9526738.01243  20711637.9474   20711635.8854
      1611.7734
 -21343682.78549 -16594721.26646  18901065.2294   18901063.8184
      2692.5204
   -946324.44548   -725740.00444  19948985.1044   19948984.6154
     -1336.2544
 -15015627.62148 -11678487.64144  20546686.1194   20546684.7254
      4020.8934
 -13419572.43749 -10431906.80946  18883346.9404   18883345.3384
      1482.9124
 04  9  7 22 43 44.9940000  0  6G10G19G 8G13G28G27
 -11246573.07048  -8760671.96542  21380269.7994   21380268.7914
      1312.2284
 -12283052.58246  -9545470.01643  20707063.2834   20707060.9554
      1602.6284
 -21384011.79349 -16626146.46946  18893391.2994   18893389.4044
      2688.6014
   -926191.90248   -710052.34044  19952816.7134   19952816.0964
     -1342.1704
 -15075872.66048 -11725431.80544  20535222.2054   20535220.5724
      4016.3364
 -13441764.68749 -10449199.47346  18879124.0414   18879122.2724
      1479.4834
 04  9  7 22 43 59.9940000  0  6G10G19G 8G13G28G27
 -11266112.56247  -8775897.54342  21376551.8774   21376550.3464
      1302.6334
 -12306950.06247  -9564091.43743  20702516.3774   20702513.2564
      1593.1654
 -21424276.98449 -16657521.93446  18885728.8614   18885727.1624
      2684.3464
   -905966.27048   -694292.12944  19956665.3464   19956665.0224
     -1348.3764
 -15136044.54748 -11772318.96544  20523771.9244   20523770.2874
      4011.4594
 -13463900.64149 -10466448.26646  18874911.6114   18874910.6194
      1475.7304
 04  9  7 22 44 14.9940000  0  6G10G19G 8G13G28G27
 -11285509.91047  -8791012.37942  21372860.6114   21372859.4594
      1293.1574
 -12330707.22747  -9582603.49243  20697995.2754   20697991.9164
      1583.8114
 -21464479.89149 -16688848.87946  18878078.4554   18878076.8184
      2680.1944
   -885649.34448   -678460.78944  19960531.8614   19960530.5804
     -1354.4624
 -15196144.82848 -11819150.30544  20512334.5494   20512334.4554
      4006.6854
 -13485981.91049 -10483654.45746  18870709.7994   18870708.4864
      1472.0854
 04  9  7 22 44 29.9940000  0  6G10G19G 8G13G28G27
 -11304765.05548  -8806016.37942  21369196.4404   21369195.1584
      1283.6764
 -12354323.74247  -9601005.99643  20693501.6194   20693497.9324
      1574.4344
 -21504620.40249 -16720127.18446  18870439.8544   18870438.4514
      2676.0344
   -865241.12148   -662558.28544  19964415.7914   19964414.1974
     -1360.5484
 -15256173.12148 -11865925.57044  20500911.4794   20500911.0414
      4001.8864
 -13508008.32849 -10500817.89846  18866518.6434   18866516.7954
      1468.4284
 04  9  7 22 44 44.9940000  0  6G10G19G 8G13G28G27
 -11323877.81648  -8820909.44542  21365559.1044   21365558.2094
      1274.1844
 -12377799.42247  -9619298.68043  20689034.1664   20689030.9984
      1565.0454
 -21544698.10949 -16751356.56646  18862813.4714   18862811.9674
      2671.8474
   -844741.53548   -646584.61344  19968316.2134   19968315.4084
     -1366.6394
 -15316129.08648 -11912644.47344  20489502.7134   20489501.4084
      3997.0644
 -13529979.52749 -10517938.31246  18862337.7294   18862335.6434
      1464.7474
 04  9  7 22 44 59.9940000  0  6G10G19G 8G13G28G27
 -11342849.31248  -8835692.42642  21361949.0184   21361948.6784
      1264.7664
 -12401135.12146  -9637482.37943  20684593.1114   20684590.2834
      1555.7134
 -21584714.03549 -16782537.79746  18855198.8224   18855197.0924
      2667.7284
   -824151.82048   -630540.70744  19972234.1504   19972233.6314
     -1372.6484
 -15376013.69548 -11959307.77344  20478107.1504   20478105.6474
      3992.3074
 -13551896.46549 -10535016.44146  18858166.6824   18858165.1394
      1461.1294
 04  9  7 22 45 14.9940000  0  6G10G19G 8G13G28G27
 -11361682.18047  -8850367.39842  21358365.5964   21358364.2914
      1255.5244
 -12424333.37547  -9655558.92242  20680178.9324   20680175.5724
      1546.5504
 -21624670.72749 -16813672.87946  18847594.9474   18847593.1744
      2663.7794
   -803474.84048   -614428.79744  19976169.0804   19976168.1864
     -1378.4654
 -15435829.30148 -12005917.30944  20466724.3774   20466723.2294
      3987.7074
 -13573761.60549 -10552054.21546  18854005.9404   18854004.4674
      1457.6764
 04  9  7 22 45 29.9940000  0  6G10G19G 8G13G28G27
 -11380375.34847  -8864933.53142  21354808.7054   21354807.1394
      1246.2114
 -12447392.88747  -9673527.34442  20675790.4244   20675786.3814
      1537.3014
 -21664566.72749 -16844760.67246  18840002.9404   18840001.7994
      2659.7334
   -782709.54748   -598248.07444  19980120.5024   19980120.1934
     -1384.3534
 -15495574.66048 -12052472.11744  20455354.9794   20455354.1934
      3983.0244
 -13595573.70749 -10569050.65646  18849855.1824   18849853.6314
      1454.1404
 04  9  7 22 45 44.9940000  0  6G10G19G 8G13G28G27
 -11398932.26647  -8879393.44542  21351276.9554   21351276.4324
      1237.1284
 -12470317.05547  -9691390.33642  20671428.0654   20671425.0414
      1528.2784
 -21704405.37149 -16875803.76246  18832422.2684   18832420.4904
      2655.9104
   -761859.43748   -582001.26244  19984088.0964   19984087.1074
     -1390.0074
 -15555253.02748 -12098974.70344  20443998.7054   20443997.6824
      3978.5584
 -13617336.07449 -10586008.35246  18845714.0724   18845712.3614
      1450.8244
 04  9  7 22 45 59.9940000  0  6G10G19G 8G13G28G27
 -11417347.85247  -8893743.25843  21347772.6904   21347772.2134
      1227.7064
 -12493100.75047  -9709143.87142  20667093.0414   20667089.5144
      1518.9134
 -21744181.60549 -16906798.21946  18824852.8694   18824851.2564
      2651.7494
   -740919.73448   -565684.62544  19988073.0724   19988071.6704
     -1395.9804
 -15614859.13748 -12145420.98844  20432656.4554   20432654.9284
      3973.7414
 -13639043.52349 -10602923.24646  18841583.2134   18841581.5534
      1447.1634
 04  9  7 22 46 14.9940000  0  6G10G19G 8G13G28G27
 -11435623.13347  -8907983.76642  21344295.0724   21344294.8224
      1218.3524
 -12515744.62547  -9726788.44142  20662784.1274   20662780.1584
      1509.5924
 -21783895.89849 -16937744.43046  18817295.8544   18817293.8464
      2647.6204
   -719891.43048   -549298.96144  19992074.7834   19992073.6584
     -1401.8874
 -15674393.55148 -12191811.41444  20421327.2604   20421325.8034
      3968.9614
 -13660696.87949 -10619795.99646  18837462.5884   18837460.8814
      1443.5574
 04  9  7 22 46 29.9940000  0  6G10G19G 8G13G28G27
 -11453755.04348  -8922112.52342  21340845.3694   21340843.9594
      1208.7944
 -12538245.48847  -9744321.57842  20658502.2294   20658497.8974
      1500.0584
 -21823545.17249 -16968639.96946  18809750.7134   18809749.0224
      2643.2854
   -698771.65648   -532842.01644  19996093.2364   19996092.2604
     -1407.9854
 -15733853.25848 -12238143.62144  20410012.4244   20410011.1314
      3963.9804
 -13682292.81649 -10636623.99646  18833352.9794   18833351.2524
      1439.7294
 04  9  7 22 46 44.9940000  0  6G10G19G 8G13G28G27
 -11471746.52047  -8936131.87142  21337420.9474   21337419.9634
      1199.4324
 -12560606.27047  -9761745.54342  20654246.6504   20654244.0104
      1490.7194
 -21863132.20749 -16999486.99646  18802217.8774   18802215.4864
      2639.1364
   -677563.41848   -516316.16844  20000129.3774   20000128.2484
     -1413.8834
 -15793241.00048 -12284419.74644  20398710.9794   20398709.9674
      3959.1834
 -13703834.25449 -10653409.52746  18829254.0724   18829252.1864
      1436.0964
 04  9  7 22 46 59.9940000  0  6G10G19G 8G13G28G27
 -11489594.84047  -8950039.65642  21334024.5654   21334023.8114
      1189.8884
 -12582823.98447  -9779058.03543  20650019.1354   20650015.5614
      1481.1814
 -21902654.27349 -17030283.41046  18794696.6664   18794694.9004
      2634.8044
   -656264.18048   -499719.38344  20004182.7134   20004181.0254
     -1419.9494
 -15852553.83648 -12330637.50444  20387424.1194   20387423.5254
      3954.1894
 -13725318.31649 -10670150.36346  18825165.9084   18825163.7174
      1432.2714
 04  9  7 22 47 14.9940000  0  6G10G19G 8G13G28G27
 -11507303.53947  -8963838.64142  21330654.2604   21330653.7404
      1180.5804
 -12604902.03947  -9796261.67242  20645817.8774   20645814.0064
      1471.8704
 -21942114.42249 -17061031.56646  18787187.8224   18787186.1704
      2630.6774
   -634877.56248   -483054.50844  20008252.2364   20008250.9824
     -1425.7744
 -15911794.94948 -12376799.39144  20376150.5104   20376149.7604
      3949.4084
 -13746748.17249 -10686848.95346  18821087.8154   18821086.0184
      1428.6574
 04  9  7 22 47 29.9940000  0  6G10G19G 8G13G28G27
 -11524867.35948  -8977524.75042  21327312.3614   21327311.3694
      1170.9214
 -12626835.05547  -9813352.35243  20641643.9084   20641640.6864
      1462.2014
 -21981507.41049 -17091727.39846  18779691.3304   18779689.6864
      2626.1994
   -613398.45748   -466317.57844  20012339.3854   20012338.4824
     -1431.9404
 -15970958.95748 -12422901.17644  20364892.4474   20364891.3574
      3944.2674
 -13768118.59449 -10703501.23046  18817020.7134   18817019.0654
      1424.6954
 04  9  7 22 47 44.9940000  0  6G10G19G 8G13G28G27
 -11542291.99647  -8991102.37542  21323996.3544   21323995.4794
      1161.6424
 -12648628.58647  -9830334.29343  20637497.0884   20637493.1624
      1452.9024
 -22020838.76249 -17122375.19146  18772206.8694   18772205.0534
      2622.0904
   -591832.66048   -449513.07444  20016443.5254   20016442.3854
     -1437.7204
 -16030051.38749 -12468947.19544  20353647.7684   20353646.6504
      3939.4954
 -13789435.04749 -10720111.44146  18812964.5334   18812962.9004
      1421.0974
 04  9  7 22 47 59.9940000  0  6G10G19G 8G13G28G27
 -11559575.57447  -9004570.10542  21320707.6664   21320707.3614
      1152.2394
 -12670280.67248  -9847206.04343  20633376.8224   20633373.2294
      1443.4724
 -22060106.26649 -17152973.24246  18764734.3544   18764733.2364
      2617.8344
   -570178.37148   -432639.61744  20020563.8854   20020562.5884
     -1443.6194
 -16089070.14148 -12514935.79344  20342416.2684   20342415.0764
      3934.5844
 -13810695.48849 -10736678.03146  18808918.9714   18808917.3614
      1417.3634
 04  9  7 22 48 14.9940000  0  6G10G19G 8G13G28G27
 -11576719.53947  -9017929.07842  21317444.7364   21317444.3264
      1142.9314
 -12691792.53148  -9863968.56643  20629282.9404   20629279.8384
      1434.1244
 -22099311.27049 -17183522.58646  18757273.8074   18757272.4904
      2613.6674
   -548437.15648   -415698.45744  20024701.6044   20024700.6114
     -1449.4144
 -16148016.40649 -12560867.93044  20331199.3774   20331197.7324
      3929.7514
 -13831901.18049 -10753201.94946  18804883.6824   18804881.9514
      1413.7134
 04  9  7 22 48 29.9940000  0  6G10G19G 8G13G28G27
 -11593722.75847  -9031178.34442  21314209.7444   21314209.1624
      1133.5484
 -12713162.91048  -9880620.78543  20625216.5654   20625211.7404
      1424.6924
 -22138452.48049 -17214022.23046  18749825.9084   18749823.9084
      2609.4144
   -526608.03948   -398688.77744  20028855.2214   20028854.1044
     -1455.2744
 -16206888.93048 -12606742.59444  20319996.1194   20319994.6784
      3924.8354
 -13853050.81649 -10769682.18746  18800858.7834   18800856.9904
      1409.9764
 04  9  7 22 48 44.9940000  0  6G10G19G 8G13G28G27
 -11610587.14148  -9044319.43442  21311001.2994   21310999.4364
      1124.2924
 -12734393.52747  -9897164.12942  20621175.9554   20621172.6744
      1415.3744
 -22177531.46549 -17244473.37546  18742389.3614   18742387.6194
      2605.2664
   -504692.85548   -381612.03144  20033025.7364   20033024.0574
     -1461.0124
 -16265689.22749 -12652560.97344  20308807.3384   20308805.3264
      3920.0204
 -13874146.03149 -10786120.02346  18796844.5494   18796843.1274
      1406.3484
 04  9  7 22 48 59.9940000  0  6G10G19G 8G13G28G27
 -11627310.46147  -9057350.60542  21307818.3304   21307817.1824
      1114.8884
 -12755482.10547  -9913596.79342  20617162.6904   20617159.3074
      1405.9054
 -22216546.18449 -17274874.44946  18734965.0804   18734963.4044
      2600.9814
   -482689.62548   -364466.67244  20037212.8154   20037211.0144
     -1466.8824
 -16324414.91049 -12698321.21544  20297631.6434   20297630.3974
      3915.0464
 -13895184.55149 -10802513.67646  18792841.4404   18792839.1624
      1402.5684
 04  9  7 22 49 14.9940000  0  6G10G19G 8G13G28G27
 -11643891.12147  -9070270.61742  21304662.6194   21304662.8424
      1105.3774
 -12776426.87947  -9929917.37143  20613177.2294   20613173.5064
      1396.3184
 -22255494.55149 -17305223.82046  18727553.2604   18727551.6114
      2596.5584
   -460597.03548   -347251.69944  20041416.8544   20041415.2364
     -1472.8394
 -16383064.29748 -12744022.01244  20286471.3074   20286469.9364
      3909.9594
 -13916164.65249 -10818861.80546  18788849.1354   18788847.2684
      1398.6734
 04  9  7 22 49 29.9940000  0  6G10G19G 8G13G28G27
 -11660333.84447  -9083083.12142  21301534.1904   21301532.7054
      1096.1824
 -12797232.40647  -9946129.46942  20609218.0334   20609214.8734
      1387.0354
 -22294381.22749 -17335525.11346  18720153.0334   18720151.9084
      2592.4454
   -438419.70748   -329970.68444  20045637.1824   20045636.2874
     -1478.4894
 -16441641.79748 -12789666.77744  20275324.2604   20275322.7644
      3905.1674
 -13937090.72749 -10835167.83246  18784866.7834   18784864.8814
      1395.0724
 04  9  7 22 49 44.9940000  0  6G10G19G 8G13G28G27
 -11676638.56247  -9095788.09442  21298431.2364   21298430.3854
      1086.9814
 -12817898.49247  -9962232.89142  20605285.5494   20605282.6744
      1377.7394
 -22333205.88349 -17365778.08246  18712765.2054   18712763.7564
      2588.3104
   -416157.63748   -312623.65644  20049873.5964   20049872.3224
     -1484.1384
 -16500147.01649 -12835255.23044  20264191.1354   20264189.3154
      3900.3484
 -13957962.62149 -10851431.65246  18780894.7364   18780893.3934
      1391.4604
 04  9  7 22 49 59.9940000  0  6G10G19G 8G13G28G27
 -11692801.59448  -9108382.68442  21295355.9474   21295353.9404
      1077.5354
 -12838421.23447  -9978224.63342  20601380.2914   20601376.6934
      1368.1834
 -22371964.54349 -17395979.63746  18705389.7604   18705388.2914
      2583.9114
   -393807.35548   -295207.87544  20054126.3544   20054125.6504
     -1490.0194
 -16558576.13348 -12880784.37144  20253072.4324   20253070.6354
      3895.2744
 -13978776.46549 -10867650.23846  18776934.5574   18776932.7054
      1387.5904
 04  9  7 22 50 14.9940000  0  6G10G19G 8G13G28G27
 -11708824.98047  -9120868.44542  21292306.0654   21292305.6044
      1068.2264
 -12858802.57047  -9994106.18442  20597501.3694   20597498.5804
      1358.7564
 -22410659.22749 -17426131.32046  18698026.5884   18698025.2914
      2579.6464
   -371371.07448   -277725.09044  20058396.4634   20058394.8224
     -1495.7524
 -16616931.09048 -12926255.72344  20241967.6664   20241966.0804
      3890.3304
 -13999534.17249 -10883825.06646  18772984.1354   18772982.6824
      1383.8474
 04  9  7 22 50 29.9940000  0  6G10G19G 8G13G28G27
 -11724711.16847  -9133247.28942  21289283.9404   21289282.8154
      1059.0794
 -12879044.84047 -10009879.38342  20593650.2754   20593646.7324
      1349.4854
 -22449292.12149 -17456234.87546  18690674.6504   18690673.5764
      2575.5264
   -348851.23048   -260177.18044  20062681.8384   20062680.3304
     -1501.3234
 -16675214.06649 -12971671.00044  20230876.6744   20230875.7724
      3885.5324
 -14020237.75849 -10899957.73446  18769044.6274   18769042.8934
      1380.2394
 04  9  7 22 50 44.9940000  0  6G10G19G 8G13G28G27
 -11740454.85547  -9145515.12142  21286286.9164   21286286.7054
      1049.5794
 -12899142.62148 -10025539.96943  20589826.3544   20589821.9714
      1339.8524
 -22487857.65249 -17486285.93446  18683336.5964   18683334.5374
      2571.0354
   -326242.70348   -242560.17244  20066983.9004   20066982.9164
     -1507.2354
 -16733419.68748 -13017025.98844  20219800.5494   20219799.0804
      3880.3754
 -14040882.00849 -10916044.16446  18765116.0254   18765114.1824
      1376.2834
 04  9  7 22 50 59.9940000  0  6G10G19G 8G13G28G27
 -11756058.16447  -9157673.57042  21283318.3934   21283317.2954
      1040.2214
 -12919097.80947 -10041089.46543  20586028.2054   20586025.3544
      1330.3464
 -22526357.88349 -17516286.10946  18676009.8934   18676008.1864
      2566.6824
   -303547.66448   -224875.75444  20071302.7444   20071301.3344
     -1513.0034
 -16791549.55549 -13062321.95744  20208739.0334   20208737.9044
      3875.3244
 -14061468.71949 -10932085.75446  18761198.0724   18761196.7324
      1372.4474
 04  9  7 22 51 14.9940000  0  6G10G19G 8G13G28G27
 -11771523.58247  -9169724.54742  21280375.0334   21280374.8894
      1031.0284
 -12938912.77747 -10056529.69542  20582257.1354   20582254.0294
      1320.9984
 -22564795.01249 -17546237.11346  18668695.5884   18668693.5024
      2562.4754
   -280768.64548   -207125.89544  20075637.1504   20075635.4554
     -1518.6014
 -16849605.97748 -13107560.68744  20197690.6044   20197689.4794
      3870.4284
 -14082000.16849 -10948084.28546  18757291.3774   18757289.5844
      1368.7634
 04  9  7 22 51 29.9940000  0  6G10G19G 8G13G28G27
 -11786847.01647  -9181664.89542  21277458.7364   21277459.0294
      1021.5624
 -12958583.34847 -10071857.43442  20578513.5104   20578510.6504
      1311.3714
 -22603164.45749 -17576135.38346  18661394.0254   18661391.9554
      2557.9634
   -257901.68448   -189307.50044  20079989.2294   20079987.4044
     -1524.4644
 -16907584.64848 -13152738.84844  20186657.9324   20186656.1704
      3865.2454
 -14102472.11749 -10964036.46146  18753395.4164   18753393.8344
      1364.7974
 04  9  7 22 51 44.9940000  0  6G10G19G 8G13G28G27
 -11802029.54747  -9193495.45342  21274569.9004   21274569.9514
      1012.1694
 -12978110.33647 -10087073.24643  20574798.2994   20574795.1474
      1301.7994
 -22641467.40249 -17605981.82446  18654105.2054   18654103.4674
      2553.5304
   -234948.00048   -171421.55144  20084356.7754   20084355.8384
     -1530.2464
 -16965486.35948 -13197857.03544  20175639.9864   20175638.0454
      3860.1144
 -14122885.46549 -10979942.96546  18749511.3854   18749509.5654
      1360.8904
 04  9  7 22 51 59.9940000  0  6G10G19G 8G13G28G27
 -11817074.02348  -9205218.42642  21271707.6904   21271706.5334
      1002.9654
 -12997496.57047 -10102179.42643  20571108.9474   20571106.6704
      1292.4164
 -22679706.51249 -17635778.53546  18646827.9324   18646826.8184
      2549.2744
   -211910.52048   -153470.29344  20088740.0964   20088739.7294
     -1535.8324
 -17023314.00048 -13242917.50444  20164635.6114   20164633.8304
      3855.1764
 -14143242.83249 -10995805.85546  18745637.3074   18745635.8774
      1357.1584
 04  9  7 22 52 14.9940000  0  6G10G19G 8G13G28G27
 -11831978.35947  -9216832.20742  21268871.2754   21268869.5764
       993.6224
 -13016739.78548 -10117174.11743  20567447.8544   20567443.9364
      1282.8814
 -22717879.64549 -17665523.82046  18639564.0184   18639562.4904
      2544.8764
   -188787.31248   -135452.24644  20093140.7684   20093139.5614
     -1541.5474
 -17081065.10248 -13287918.32844  20153645.9004   20153644.2754
      3850.0734
 -14163541.92649 -11011623.33246  18741774.4864   18741772.3974
      1353.2734
 04  9  7 22 52 29.9940000  0  6G10G19G 8G13G28G27
 -11846742.97347  -9228337.07442  21266061.6114   21266060.6434
       984.3084
 -13035840.23847 -10132057.57043  20563812.1194   20563809.4404
      1273.3644
 -22755986.85249 -17695217.75446  18632312.4324   18632311.1154
      2540.4804
   -165578.93048   -117367.81244  20097557.2134   20097556.0064
     -1547.2264
 -17138739.87948 -13332859.67644  20142670.2604   20142669.3654
      3844.9854
 -14183783.03949 -11027395.63746  18737922.6194   18737920.7684
      1349.4084
 04  9  7 22 52 44.9940000  0  6G10G19G 8G13G28G27
 -11861366.89547  -9239732.37542  21263278.0884   21263278.1664
       974.9284
 -13054796.88347 -10146828.96943  20560204.4714   20560202.5764
      1263.7764
 -22794026.70349 -17724859.19546  18625073.8224   18625072.4244
      2535.9904
   -142284.48448    -99216.32044  20101989.9474   20101988.9204
     -1552.9634
 -17196337.20748 -13377740.67244  20131710.3464   20131708.7254
      3839.8224
 -14203964.98849 -11043121.82846  18734082.1584   18734080.5494
      1345.4634
 04  9  7 22 52 59.9940000  0  6G10G19G 8G13G28G27
 -11875852.29747  -9251019.70742  21260522.4944   21260521.3344
       965.6934
 -13073611.62147 -10161489.81243  20556625.2524   20556621.7364
      1254.3164
 -22832001.18749 -17754449.69546  18617847.6974   18617846.0224
      2531.6324
   -118906.23048    -80999.52344  20106439.1664   20106437.6974
     -1558.5504
 -17253858.87948 -13422562.71944  20120764.0184   20120762.4324
      3834.7784
 -14224089.64149 -11058803.37546  18730252.8694   18730250.5804
      1341.6434
 04  9  7 22 53 14.9940000  0  6G10G19G 8G13G28G27
 -11890198.98847  -9262198.94942  21257792.0024   21257791.1434
       956.4464
 -13092284.22347 -10176039.87143  20553072.5254   20553067.8734
      1244.8404
 -22869910.11349 -17783989.11346  18610634.0414   18610632.2794
      2527.2624
    -95444.10948    -62717.37944  20110903.4864   20110902.8114
     -1564.1414
 -17311304.56648 -13467325.55944  20109833.0104   20109830.5534
      3829.7134
 -14244156.61349 -11074439.97746  18726434.2834   18726431.9004
      1337.7984
 04  9  7 22 53 29.9940000  0  6G10G19G 8G13G28G27
 -11904405.57047  -9273269.02042  21255088.9244   21255087.6044
       947.1054
 -13110813.00047 -10190477.90242  20549545.2294   20549541.3074
      1235.2524
 -22907751.91849 -17813476.23446  18603433.3304   18603431.0964
      2522.7874
    -71896.82448    -44368.86744  20115384.6584   20115383.9284
     -1569.8194
 -17368672.64149 -13512027.91444  20098916.2214   20098913.4794
      3824.5384
 -14264164.43449 -11090030.49246  18722626.9634   18722624.9554
      1333.8554
 04  9  7 22 53 44.9940000  0  6G10G19G 8G13G28G27
 -11918471.94547  -9284229.85542  21252412.2134   21252411.1664
       937.7584
 -13129197.80548 -10204803.71543  20546047.3774   20546043.1864
      1225.6544
 -22945526.00449 -17842910.57846  18596244.1974   18596242.8614
      2518.2724
    -48264.11748    -25953.82044  20119881.7524   20119880.6354
     -1575.5144
 -17425962.62949 -13556669.44544  20088014.2444   20088011.9084
      3819.3334
 -14284112.61349 -11105574.52346  18718830.8694   18718828.8934
      1329.8794
 04  9  7 22 53 59.9940000  0  6G10G19G 8G13G28G27
 -11932400.61747  -9295083.38342  21249761.0184   21249760.5884
       928.5784
 -13147440.94547 -10219019.14542  20542575.4164   20542572.1074
      1216.2094
 -22983234.70349 -17872293.97346  18589068.9084   18589067.2054
      2513.9134
    -24548.64148     -7474.23844  20124394.5254   20124393.3814
     -1581.0324
 -17483176.75848 -13601251.86744  20077125.7834   20077124.2644
      3814.2754
 -14304003.46949 -11121073.89846  18715045.7444   18715044.0494
      1326.0574
 04  9  7 22 54 14.9940000  0  6G10G19G 8G13G28G27
 -11946191.62147  -9305829.60542  21247136.9714   21247136.1274
       919.4004
 -13165542.25447 -10233124.04343  20539131.2754   20539127.7524
      1206.7544
 -23020877.89149 -17901626.32447  18581905.5494   18581904.1864
      2509.5464
      -750.66448     11069.59844  20128922.6194   20128922.0764
     -1586.5324
 -17540314.91049 -13645775.06244  20066253.3774   20066251.3424
      3809.2104
 -14323836.77349 -11136528.42246  18711271.4004   18711269.4634
      1322.2204
 04  9  7 22 54 29.9940000  0  6G10G19G 8G13G28G27
 -11959845.44547  -9316468.95742  21244539.0184   21244537.6664
       910.2554
 -13183502.17248 -10247118.78543  20535713.4404   20535709.9124
      1197.3284
 -23058455.84849 -17930907.84046  18574754.6744   18574753.1194
      2505.1974
     23129.23848     29677.29344  20133467.6434   20133466.4364
     -1591.9934
 -17597377.49649 -13690239.37544  20055394.1974   20055392.9044
      3804.1724
 -14343612.93049 -11151938.41046  18707508.0804   18707506.1474
      1318.4104
 04  9  7 22 54 44.9930000  0  6G10G19G 8G13G28G27
 -11973362.21947  -9327001.50842  21241967.1534   21241966.2784
       901.1184
 -13201320.46548 -10261003.17243  20532323.0674   20532318.8534
      1187.8864
 -23095966.71949 -17960137.08646  18567616.3804   18567615.4544
      2500.7254
     47088.36348     48346.71144  20138026.5604   20138025.4464
     -1597.2754
 -17654361.36348 -13734642.36344  20044550.8884   20044548.7084
      3798.9244
 -14363331.44149 -11167303.47746  18703755.8024   18703754.5324
      1314.5674
 04  9  7 22 54 59.9930000  0  6G10G19G 8G13G28G27
 -11986740.94147  -9337426.49642  21239420.5214   21239419.7434
       891.9154
 -13218996.41848 -10274776.63343  20528959.5604   20528955.7784
      1178.3974
 -23133412.55949 -17989315.66046  18560490.9194   18560489.4074
      2496.3894
     71132.69548     67082.53944  20142602.4584   20142601.2674
     -1602.9554
 -17711271.03548 -13778987.53144  20033721.3724   20033719.1894
      3793.9784
 -14382991.82449 -11182623.25846  18700014.5604   18700012.7004
      1310.6924
 04  9  7 22 55 14.9930000  0  6G10G19G 8G13G28G27
 -11999979.59447  -9347742.34042  21236901.4354   21236900.6224
       882.5774
 -13236527.67647 -10288437.35243  20525622.4354   20525619.6814
      1168.7514
 -23170789.52349 -18018440.57046  18553378.2084   18553377.0714
      2491.7984
     95261.68048     85884.30944  20147194.2784   20147192.4194
     -1608.5994
 -17768101.41449 -13823270.91844  20022907.0674   20022904.8144
      3788.6924
 -14402591.52749 -11197895.75846  18696284.8494   18696282.8534
      1306.6474
 04  9  7 22 55 29.9930000  0  6G10G19G 8G13G28G27
 -12013076.34447  -9357947.61342  21234409.8804   21234408.2004
       873.1174
 -13253912.11347 -10301983.66042  20522315.0524   20522310.4854
      1158.9634
 -23208095.67249 -18047510.28146  18546279.2554   18546277.8964
      2487.0774
    119477.02748    104753.39144  20151801.6224   20151800.8644
     -1614.3574
 -17824850.34048 -13867490.82844  20012107.9034   20012106.0174
      3783.2624
 -14422128.33649 -11213119.23846  18692567.1224   18692565.4234
      1302.4544
 04  9  7 22 55 44.9930000  0  6G10G19G 8G13G28G27
 -12026033.52347  -9368044.14542  21231944.1694   21231943.0244
       863.8124
 -13271152.09848 -10315417.39843  20519034.3494   20519030.3884
      1149.3324
 -23245332.96149 -18076526.35246  18539192.9974   18539191.6304
      2482.4864
    143776.31648    123687.86344  20156426.1304   20156425.3104
     -1619.9534
 -17881519.97348 -13911648.93744  20001323.5364   20001322.5094
      3777.9764
 -14441604.51649 -11228295.48446  18688861.1854   18688859.1614
      1298.4124
 04  9  7 22 55 59.9930000  0  6G10G19G 8G13G28G27
 -12038849.41847  -9378030.55142  21229504.4744   21229503.8104
       854.3934
 -13288245.66448 -10328737.05543  20515781.5524   20515778.5674
      1139.5714
 -23282499.56249 -18105487.33246  18532120.4114   18532118.7204
      2477.7734
    168161.11748    142688.98444  20161065.9974   20161065.0714
     -1625.6534
 -17938108.32848 -13955743.73844  19990555.9584   19990553.8534
      3772.5574
 -14461018.06649 -11243422.92246  18685166.7164   18685165.0014
      1294.2374
 04  9  7 22 56 14.9930000  0  6G10G19G 8G13G28G27
 -12051524.55947  -9387907.29742  21227092.6144   21227092.0604
       845.0094
 -13305193.10547 -10341942.84443  20512556.5444   20512553.3254
      1129.8294
 -23319595.55949 -18134393.29746  18525061.4744   18525059.5054
      2473.0664
    192630.98448    161756.37544  20165722.5834   20165721.7204
     -1631.3244
 -17994615.71948 -13999775.43744  19979802.3494   19979800.7514
      3767.1594
 -14480369.23449 -11258501.76646  18681484.2864   18681482.5054
      1290.0784
 04  9  7 22 56 29.9930000  0  6G10G19G 8G13G28G27
 -12064060.24247  -9397675.36742  21224707.9664   21224706.6574
       835.7124
 -13321995.63748 -10355035.70743  20509359.2864   20509356.1424
      1120.1694
 -23356622.24249 -18163245.25446  18518015.5834   18518013.8534
      2468.4464
    217184.30948    180888.82844  20170395.5914   20170393.8844
     -1636.8884
 -18051043.14549 -14043744.81644  19969065.0604   19969062.9504
      3761.8284
 -14499659.19549 -11273532.90246  18677813.5754   18677811.6854
      1285.9974
 04  9  7 22 56 44.9930000  0  6G10G19G 8G13G28G27
 -12076456.34447  -9407334.69942  21222348.5604   21222347.9154
       826.4074
 -13338653.19947 -10368015.63742  20506189.0604   20506185.3534
      1110.5044
 -23393579.19149 -18192042.87146  18510982.7004   18510981.0674
      2463.7974
    241821.14148    200086.32844  20175083.4664   20175082.6344
     -1642.4554
 -18107390.45348 -14087651.78544  19958342.3964   19958340.3964
      3756.4874
 -14518887.78149 -11288516.22346  18674154.4424   18674152.5914
      1281.9064
 04  9  7 22 56 59.9930000  0  6G10G19G 8G13G28G27
 -12088711.56647  -9416884.21142  21220016.9194   21220015.9504
       817.0154
 -13355164.27047 -10380881.41043  20503046.6074   20503044.1964
      1100.7384
 -23430464.80549 -18220784.90646  18503964.0364   18503961.8844
      2459.0414
    266542.72748    219349.87144  20179787.5364   20179786.7474
     -1648.1064
 -18163655.94948 -14131495.01644  19947634.9744   19947633.0644
      3751.0334
 -14538053.19149 -11303450.30146  18670507.4424   18670505.4274
      1277.6944
 04  9  7 22 57 14.9930000  0  6G10G19G 8G13G28G27
 -12100823.36747  -9426322.02342  21217712.4354   21217710.9934
       807.4534
 -13371526.15247 -10393630.93443  20499933.3414   20499929.6694
      1090.7924
 -23467276.18449 -18249469.09046  18496958.9274   18496957.2864
      2454.0924
    291351.57848    238681.42644  20184508.6384   20184507.9074
     -1653.9234
 -18219836.87948 -14175272.31644  19936943.6304   19936942.1964
      3745.3954
 -14557152.64849 -11318333.00046  18666873.2394   18666871.2744
      1273.2974
 04  9  7 22 57 29.9930000  0  6G10G19G 8G13G28G27
 -12112794.40247  -9435650.09442  21215434.0524   21215432.4274
       798.0694
 -13387741.29348 -10406266.10243  20496848.6694   20496844.7784
      1081.0094
 -23504015.84049 -18278097.39546  18489967.3884   18489965.8964
      2449.3104
    316244.92248    258078.79344  20189245.2164   20189244.7864
     -1659.5564
 -18275935.63348 -14218985.59844  19926269.6224   19926267.1184
      3739.9174
 -14576188.73049 -11333166.30946  18663250.6774   18663248.5134
      1269.0724
 04  9  7 22 57 44.9930000  0  6G10G19G 8G13G28G27
 -12124626.97347  -9444870.32042  21213181.6224   21213180.8724
       788.8384
 -13403812.03948 -10418788.73043  20493789.7944   20493786.3604
      1071.3834
 -23540686.14149 -18306671.64546  18482989.4194   18482988.0484
      2444.6874
    341220.34448    277540.13344  20193998.6144   20193997.6734
     -1665.0284
 -18331954.43749 -14262636.59444  19915608.7784   19915606.6694
      3734.5874
 -14595163.51649 -11347951.85946  18659639.6694   18659638.0014
      1264.9864
 04  9  7 22 57 59.9930000  0  6G10G19G 8G13G28G27
 -12136318.25447  -9453980.39542  21210957.4504   21210956.6304
       779.4194
 -13419735.19148 -10431196.39543  20490759.9194   20490756.2594
      1061.5434
 -23577283.62549 -18335189.16446  18476024.9664   18476023.4664
      2439.8324
    366280.71148    297067.65644  20198767.0994   20198766.5364
     -1670.6914
 -18387889.80148 -14306222.56244  19904965.1074   19904963.1464
      3729.0244
 -14614073.75849 -11362687.10546  18656040.9114   18656039.0524
      1260.6834
 04  9  7 22 58 14.9930000  0  6G10G19G 8G13G28G27
 -12147868.54747  -9462980.62942  21208758.7084   21208758.3764
       770.0204
 -13435511.05948 -10443489.26643  20487757.7714   20487754.5484
      1051.7244
 -23613808.46949 -18363650.06646  18469074.6304   18469073.1034
      2434.9904
    391425.54348    316661.01244  20203552.4114   20203551.4854
     -1676.3224
 -18443742.09448 -14349743.80544  19894336.1694   19894334.4074
      3723.4864
 -14632919.55149 -11377372.15646  18652455.2394   18652453.2474
      1256.3864
 04  9  7 22 58 29.9930000  0  6G10G19G 8G13G28G27
 -12159280.44947  -9471873.03142  21206587.9274   21206586.1924
       760.7934
 -13451141.90247 -10455669.12943  20484783.4274   20484779.4894
      1042.0564
 -23650262.86749 -18392056.09046  18462137.6224   18462135.8764
      2430.2934
    416652.32448    336318.22344  20208352.9744   20208352.0014
     -1681.7854
 -18499513.52048 -14393202.02344  19883722.9274   19883721.5714
      3718.0954
 -14651703.27049 -11392008.81646  18648880.6614   18648878.9234
      1252.2484
 04  9  7 22 58 44.9930000  0  6G10G19G 8G13G28G27
 -12170555.38347  -9480658.68742  21204442.3104   21204440.8414
       751.6624
 -13466629.16848 -10467737.14543  20481836.3254   20481833.3104
      1032.4844
 -23686648.16049 -18420408.25046  18455213.5364   18455212.0834
      2425.6864
    441959.47348    356038.05944  20213168.6144   20213167.2824
     -1687.1434
 -18555205.34848 -14436598.21944  19873125.4584   19873124.2554
      3712.7894
 -14670426.17249 -11406598.10246  18645317.7554   18645315.7824
      1248.1934
 04  9  7 22 58 59.9930000  0  6G10G19G 8G13G28G27
 -12181691.50847  -9489336.21142  21202323.8024   21202322.1964
       742.4084
 -13481970.84048 -10479691.68443  20478917.3724   20478914.1654
      1022.7784
 -23722962.26249 -18448704.95346  18448303.2714   18448301.6464
      2420.9404
    467348.68448    375821.83244  20218000.1694   20217998.7084
     -1692.6144
 -18610815.46148 -14479930.73844  19862543.5834   19862541.7124
      3707.3414
 -14689086.17249 -11421138.35946  18641766.9354   18641764.8254
      1244.0004
 04  9  7 22 59 14.9930000  0  6G10G19G 8G13G28G27
 -12192690.34447  -9497906.75442  21200230.6384   21200229.0714
       733.2564
 -13497168.22748 -10491533.78143  20476024.8724   20476021.6304
      1013.1594
 -23759206.38749 -18476947.12146  18441406.0214   18441404.7324
      2416.2754
    492818.33248    395668.28544  20222846.8724   20222846.2784
     -1697.9774
 -18666345.06248 -14523200.53944  19851975.8574   19851974.7634
      3701.9734
 -14707684.56249 -11435630.59846  18638227.3254   18638226.1384
      1239.8934
 04  9  7 22 59 29.9930000  0  6G10G19G 8G13G28G27
 -12203548.26247  -9506367.48442  21198163.9354   21198162.4784
       723.8614
 -13512217.53948 -10503260.53143  20473160.3024   20473157.7354
      1003.2884
 -23795376.51649 -18505131.62946  18434523.4504   18434521.9894
      2411.3424
    518372.29348    415580.43044  20227709.1694   20227708.4894
     -1703.5974
 -18721790.28948 -14566404.57444  19841425.8724   19841423.2594
      3696.3484
 -14726217.31249 -11450071.70746  18634700.9274   18634699.2284
      1235.5174
 04  9  7 22 59 44.9930000  0  6G10G19G 8G13G28G27
 -12214268.15247  -9514720.62542  21196124.3104   21196122.3644
       714.6594
 -13527121.50048 -10514874.03943  20470325.0524   20470321.5134
       993.5974
 -23831475.41449 -18533260.64146  18427654.2634   18427652.3254
      2406.5934
    544007.25448    435555.69144  20232587.8024   20232586.6924
     -1708.9974
 -18777153.76249 -14609544.92244  19830889.8884   19830887.9424
      3690.8984
 -14744687.16849 -11464463.80946  18631186.5284   18631184.3294
      1231.3244
 04  9  7 22 59 59.9930000  0  6G10G19G 8G13G28G27
 -12224847.96547  -9522964.66042  21194110.9274   21194109.1224
       705.3214
 -13541878.04348 -10526372.61743  20467517.2944   20467513.6574
       983.7704
 -23867500.77749 -18561332.34046  18420798.8254   18420796.6964
      2401.6914
    569725.23048    455595.64844  20237482.2634   20237480.6384
     -1714.5324
 -18832433.23048 -14652619.80944  19820370.7394   19820368.8994
      3685.2984
 -14763091.82049 -11478805.09446  18627684.2004   18627682.1494
      1226.9774
 04  9  7 23  0 14.9930000  0  6G10G19G 8G13G28G27
 -12235289.89847  -9531101.26242  21192124.8574   21192122.5714
       696.1294
 -13556489.18748 -10537757.94943  20464736.7864   20464733.5954
       974.0764
 -23903454.45749 -18589348.18746  18413956.5444   18413954.9934
      2396.9124
    595524.05548    475698.59044  20242390.9274   20242390.0484
     -1719.9224
 -18887630.70748 -14695630.80144  19809866.8494   19809865.0284
      3679.8324
 -14781433.20349 -11493097.08246  18624193.9194   18624192.0324
      1222.7594
 04  9  7 23  0 29.9930000  0  6G10G19G 8G13G28G27
 -12245596.18047  -9539132.12942  21190162.7634   21190161.6734
       687.0854
 -13570956.93748 -10549031.49243  20461983.2394   20461979.8254
       964.5174
 -23939338.43749 -18617309.73046  18407128.4664   18407126.3174
      2392.2654
    621401.51648    495862.82844  20247315.2394   20247314.0094
     -1725.1644
 -18942747.95749 -14738579.28944  19799378.6534   19799377.0954
      3674.4834
 -14799713.30549 -11507341.31246  18620715.1144   18620713.5674
      1218.6734
 04  9  7 23  0 44.9930000  0  6G10G19G 8G13G28G27
 -12255766.77747  -9547057.27742  21188227.7084   21188226.2284
       678.0404
 -13585281.14148 -10560193.20343  20459258.0364   20459254.4394
       954.9474
 -23975152.51649 -18645216.80146  18400313.3574   18400311.3104
      2387.6054
    647357.46148    516088.20744  20252254.7244   20252253.4704
     -1730.3964
 -18997784.75448 -14781465.07044  19788905.2084   19788903.9074
      3669.1204
 -14817931.75049 -11521537.50846  18617248.0674   18617246.6774
      1214.5634
 04  9  7 23  0 59.9930000  0  6G10G19G 8G13G28G27
 -12265800.79347  -9554876.02342  21186318.7634   21186317.4894
       668.9344
 -13599460.81248 -10571242.30944  20456559.4114   20456556.2824
       945.3114
 -24010895.45349 -18673068.42646  18393511.4664   18393509.5874
      2382.8634
    673392.86348    536375.50444  20257208.8104   20257207.6894
     -1735.6934
 -19052739.85949 -14824287.19944  19778447.6074   19778446.1964
      3663.6744
 -14836087.47349 -11535684.82446  18613793.2634   18613791.7554
      1210.3824
 04  9  7 23  1 14.9930000  0  6G10G19G 8G13G28G27
 -12275698.88347  -9562588.82442  21184433.9664   21184433.2004
       659.8734
 -13613496.48847 -10582179.18043  20453887.6854   20453884.7204
       935.7124
 -24046567.48849 -18700864.81246  18386723.5054   18386721.4704
      2378.1364
    699506.79348    556724.00044  20262178.3174   20262176.8964
     -1740.9294
 -19107613.93048 -14867046.19544  19768005.5054   19768003.5324
      3658.2714
 -14854180.93049 -11549783.62546  18610350.3104   18610348.7004
      1206.2304
 04  9  7 23  1 29.9930000  0  6G10G19G 8G13G28G27
 -12285461.56647  -9570196.13342  21182577.1144   21182575.3884
       650.8464
 -13627388.42248 -10593004.05943  20451245.5754   20451241.4234
       926.1294
 -24082168.91849 -18728606.18446  18379948.7244   18379946.8414
      2373.4294
    725698.78148    577133.30944  20267162.5054   20267161.8294
     -1746.1334
 -19162407.05549 -14909742.11344  19757578.8104   19757576.9854
      3652.8754
 -14872212.31649 -11563834.06646  18606918.7554   18606917.2044
      1202.0924
 04  9  7 23  1 44.9930000  0  6G10G19G 8G13G28G27
 -12295089.34847  -9577698.29342  21180745.0134   21180743.2554
       641.8524
 -13641137.05148 -10603717.30143  20448628.6694   20448624.8454
       916.5754
 -24117700.05149 -18756292.77346  18373186.8574   18373185.5834
      2368.7424
    751968.25448    597603.00044  20272161.1614   20272161.2864
     -1751.2984
 -19217119.53949 -14952375.18444  19747167.4894   19747165.3454
      3647.4994
 -14890181.85248 -11577836.30946  18603499.7244   18603497.9464
      1197.9694
 04  9  7 23  1 59.9930000  0  6G10G19G 8G13G28G27
 -12304582.56647  -9585095.62542  21178938.4274   21178936.7004
       632.8814
 -13654742.67248 -10614319.05143  20446039.5444   20446035.9234
       907.0414
 -24153161.10549 -18783924.76246  18366438.9894   18366437.8144
      2364.0704
    778314.68448    618132.65243  20277175.0524   20277174.4584
     -1756.4294
 -19271751.43449 -14994945.46144  19736770.8414   19736769.3174
      3642.1264
 -14908089.76248 -11591790.52346  18600091.9824   18600090.2044
      1193.8614
 04  9  7 23  2 14.9930000  0  6G10G19G 8G13G28G27
 -12313940.04347  -9592387.17642  21177158.2714   21177156.3574
       623.8324
 -13668203.87148 -10624808.28143  20443477.6464   20443474.6494
       897.4134
 -24188550.56249 -18811500.96146  18359705.0994   18359703.4354
      2359.2974
    804739.19548    638723.14543  20282203.3414   20282202.0444
     -1761.6344
 -19326301.26248 -15037451.78944  19726390.6144   19726389.1224
      3636.6554
 -14925934.50048 -11605695.51246  18596695.6614   18596694.1104
      1189.6494
 04  9  7 23  2 29.9930000  0  6G10G19G 8G13G28G27
 -12323164.80947  -9599575.31642  21175401.8254   21175401.2944
       614.9844
 -13681523.48448 -10635187.19943  20440943.5134   20440939.6734
       887.9744
 -24223871.08249 -18839023.43446  18352983.3804   18352981.9974
      2354.7014
    831238.74248    659372.11744  20287245.8804   20287246.1774
     -1766.6364
 -19380771.85549 -15079896.39145  19716025.3884   19716023.3144
      3631.3734
 -14943718.76649 -11619553.39146  18593311.8964   18593310.3764
      1185.6184
 04  9  7 23  2 44.9930000  0  6G10G19G 8G13G28G27
 -12332259.09047  -9606661.78542  21173671.5134   21173670.1184
       606.2854
 -13694703.74648 -10645457.53943  20438434.6534   20438432.0914
       878.6844
 -24259124.65249 -18866493.74246  18346274.8254   18346273.3104
      2350.2384
    857811.04748    680077.78144  20292302.2164   20292302.5324
     -1771.4874
 -19435165.29749 -15122280.86744  19705674.9114   19705672.4704
      3626.2294
 -14961444.64149 -11633365.76246  18589938.6924   18589937.0054
      1181.7254
 04  9  7 23  2 59.9930000  0  6G10G19G 8G13G28G27
 -12341220.33647  -9613644.57042  21171966.7474   21171964.2354
       597.4164
 -13707741.92248 -10655617.17243  20435953.4274   20435950.2594
       869.2124
 -24294308.46149 -18893909.69546  18339579.4274   18339577.9234
      2345.5874
    884458.55148    700842.03944  20297373.4664   20297372.3684
     -1776.5004
 -19489478.63348 -15164602.93044  19695339.1464   19695336.8994
      3620.8894
 -14979109.42249 -11647130.51646  18586577.5994   18586575.6464
      1177.6524
 04  9  7 23  3 14.9930000  0  6G10G19G 8G13G28G27
 -12350048.37547  -9620523.59042  21170286.2474   21170285.9624
       588.5364
 -13720637.60248 -10665665.73843  20433499.7864   20433496.2824
       859.7124
 -24329421.96949 -18921270.86746  18332897.7324   18332896.2434
      2340.9014
    911181.49648    721665.08244  20302459.3724   20302457.8144
     -1781.5304
 -19543711.37148 -15206862.19144  19685018.9274   19685016.8884
      3615.5164
 -14996712.46549 -11660847.18446  18583227.4974   18583226.3764
      1173.5364
 04  9  7 23  3 29.9930000  0  6G10G19G 8G13G28G27
 -12358745.91447  -9627300.89142  21168630.9114   21168630.5714
       579.8364
 -13733393.30948 -10675605.25043  20431072.2944   20431069.7944
       850.3804
 -24364467.66049 -18948579.18746  18326228.4974   18326227.0324
      2336.3794
    937977.08248    742544.72343  20307558.1224   20307557.2284
     -1786.3724
 -19597865.97349 -15249060.55945  19674713.4824   19674711.6654
      3610.3074
 -15014256.13749 -11674517.57446  18579888.9114   18579887.3454
      1169.5784
 04  9  7 23  3 44.9930000  0  6G10G19G 8G13G28G27
 -12367310.72347  -9633974.78542  21167001.6534   21167000.1854
       570.9874
 -13746006.79748 -10685433.94143  20428672.4744   20428669.2084
       840.8994
 -24399442.90649 -18975832.62546  18319573.0834   18319571.9314
      2331.6834
    964847.40647    763482.60943  20312670.5674   20312670.5054
     -1791.3554
 -19651939.89849 -15291196.05944  19664423.4034   19664421.6574
      3604.9284
 -15031738.01248 -11688139.82046  18576562.5054   18576560.5014
      1165.4584
 04  9  7 23  3 59.9930000  0  6G10G19G 8G13G28G27
 -12375743.27747  -9640545.62142  21165396.6384   21165395.7714
       562.1704
 -13758478.42648 -10695152.07443  20426299.1224   20426295.1384
       831.4424
 -24434347.96149 -19003031.35546  18312930.9114   18312929.4544
      2327.0044
    991792.02348    784478.36343  20317798.4974   20317797.5094
     -1796.3084
 -19705933.37148 -15333268.86744  19654148.5674   19654146.6344
      3599.5654
 -15049158.41049 -11701714.16846  18573247.6614   18573245.8374
      1161.3604
 04  9  7 23  4 14.9930000  0  6G10G19G 8G13G28G27
 -12384043.87947  -9647013.63342  21163817.0524   21163816.0994
       553.3734
 -13770808.21548 -10704759.70343  20423953.1464   20423949.3764
       821.9864
 -24469182.85249 -19030175.42646  18306302.0284   18306300.6814
      2322.3264
   1018810.53948    805531.74643  20322939.7714   20322938.8374
     -1801.2344
 -19759846.50849 -15375279.07044  19643889.8024   19643887.4504
      3594.2094
 -15066517.29349 -11715240.57046  18569944.1144   18569942.3454
      1157.2594
 04  9  7 23  4 29.9930000  0  7G10G19G 8G13G28G29G27
 -12392214.52347  -9653380.37542  21162261.4664   21162260.7984
       544.7104
 -13782998.14848 -10714258.34843  20421633.4504   20421630.8454
       812.6624
 -24503949.16049 -19057266.05546  18299686.2864   18299684.4544
      2317.7544
   1045900.98848    826641.14144  20328095.5524   20328094.6574
     -1806.0304
 -19813680.87148 -15417227.90244  19633645.1774   19633643.4034
      3588.9584
   -191560.68757   -130256.14152  22153825.6854   22153823.4934

 -15083816.25049 -11728720.28146  18566652.0364   18566650.1464
      1153.2644
 04  9  7 23  4 44.9930000  0  7G10G19G 8G13G28G29G27
 -12400257.66047  -9659647.78942  21160731.7714   21160730.7434
       536.2094
 -13795050.38348 -10723649.70743  20419339.4824   20419336.2044
       803.4824
 -24538649.11749 -19084304.96546  18293083.1074   18293081.4544
      2313.3304
   1073060.76648    847804.57843  20333263.5994   20333262.5754
     -1810.6524
 -19867438.83649 -15459117.21944  19623415.7244   19623413.3764
      3583.8644
   -261999.43046   -185143.46542  22140421.5054   22140419.5954
      4695.9164
 -15101057.46949 -11742154.99646  18563371.2474   18563369.3374
      1149.4154
 04  9  7 23  4 59.9930000  0  7G10G19G 8G13G28G29G27
 -12408171.55947  -9665814.46542  21159226.3104   21159225.2864
       527.5934
 -13806963.05148 -10732932.30943  20417073.1694   20417069.1654
       794.1784
 -24573280.83649 -19111290.71946  18286493.0834   18286491.7164
      2308.7814
   1100291.63748    869023.40643  20338445.6924   20338444.9394
     -1815.3914
 -19921118.33249 -15500945.37544  19613200.7244   19613198.7634
      3578.6334
   -332405.83247   -240005.56642  22127023.0524   22127022.2244
      4693.7604
 -15118239.02749 -11755543.23446  18560101.6304   18560100.2324
      1145.4374
 04  9  7 23  5 14.9930000  0  7G10G19G 8G13G28G29G27
 -12415958.14147  -9671881.94542  21157743.4894   21157742.9274
       519.1054
 -13818737.97348 -10742107.57843  20414832.4114   20414828.4394
       784.9954
 -24607845.84049 -19138224.49246  18279915.4354   18279913.6734
      2304.3344
   1127591.62148    890296.08243  20343640.3574   20343639.8254
     -1819.9994
 -19974720.89549 -15542713.58244  19603000.6924   19602998.3574
      3573.5044
   -402781.21147   -294843.49642  22113631.3724   22113630.4544
      4691.6924
 -15135362.49249 -11768886.18046  18556843.4274   18556841.6304
      1141.5644
 04  9  7 23  5 29.9930000  0  7G10G19G 8G13G28G29G27
 -12423617.64547  -9677850.40242  21156287.2084   21156285.2634
       510.6344
 -13830375.28548 -10751175.58243  20412618.2554   20412614.2394
       775.8214
 -24642344.07449 -19165106.22746  18273350.4584   18273349.1304
      2299.8824
   1154960.37548    911622.36743  20348848.7394   20348848.4584
     -1824.5844
 -20028246.52749 -15584421.83244  19592815.0754   19592813.1494
      3568.3764
   -473125.50447   -349657.21142  22100244.5994   22100244.6494
      4689.6204
 -15152427.91049 -11782183.91846  18553595.9504   18553594.4424
      1137.6954
 04  9  7 23  5 44.9930000  0  7G10G19G 8G13G28G29G27
 -12431149.55947  -9683719.41842  21154853.2714   21154851.9934
       502.1284
 -13841874.27348 -10760135.85943  20410429.6464   20410426.7394
       766.5994
 -24676774.73049 -19191935.30946  18266798.4504   18266797.1144
      2295.3774
   1182398.45348    933002.62143  20354070.2944   20354068.8024
     -1829.2054
 -20081694.50449 -15626069.59444  19582643.9194   19582642.2124
      3563.1984
   -543437.55546   -404445.78542  22086864.2324   22086864.2514
      4687.4704
 -15169434.46549 -11795435.78546  18550359.5754   18550357.9464
      1133.7704
 04  9  7 23  5 59.9930000  0  7G10G19G 8G13G28G29G27
 -12438550.70347  -9689486.57842  21153445.2634   21153444.1694
       493.4104
 -13853231.79748 -10768985.87143  20408267.9034   20408264.6494
       757.1684
 -24711134.42249 -19218709.09446  18260260.4424   18260258.7004
      2290.6464
   1209908.82848    954439.25843  20359305.2164   20359304.2554
     -1834.0254
 -20135061.35249 -15667654.12945  19572488.4194   19572486.4544
      3557.7904
   -613713.96946   -459206.59042  22073491.8024   22073491.5324
      4685.0944
 -15186378.78149 -11808639.14846  18547135.0444   18547133.0914
      1129.6214
 04  9  7 23  6 14.9930000  0  7G10G19G 8G13G28G29G27
 -12445824.78947  -9695154.69142  21152060.4194   21152059.8684
       484.9394
 -13864451.22748 -10777728.27344  20406133.3644   20406129.4934
       747.9624
 -24745426.31249 -19245430.04746  18253735.1694   18253732.8254
      2286.1264
   1237487.69948    975929.26243  20364553.0834   20364552.4114
     -1838.5914
 -20188350.55549 -15709178.15244  19562347.7324   19562345.2864
      3552.6144
   -683957.90246   -513942.09842  22060125.2244   22060123.9354
      4682.9294
 -15203264.17249 -11821796.59046  18543921.9114   18543919.9894
      1125.6934
 04  9  7 23  6 29.9930000  0  7G10G19G 8G13G28G29G27
 -12452969.99247  -9700722.39142  21150701.0444   21150698.8254
       476.3474
 -13875530.79348 -10786361.68443  20404024.7084   20404021.6774
       738.6384
 -24779648.56649 -19272096.73446  18247222.1534   18247221.1964
      2281.4844
   1265137.03948    997474.16443  20369814.4194   20369814.0364
     -1843.2894
 -20241559.90248 -15750639.94544  19552222.3104   19552219.9424
      3547.2904
   -754166.74246   -568650.26642  22046764.4424   22046764.4234
      4680.5894
 -15220088.52349 -11834906.48846  18540719.8884   18540718.6144
      1121.6234
 04  9  7 23  6 44.9930000  0  7G10G19G 8G13G28G29G27
 -12459988.46947  -9706191.34842  21149365.4274   21149363.8104
       467.8984
 -13886472.35248 -10794887.62943  20401942.7714   20401939.3804
       729.4374
 -24813802.85949 -19298710.46546  18240723.1614   18240721.5484
      2276.9534
   1292854.53948   1019072.18443  20375089.3884   20375088.3844
     -1847.8334
 -20294691.33649 -15792041.03944  19542111.8964   19542109.4664
      3542.0964
   -824342.41046   -623332.55942  22033411.1774   22033410.0214
      4678.3784
 -15236853.80148 -11847970.34446  18537529.8964   18537528.7244
      1117.6854
 04  9  7 23  6 59.9930000  0  7G10G19G 8G13G28G29G27
 -12466880.58247  -9711561.81642  21148054.2004   21148052.8214
       459.4744
 -13897276.09448 -10803306.09443  20399886.7864   20399882.6734
       720.2494
 -24847889.24649 -19325271.27346  18234236.7714   18234235.1774
      2272.4264
   1320639.89148   1040723.09843  20380376.6384   20380376.4624
     -1852.3574
 -20347744.82049 -15833381.39845  19532015.8964   19532014.0954
      3536.8994
   -894484.53146   -677988.72342  22020063.0674   22020061.8724
      4676.1414
 -15253559.91449 -11860988.09446  18534350.6854   18534349.5834
      1113.7414
 04  9  7 23  7 14.9930000  0  7G10G19G 8G13G28G29G27
 -12473643.14547  -9716831.34442  21146766.5754   21146765.6654
       450.8374
 -13907938.91848 -10811614.77044  20397858.0214   20397854.4704
       710.8554
 -24881904.12949 -19351776.39146  18227763.7474   18227762.2784
      2267.6594
   1348496.16048   1062429.23043  20385677.5054   20385677.3964
     -1857.0854
 -20400717.11749 -15874658.48845  19521935.5674   19521933.7554
      3531.4864
   -964589.77346   -732616.16042  22006721.8174   22006721.1424
      4673.6834
 -15270203.53949 -11873957.15646  18531183.9424   18531182.5794
      1109.5754
 04  9  7 23  7 29.9930000  0  7G10G19G 8G13G28G29G27
 -12480274.93747  -9721999.01242  21145505.3574   21145503.9704
       442.1204
 -13918459.18448 -10819812.41044  20395855.7004   20395852.9034
       701.3514
 -24915846.20349 -19378224.74646  18221305.0524   18221303.2594
      2262.8054
   1376424.52048   1084191.55143  20390991.6384   20390991.9854
     -1861.8914
 -20453606.62149 -15915871.06644  19511871.2004   19511869.1894
      3525.9674
  -1034656.11346   -787213.27742  21993388.6534   21993388.3024
      4671.0894
 -15286783.02349 -11886876.23846  18528028.9424   18528027.6694
      1105.2994
 04  9  7 23  7 44.9930000  0  7G10G19G 8G13G28G29G27
 -12486776.74247  -9727065.35542  21144267.8334   21144267.0914
       433.4544
 -13928837.78548 -10827899.61743  20393880.5834   20393877.0834
       691.9074
 -24949716.08649 -19404616.86746  18214859.5674   18214857.8924
      2257.9924
   1404424.09448   1106009.35243  20396320.5054   20396320.3334
     -1866.6384
 -20506413.97349 -15957019.61745  19501822.0674   19501820.3024
      3520.4904
  -1104683.97346   -841780.41042  21980063.1384   21980062.6494
      4668.5244
 -15303299.06249 -11899745.88746  18524885.9034   18524884.3174
      1101.0694
 04  9  7 23  7 59.9930000  0  7G10G19G 8G13G28G29G27
 -12493148.17247  -9732030.11342  21143055.0994   21143054.8024
       424.7624
 -13939073.99648 -10835875.88343  20391932.9584   20391929.2674
       682.4144
 -24983512.78949 -19430951.95346  18208428.2324   18208427.1894
      2253.1144
   1432495.28148   1127882.98444  20401661.9034   20401662.0754
     -1871.4124
 -20559138.39149 -15998103.56244  19491789.2394   19491787.3454
      3514.9614
  -1174672.41446   -896316.83242  21966744.1614   21966744.6224
      4665.8964
 -15319750.78549 -11912565.40646  18521755.3884   18521753.9234
      1096.7824
 04  9  7 23  8 14.9930000  0  7G10G19G 8G13G28G29G27
 -12499392.82447  -9736896.10242  21141866.9274   21141866.2004
       416.3104
 -13949171.45348 -10843743.99643  20390011.4274   20390007.9194
       673.1644
 -25017239.62149 -19457232.59846  18202010.2324   18202009.1734
      2248.4554
   1460634.40648   1149809.54743  20407016.7864   20407016.3884
     -1875.9424
 -20611783.12149 -16039125.39845  19481771.6464   19481769.1694
      3509.6494
  -1244624.62946   -950825.03142  21953433.2084   21953432.1924
      4663.4814
 -15336141.64849 -11925337.51246  18518636.7474   18518634.8844
      1092.7244
 04  9  7 23  8 29.9930000  0  7G10G19G 8G13G28G29G27
 -12505508.16447  -9741661.28942  21140703.9424   21140701.8414
       407.6894
 -13959127.46148 -10851501.94543  20388116.8174   20388113.2634
       663.7344
 -25050893.75849 -19483456.59446  18195606.0834   18195604.8574
      2243.6094
   1488843.94148   1171790.97743  20412385.7784   20412384.1384
     -1880.6364
 -20664345.38749 -16080082.98045  19471768.9424   19471766.9824
      3504.1514
  -1314537.51646  -1005302.55942  21940129.1074   21940128.9544
      4660.8594
 -15352468.71149 -11938059.89846  18515529.4354   18515527.8454
      1088.4714
 04  9  7 23  8 44.9930000  0  7G10G19G 8G13G28G29G27
 -12511495.18047  -9746326.49242  21139563.6074   21139563.0054
       399.1344
 -13968942.72348 -10859150.22343  20386249.3644   20386245.8454
       654.3514
 -25084475.95349 -19509624.53946  18189215.3724   18189213.9234
      2238.8134
   1517122.89148   1193826.47343  20417766.4504   20417765.0174
     -1885.2634
 -20716825.88749 -16120976.85945  19461782.7634   19461780.1774
      3498.7004
  -1384411.50045  -1059749.80542  21926832.4354   21926831.9584
      4658.2664
 -15368732.72349 -11950733.15646  18512434.5604   18512433.0214
      1084.2674
 04  9  7 23  8 59.9930000  0  7G10G19G 8G13G28G29G27
 -12517355.68747  -9750893.13342  21138448.7784   21138447.3374
       390.7014
 -13978618.86348 -10866690.04743  20384408.0914   20384404.0244
       645.0764
 -25117987.64849 -19535737.53946  18182838.7394   18182836.9424
      2234.1134
   1545469.44948   1215914.66443  20423160.5674   20423160.0604
     -1889.7714
 -20769226.18449 -16161808.23845  19451810.7164   19451808.9074
      3493.3534
  -1454247.85546  -1114167.69942  21913543.0834   21913542.7084
      4655.7574
 -15384935.18449 -11963358.45346  18509351.4194   18509349.4824
      1080.1644
 04  9  7 23  9 14.9930000  0  7G10G19G 8G13G28G29G27
 -12523086.98447  -9755359.09842  21137358.1464   21137357.2004
       382.0864
 -13988153.24648 -10874119.40643  20382593.4894   20382589.8374
       635.6264
 -25151425.89149 -19561793.30946  18176475.6074   18176473.9744
      2229.2164
   1573886.24248   1238057.59443  20428567.9424   20428568.2984
     -1894.4534
 -20821543.29749 -16202574.79745  19441854.8724   19441853.1654
      3487.8084
  -1524043.52046  -1168553.90242  21900261.4034   21900260.4424
      4653.0444
 -15401073.05549 -11975933.41846  18506280.3414   18506278.6494
      1075.8584
 04  9  7 23  9 29.9930000  0  7G10G19G 8G13G28G29G27
 -12528691.78147  -9759726.46142  21136291.2394   21136290.3104
       373.6534
 -13997548.28148 -10881440.23043  20380805.3724   20380802.4824
       626.3364
 -25184792.85249 -19587793.52746  18170125.7944   18170124.3684
      2224.4644
   1602370.62548   1260253.18443  20433988.3574   20433987.7944
     -1898.9594
 -20873779.53549 -16243278.32845  19431914.8414   19431913.0604
      3482.4164
  -1593800.44146  -1222909.90242  21886987.3174   21886986.6224
      4650.4614
 -15417148.61749 -11988459.84046  18503221.0754   18503219.4234
      1071.7044
 04  9  7 23  9 44.9930000  0  7G10G19G 8G13G28G29G27
 -12534170.10947  -9763995.30142  21135248.5604   21135248.7634
       365.2224
 -14006803.98848 -10888652.48043  20379044.3334   20379040.8144
       617.0474
 -25218088.36349 -19613738.09046  18163790.2164   18163788.5914
      2219.7014
   1630922.44948   1282501.33243  20439422.0914   20439421.2984
     -1903.4554
 -20925934.73849 -16283918.72345  19421989.8884   19421988.0444
      3477.0144
  -1663518.16846  -1277235.37542  21873719.8104   21873719.7394
      4647.8484
 -15433161.78149 -12000937.62546  18500173.9744   18500172.1814
      1067.5444
 04  9  7 23  9 59.9930000  0  7G10G19G 8G13G28G29G27
 -12539523.42247  -9768166.73042  21134230.0674   21134229.9664
       356.8884
 -14015921.64548 -10895757.12943  20377309.0674   20377305.2124
       607.8444
 -25251313.68749 -19639627.95346  18157468.0604   18157465.7514
      2215.0224
   1659540.22348   1304800.85543  20444867.9194   20444867.4704
     -1907.8524
 -20978010.04349 -16324496.86345  19412080.1304   19412078.4034
      3471.6874
  -1733197.81246  -1331531.17242  21860460.7084   21860459.5834
      4645.3104
 -15449113.63349 -12013367.65646  18497138.7324   18497136.6074
      1063.4574
 04  9  7 23 10 14.9930000  0  7G10G19G 8G13G28G29G27
 -12544747.95747  -9772237.80142  21133236.4744   21133235.1734
       348.3024
 -14024897.50048 -10902751.31244  20375601.4974   20375597.8414
       598.3904
 -25284464.64849 -19665459.87146  18151159.3024   18151157.7784
      2210.0644
   1688227.56648   1327154.61343  20450326.8334   20450325.6924
     -1912.4904
 -21030001.49249 -16365009.64545  19402187.2004   19402184.8144
      3466.0974
  -1802835.13346  -1385793.99242  21847209.6074   21847208.1144
      4642.4884
 -15465000.20349 -12025746.79746  18494115.1854   18494113.6924
      1059.1054
 04  9  7 23 10 29.9930000  0  7G10G19G 8G13G28G29G27
 -12549844.12147  -9776208.84842  21132266.7714   21132266.1694
       339.7444
 -14033731.48448 -10909634.96143  20373919.8104   20373916.9704
       588.9324
 -25317541.38749 -19691233.94946  18144864.6854   18144863.0214
      2205.1164
   1716984.17647   1349562.32843  20455798.2474   20455798.0914
     -1917.1074
 -21081909.21949 -16405457.20345  19392309.5604   19392306.9704
      3460.5154
  -1872429.80146  -1440023.59042  21833965.2944   21833964.6734
      4639.6454
 -15480821.48449 -12038075.07846  18491104.8174   18491103.1104
      1054.7524
 04  9  7 23 10 44.9930000  0  7G10G19G 8G13G28G29G27
 -12554812.53547  -9780080.35542  21131320.7324   21131321.0874
       331.2284
 -14042424.30948 -10916408.57044  20372266.2714   20372262.9074
       579.5224
 -25350544.19149 -19716950.41846  18138585.1224   18138582.3334
      2200.1874
   1745809.23447   1372023.37143  20461283.2714   20461283.2164
     -1921.6714
 -21133733.49649 -16445839.73445  19382447.0444   19382445.2044
      3454.9524
  -1941982.12547  -1494220.16442  21820730.8414   21820729.3604
      4636.8224
 -15496577.82449 -12050352.74646  18488106.4664   18488104.6424
      1050.4234
 04  9  7 23 10 59.9930000  0  7G10G19G 8G13G28G29G27
 -12559652.77347  -9783851.96142  21130400.0914   21130399.3724
       322.6834
 -14050975.39548 -10923071.73843  20370639.0054   20370635.9824
       570.0724
 -25383472.24649 -19742608.63346  18132318.7394   18132316.7204
      2195.2044
   1774703.28148   1394538.18843  20466782.2004   20466781.8684
     -1926.2704
 -21185473.49249 -16486156.59045  19372601.4424   19372599.1654
      3449.3334
  -2011490.91846  -1548382.84442  21807503.7244   21807502.2744
      4633.9204
 -15512268.50849 -12062579.24246  18485120.6384   18485118.6574
      1046.0464
 04  9  7 23 11 14.9930000  0  7G10G19G 8G13G28G29G27
 -12564365.06247  -9787523.87142  21129503.5214   21129502.5094
       314.1534
 -14059384.89548 -10929624.60543  20369038.6304   20369035.1494
       560.6334
 -25416325.46549 -19768208.54746  18126066.8964   18126064.9704
      2190.2154
   1803665.96947   1417106.48043  20472293.8414   20472293.8724
     -1930.8464
 -21237129.35549 -16526407.87945  19362771.6774   19362769.3964
      3443.7244
  -2080956.12946  -1602511.55942  21794284.6924   21794283.8414
      4631.0144
 -15527893.35948 -12074754.46946  18482146.9894   18482145.3534
      1041.6574
 04  9  7 23 11 29.9930000  0  7G10G19G 8G13G28G29G27
 -12568953.22747  -9791099.08642  21128630.7864   21128629.6304
       305.8784
 -14067656.39847 -10936069.93743  20367464.3574   20367461.1854
       551.4344
 -25449107.13349 -19793752.69146  18119828.4664   18119826.9504
      2185.4454
   1832693.56647   1439725.35243  20477817.6074   20477817.2634
     -1935.1734
 -21288704.43049 -16566596.22345  19352956.9974   19352955.2594
      3438.3384
  -2150381.02346  -1656608.82442  21781073.4504   21781072.2394
      4628.3264
 -15543455.98849 -12086881.18746  18479185.8024   18479183.8574
      1037.5094
 04  9  7 23 11 44.9930000  0  7G10G19G 8G13G28G29G27
 -12573408.38347  -9794570.64542  21127782.9824   21127781.5484
       297.0104
 -14075780.87948 -10942400.71144  20365918.6304   20365915.2714
       541.6324
 -25481808.27049 -19819234.09046  18113606.2324   18113604.1464
      2180.0764
   1861794.84047   1462401.63343  20483355.7554   20483354.5324
     -1940.0854
 -21340189.54349 -16606714.46945  19343159.2394   19343157.5674
      3432.3414
  -2219755.95746  -1710667.22342  21767871.7864   21767869.9424
      4624.9964
 -15558947.19149 -12098952.25046  18476237.8804   18476236.0604
      1032.7474
 04  9  7 23 11 59.9930000  0  7G10G19G 8G13G28G29G27
 -12577733.61347  -9797940.94542  21126959.5674   21126958.2594
       288.3494
 -14083761.35948 -10948619.24643  20364399.4664   20364396.3174
       532.0324
 -25514431.71949 -19844654.95746  18107397.8574   18107396.1854
      2174.8974
   1890966.68448   1485132.91043  20488906.6384   20488906.0014
     -1944.7904
 -21391587.65249 -16646764.91845  19333379.3254   19333376.5604
      3426.5414
  -2289083.69947  -1764688.80942  21754678.8254   21754676.9314
      4621.8494
 -15574369.65649 -12110969.75446  18473303.2944   18473301.3024
      1028.1644
 04  9  7 23 12 14.9930000  0  7G10G19G 8G13G28G29G27
 -12581931.66047  -9801212.16442  21126160.2164   21126159.9974
       279.8704
 -14091600.34848 -10954727.54743  20362907.7634   20362904.4784
       522.5994
 -25546979.68449 -19870017.00846  18101204.4664   18101202.5994
      2169.8644
   1920206.41048   1507917.09043  20494470.7784   20494470.6184
     -1949.3154
 -21442901.08649 -16686749.37945  19323614.5444   19323612.1074
      3420.8964
  -2358366.37947  -1818675.28942  21741494.8724   21741493.2474
      4618.8454
 -15589725.80549 -12122935.58646  18470380.8104   18470379.1494
      1023.7434
 04  9  7 23 12 29.9930000  0  7G10G19G 8G13G28G29G27
 -12586002.93047  -9804384.58642  21125385.3804   21125385.5054
       271.4184
 -14099298.00848 -10960725.73443  20361443.0754   20361439.2124
       513.1774
 -25579452.26649 -19895320.31647  18095024.6854   18095023.1144
      2164.8394
   1949513.43847   1530753.70343  20500048.2084   20500048.3024
     -1953.8024
 -21494129.95349 -16726667.95345  19313866.0604   19313863.6384
      3415.2584
  -2427603.92647  -1872626.61342  21728319.6074   21728318.0714
      4615.8364
 -15605015.79349 -12134849.87546  18467471.2944   18467469.8414
      1019.3334
 04  9  7 23 12 44.9930000  0  7G10G19G 8G13G28G29G27
 -12589947.38747  -9807458.21542  21124635.0284   21124635.1614
       262.9644
 -14106854.29748 -10966613.75043  20360005.2084   20360002.4154
       503.7534
 -25611849.06249 -19920564.56646  18088859.9354   18088858.0404
      2159.7864
   1978887.93447   1553642.88743  20505637.0284   20505637.7514
     -1958.3004
 -21545274.05948 -16766520.47345  19304133.2394   19304131.0404
      3409.6074
  -2496795.53547  -1926542.13742  21715152.8104   21715151.2474
      4612.7744
 -15620239.32849 -12146712.37546  18464574.5444   18464572.5834
      1014.9024
 04  9  7 23 12 59.9930000  0  7G10G19G 8G13G28G29G27
 -12593765.65648  -9810433.47742  21123908.5284   21123908.4704
       254.5514
 -14114269.68448 -10972391.98044  20358594.0284   20358591.2124
       494.3594
 -25644170.34849 -19945749.98046  18082709.7394   18082707.6034
      2154.7524
   2008329.28947   1576584.16043  20511239.9504   20511239.8724
     -1962.7574
 -21596333.66049 -16806307.15645  19294417.1534   19294414.9354
      3403.9734
  -2565941.50447  -1980422.08642  21701994.7714   21701993.0644
      4609.7314
 -15635396.50449 -12158523.16046  18461690.1384   18461688.4584
      1010.4784
 04  9  7 23 13 14.9920000  0  7G10G19G 8G13G28G29G27
 -12597456.46147  -9813309.41842  21123205.7504   21123206.0164
       246.0544
 -14121542.77048 -10978059.30943  20357209.8834   20357206.6294
       484.8724
 -25676412.71549 -19970873.89547  18076573.9304   18076572.2624
      2149.4914
   2037836.24247   1599576.57443  20516855.9924   20516854.3204
     -1967.1304
 -21647304.02349 -16846024.29745  19284717.8994   19284714.9694
      3398.0244
  -2635035.69547  -2034261.70742  21688846.3754   21688844.9654
      4606.2794
 -15650485.23049 -12170280.60946  18458818.6644   18458816.8054
      1005.9154
 04  9  7 23 13 29.9920000  0  7G10G19G 8G13G28G29G27
 -12601022.95347  -9816088.52742  21122527.1334   21122526.9344
       237.7664
 -14128676.70748 -10983618.23443  20355852.7664   20355849.4494
       475.5964
 -25708582.73049 -19995941.43046  18070451.7974   18070450.5744
      2144.6684
   2067410.21148   1622621.18843  20522482.8524   20522481.9964
     -1971.5984
 -21698194.30149 -16885679.02045  19275033.4304   19275031.4534
      3392.6854
  -2704089.34847  -2088069.75442  21675706.1954   21675704.6254
      4603.5774
 -15665509.71149 -12181987.99646  18455959.7034   18455957.5004
      1001.6324
 04  9  7 23 13 44.9920000  0  7G10G19G 8G13G28G29G27
 -12604463.41047  -9818769.40242  21121872.6414   21121872.4814
       229.3644
 -14135669.55548 -10989067.19543  20354521.7584   20354518.9574
       466.1904
 -25740676.55549 -20020949.59847  18064344.9614   18064343.3134
      2139.5884
   2097050.68848   1645717.61343  20528123.8364   20528123.1954
     -1976.0324
 -21748999.34049 -16925267.34445  19265365.8594   19265363.3564
      3387.0034
  -2773095.89547  -2141841.03942  21662574.7974   21662573.2974
      4600.4364
 -15680467.10949 -12193643.10546  18453113.5634   18453111.4614
       997.1604
 04  9  7 23 13 59.9920000  0  7G10G19G 8G13G28G29G27
 -12607780.55147  -9821354.18743  21121241.4844   21121241.2504
       221.1434
 -14142523.86348 -10994408.20743  20353217.5314   20353214.7544
       456.9544
 -25772696.50449 -20045900.21146  18058251.7344   18058250.0354
      2134.6634
   2126754.96948   1668863.78943  20533776.2894   20533775.3794
     -1980.2854
 -21799721.53549 -16964791.10945  19255713.4614   19255711.4104
      3381.4804
  -2842057.44947  -2195577.30942  21649451.3914   21649449.5514
      4597.4374
 -15695359.90249 -12205247.88746  18450279.5164   18450277.5554
       992.8534
 04  9  7 23 14 14.9920000  0  7G10G19G 8G13G28G29G27
 -12610972.10548  -9823841.12143  21120635.0944   21120633.6994
       212.7704
 -14149237.12947 -10999639.31244  20351940.0474   20351937.0044
       447.5514
 -25804639.85549 -20070791.12546  18052173.0554   18052171.6134
      2129.5574
   2156525.40647   1692061.48443  20539440.8754   20539439.6884
     -1984.6964
 -21850358.14849 -17004248.17645  19246077.4694   19246075.4024
      3375.7744
  -2910971.19147  -2249276.28942  21636337.8284   21636335.9574
      4594.2494
 -15710185.37549 -12216800.19946  18447458.1644   18447456.5164
       988.3654
 04  9  7 23 14 29.9920000  0  7G10G19G 8G13G28G29G27
 -12614040.37147  -9826231.97742  21120049.9774   21120050.1414
       204.5514
 -14155811.54747 -11004762.27044  20350689.0944   20350686.2744
       438.2954
 -25836508.59049 -20095623.89846  18046108.7424   18046107.1644
      2124.5824
   2186359.47348   1715308.79343  20545118.5864   20545118.1374
     -1988.9384
 -21900911.30549 -17043640.23045  19236457.6804   19236455.4924
      3370.2104
  -2979838.94547  -2302939.46142  21623232.7584   21623230.5864
      4591.1844
 -15724945.50449 -12228301.60546  18444649.3134   18444647.8634
       984.0094
 04  9  7 23 14 44.9920000  0  7G10G19G 8G13G28G29G27
 -12616983.66047  -9828525.46542  21119489.8134   21119490.9064
       196.2194
 -14162245.42647 -11009775.69544  20349464.7664   20349461.8754
       428.9254
 -25868300.55549 -20120396.85946  18040058.7424   18040057.4494
      2119.4644
   2216259.01247   1738607.10543  20550807.8834   20550807.7934
     -1993.3034
 -21951379.08649 -17082965.75045  19226853.8444   19226851.9264
      3364.5194
  -3048658.30947  -2356564.92242  21610135.9224   21610135.3014
      4587.9584
 -15739638.32849 -12239750.55546  18441853.4454   18441851.7744
       979.5224
 04  9  7 23 14 59.9920000  0  8G10G19G 8G13G28G29G31G27
 -12619805.66447  -9830724.43743  21118953.7114   21118952.8014
       188.1344
 -14168542.10547 -11014682.19543  20348266.3594   20348263.3284
       419.7794
 -25900019.24649 -20145112.71946  18034023.1804   18034021.2034
      2114.5794
   2246220.30147   1761953.53943  20556509.3364   20556509.4104
     -1997.4194
 -22001764.75049 -17122227.27345  19217266.1564   19217263.5704
      3359.0444
  -3117432.52047  -2410155.17642  21597049.5634   21597047.9064
      4584.9474
   -218178.40656   -147629.93052  21718414.4534   21718417.5984

 -15754267.11749 -12251149.60946  18439069.5244   18439067.6804
       975.2534
 04  9  7 23 15 14.9920000  0  8G10G19G 8G13G28G29G31G27
 -12622502.08248  -9832825.54742  21118440.3914   21118439.7854
       179.7614
 -14174697.32447 -11019478.45343  20347095.1024   20347092.0044
       410.3484
 -25931660.16449 -20169767.98446  18028001.8914   18028000.1094
      2109.3954
   2276247.53148   1785351.35543  20562223.4774   20562222.9964
     -2001.8154
 -22052063.85549 -17161421.35945  19207694.4454   19207691.7544
      3353.2744
  -3186156.82847  -2463706.58642  21583971.4064   21583969.9224
      4581.6214
   -298374.73446   -210120.50042  21703153.4224   21703155.1334
      5346.4224
 -15768827.43049 -12262495.30546  18436298.7504   18436297.1454
       970.6884
 04  9  7 23 15 29.9920000  0  8G10G19G 8G13G28G29G31G27
 -12625079.76647  -9834834.14142  21117949.6884   21117949.1524
       171.8464
 -14180717.78947 -11024169.73443  20345949.7974   20345946.1644
       401.3644
 -25963229.57849 -20194367.52346  18021994.7034   18021992.7774
      2104.6284
   2306333.78548   1808795.14843  20567948.1094   20567948.0664
     -2005.7504
 -22102282.94149 -17200553.10245  19198138.2194   19198135.2314
      3347.9394
  -3254837.50047  -2517223.96542  21570901.6884   21570899.9814
      4578.7114
   -378566.44546   -272607.46142  21687893.0474   21687896.1294
      5346.1144
 -15783325.70749 -12273792.67246  18433540.1494   18433538.0514
       966.5524
 04  9  7 23 15 44.9920000  0  8G10G19G 8G13G28G29G31G27
 -12627537.71147  -9836749.43743  21117481.9694   21117481.8594
       163.8634
 -14186602.35547 -11028755.11344  20344829.3054   20344826.5554
       392.3044
 -25994726.11749 -20218910.27046  18016000.6334   18015999.0084
      2099.7694
   2336480.09848   1832285.73043  20573685.4534   20573684.6954
     -2009.7544
 -22152420.64149 -17239621.41045  19188597.6334   19188594.7974
      3342.5134
  -3323472.93047  -2570706.09442  21557841.2664   21557839.7774
      4575.6954
   -458751.91445   -335089.54742  21672634.9844   21672636.5354
      5345.6984
 -15797760.67249 -12285040.69546  18430793.1884   18430791.7194
       962.3314
 04  9  7 23 15 59.9920000  0  8G10G19G 8G13G28G29G31G27
 -12629876.45347  -9838571.84442  21117037.2274   21117036.9964
       155.9164
 -14192351.35547 -11033234.83644  20343735.6024   20343732.5244
       383.2674
 -26026150.23849 -20243396.60546  18010021.4614   18010019.1684
      2094.9414
   2366685.94948   1855822.73443  20579433.4454   20579432.5244
     -2013.7234
 -22202477.15649 -17278626.46545  19179071.4774   19179069.0634
      3337.1014
  -3392063.05147  -2624152.91842  21544788.6254   21544787.7744
      4572.6754
   -538931.09046   -397566.72342  21657376.9224   21657378.3754
      5345.2784
 -15812132.34049 -12296239.39846  18428058.5244   18428056.8164
       958.1114
 04  9  7 23 16 14.9920000  0  8G10G19G 8G13G28G29G31G27
 -12632094.80147  -9840300.42643  21116615.0704   21116615.3364
       147.8904
 -14197963.54747 -11037607.98844  20342667.5944   20342664.5554
       374.1464
 -26057500.12949 -20267825.09046  18004055.5244   18004053.6954
      2089.9934
   2396952.52047   1879407.05143  20585192.3444   20585192.5124
     -2017.7714
 -22252451.05149 -17317567.14545  19169561.7744   19169559.7314
      3331.5934
  -3460606.20347  -2677563.14142  21531746.3914   21531743.4844
      4569.5434
   -619102.24646   -460037.62142  21642120.3054   21642122.9264
      5344.7444
 -15826439.26649 -12307387.65246  18425335.6024   18425333.7934
       953.7954
 04  9  7 23 16 29.9920000  0  8G10G19G 8G13G28G29G31G27
 -12634195.32446  -9841937.20742  21116215.1024   21116214.8484
       140.0354
 -14203441.27047 -11041876.34043  20341625.3834   20341621.3794
       365.1824
 -26088778.05949 -20292197.50046  17998103.5084   17998101.3994
      2085.1954
   2427277.25847   1903036.67643  20590963.6254   20590963.6804
     -2021.6494
 -22302344.60549 -17356445.21945  19160067.2814   19160065.0204
      3326.2374
  -3529104.34447  -2730938.28142  21518710.2504   21518708.8324
      4566.5434
   -699267.22746   -522503.75042  21626866.2894   21626867.3324
      5344.3324
 -15840683.70749 -12318487.22346  18422624.6494   18422623.2744
       949.6294
 04  9  7 23 16 44.9920000  0  8G10G19G 8G13G28G29G31G27
 -12636175.36747  -9843480.12142  21115838.1494   21115837.9344
       132.0034
 -14208781.85547 -11046037.82843  20340609.2114   20340605.6094
       356.0394
 -26119981.15649 -20316511.60246  17992165.6254   17992163.6454
      2080.2074
   2457662.74647   1926713.64543  20596745.8594   20596745.6644
     -2025.6994
 -22352154.87149 -17395258.39145  19150589.1564   19150586.5864
      3320.6844
  -3597554.16847  -2784275.75842  21505685.8364   21505684.1994
      4563.3224
   -779422.84446   -584962.55542  21611612.9064   21611614.4814
      5343.7084
 -15854862.68449 -12329535.77346  18419926.8594   18419925.1064
       945.2654
 04  9  7 23 16 59.9920000  0  8G10G19G 8G13G28G29G31G27
 -12638036.31247  -9844930.19142  21115484.3594   21115483.9144
       124.0634
 -14213986.55947 -11050093.46543  20339618.6644   20339614.4064
       346.9804
 -26151110.20349 -20340768.00046  17986242.0164   17986240.0704
      2075.2704
   2488107.64147   1950436.89143  20602539.0474   20602539.2384
     -2029.6604
 -22401882.95349 -17434007.51645  19141126.0314   19141123.9104
      3315.2054
  -3665956.80147  -2837576.47342  21492668.4224   21492667.4964
      4560.1764
   -859569.85546   -647414.65642  21596360.9774   21596363.3564
      5343.1344
 -15868977.25849 -12340534.14146  18417241.2664   18417239.4384
       940.9724
 04  9  7 23 17 14.9920000  0  8G10G19G 8G13G28G29G31G27
 -12639776.20747  -9846285.96942  21115153.1094   21115152.4774
       115.9934
 -14219053.31247 -11054041.56643  20338654.3994   20338650.9384
       337.7844
 -26182163.13749 -20364965.09046  17980332.6884   17980331.0164
      2070.1964
   2518613.66047   1974207.78143  20608344.1644   20608343.7584
     -2033.7354
 -22451526.66049 -17472690.89845  19131678.8834   19131676.5044
      3309.5804
  -3734309.51247  -2890838.32442  21479660.5244   21479659.8324
      4556.8474
   -939705.89545   -709858.26242  21581111.2504   21581113.2234
      5342.4034
 -15883025.14549 -12351480.55146  18414567.8204   18414566.3404
       936.5264
 04  9  7 23 17 29.9920000  0  8G10G19G 8G13G28G29G31G27
 -12641397.25046  -9847549.11742  21114845.0474   21114844.1724
       108.0704
 -14223984.01247 -11057883.67243  20337716.0244   20337712.8594
       328.7134
 -26213141.82449 -20389104.31647  17974437.4304   17974436.0514
      2065.2464
   2549178.70347   1998024.66443  20614160.6724   20614159.6954
     -2037.6704
 -22501087.77749 -17511309.92245  19122247.6334   19122244.9774
      3304.0744
  -3802614.08247  -2944062.62142  21466663.2424   21466662.4884
      4553.6384
  -1019832.37145   -772294.34842  21565863.9774   21565866.0164
      5341.7654
 -15897008.18748 -12362376.43046  18411906.7274   18411905.1724
       932.2034
 04  9  7 23 17 44.9920000  0  8G10G19G 8G13G28G29G31G27
 -12642897.75047  -9848718.33642  21114559.5634   21114558.9144
       100.0334
 -14228776.91848 -11061618.40244  20336804.5944   20336801.0354
       319.5274
 -26244044.06649 -20413183.98846  17968557.1494   17968555.8754
      2060.1494
   2579804.59447   2021888.95743  20619989.1094   20619987.4064
     -2041.7264
 -22550564.28149 -17549863.03145  19112832.5314   19112830.7974
      3298.4344
  -3870868.09447  -2997247.54742  21453674.8364   21453673.7194
      4550.2674
  -1099946.87946   -834721.11342  21550618.9144   21550619.8754
      5340.9674
 -15910924.31249 -12373220.17246  18409258.6804   18409257.4064
       927.7424
 04  9  7 23 17 59.9920000  0  8G10G19G 8G13G28G29G31G27
 -12644279.52747  -9849795.08242  21114296.2894   21114295.9024
        92.1184
 -14233433.80948 -11065247.14844  20335917.9384   20335915.1604
       310.4594
 -26274871.25449 -20437205.16846  17962690.8444   17962689.2504
      2055.1464
   2610489.44947   2045799.18843  20625827.7034   20625827.3594
     -2045.6574
 -22599957.59849 -17588351.29745  19103433.3834   19103431.0944
      3292.8884
  -3939072.68746  -3050393.96542  21440696.2664   21440694.9534
      4546.9734
  -1180050.69545   -897139.55542  21535374.9224   21535376.1724
      5340.2544
 -15924775.00049 -12384012.91046  18406622.8054   18406621.3404
       923.3794
 04  9  7 23 18 14.9920000  0  8G10G19G 8G13G28G29G31G27
 -12645541.53146  -9850778.47742  21114056.9224   21114054.9144
        84.1344
 -14237953.37548 -11068768.88344  20335058.4384   20335055.8484
       301.3044
 -26305621.94949 -20461166.75446  17956839.6494   17956837.6174
      2050.0464
   2641234.29747   2069756.17642  20631678.5244   20631678.3994
     -2049.6574
 -22649266.50449 -17626773.78945  19094050.0944   19094048.3284
      3287.2604
  -4007226.50047  -3103500.79742  21427727.4454   21427726.2854
      4543.5884
  -1260142.13746   -959548.38742  21520134.4694   21520135.5904
      5339.4294
 -15938558.83249 -12394753.55946  18404000.2114   18403998.7034
       918.9224
 04  9  7 23 18 29.9920000  0  8G10G19G 8G13G28G29G31G27
 -12646684.66846  -9851669.24642  21113839.6954   21113837.9654
        76.2094
 -14242336.41847 -11072184.25443  20334223.3134   20334220.6644
       292.2034
 -26336296.73449 -20485069.17246  17951001.9144   17951000.4454
      2044.9864
   2672038.20747   2093759.17643  20637540.2744   20637540.1374
     -2053.5944
 -22698491.48049 -17665130.90245  19084683.0084   19084680.4844
      3281.6654
  -4075329.70747  -3156568.17642  21414767.0164   21414766.2464
      4540.2144
  -1340221.50446  -1021947.81642  21504895.0944   21504896.3914
      5338.6244
 -15952276.36349 -12405442.55946  18401389.8284   18401387.9614
       914.5024
 04  9  7 23 18 44.9920000  0  8G10G19G 8G13G28G29G31G27
 -12647705.20347  -9852464.46542  21113643.9064   21113644.6134
        68.0364
 -14246579.04747 -11075490.19144  20333416.8134   20333414.0354
       282.8424
 -26366891.54349 -20508909.28946  17945180.2744   17945178.4924
      2039.6544
   2702904.91047   2117811.12143  20643413.6414   20643413.8014
     -2057.7804
 -22747628.57449 -17703419.50845  19075332.2584   19075329.8874
      3275.8064
  -4143378.05947  -3209592.85542  21401817.6334   21401816.9304
      4536.5574
  -1420284.46146  -1084334.42642  21489660.0164   21489661.0824
      5337.5304
 -15965923.55549 -12416076.71946  18398792.9694   18398791.3834
       909.8134
 04  9  7 23 18 59.9920000  0  8G10G19G 8G13G28G29G31G27
 -12648603.51247  -9853164.46542  21113473.0944   21113472.8204
        59.8874
 -14250681.52048 -11078686.94544  20332635.9224   20332633.0044
       273.4984
 -26397406.36349 -20532687.07446  17939373.3834   17939371.8364
      2034.3214
   2733834.16047   2141911.78943  20649299.2744   20649300.2234
     -2061.9504
 -22796677.80549 -17741639.67245  19065998.7424   19065996.6294
      3269.9494
  -4211371.28947  -3262574.56242  21388879.4304   21388877.6764
      4532.8824
  -1500330.74246  -1146708.04342  21474427.1334   21474428.2114
      5336.4194
 -15979500.37949 -12426656.07046  18396209.1954   18396207.3674
       905.1224
 04  9  7 23 19 14.9920000  0  8G10G19G 8G13G28G29G31G27
 -12649380.52046  -9853769.93042  21113325.4774   21113325.6994
        51.8014
 -14254644.70348 -11081775.12544  20331881.6024   20331878.6094
       264.2124
 -26427841.82849 -20556403.01247  17933581.5864   17933580.1644
      2029.0314
   2764824.92247   2166060.38743  20655197.1024   20655196.9344
     -2066.0514
 -22845639.84049 -17779791.87945  19056681.6644   19056679.5704
      3264.1364
  -4279309.91847  -3315513.71542  21375951.4614   21375949.0824
      4529.2424
  -1580360.66446  -1209068.94542  21459197.8134   21459198.8954
      5335.3284
 -15993007.53149 -12437181.11746  18393638.6644   18393637.1844
       900.4774
 04  9  7 23 19 29.9920000  0  8G10G19G 8G13G28G29G31G27
 -12650038.23046  -9854282.42642  21113199.3364   21113199.4774
        43.8474
 -14258470.42248 -11084756.21544  20331154.1954   20331150.6454
       255.0484
 -26458199.41849 -20580058.27347  17927804.7894   17927803.1914
      2023.8394
   2795875.13747   2190255.33643  20661105.4304   20661105.1064
     -2070.0144
 -22894516.30149 -17817877.41045  19047380.5004   19047378.2814
      3258.4314
  -4347195.17647  -3368411.28942  21363033.6494   21363031.1334
      4525.6844
  -1660375.61746  -1271418.12942  21443972.2194   21443972.9024
      5334.3304
 -16006446.57849 -12447653.11346  18391081.0004   18391079.7584
       895.9364
 04  9  7 23 19 44.9920000  0  8G10G19G 8G13G28G29G31G27
 -12650577.44946  -9854702.62542  21113097.8524   21113097.5204
        35.9484
 -14262159.37548 -11087630.72744  20330451.4064   20330449.2234
       245.9304
 -26488479.59849 -20603653.21547  17922042.3594   17922040.9184
      2018.6794
   2826984.02747   2214496.00442  20667026.2814   20667025.2624
     -2073.9264
 -22943307.91449 -17855896.82445  19038096.1804   19038093.4104
      3252.7744
  -4415027.42647  -3421267.57442  21350124.4144   21350123.3794
      4522.1504
  -1740375.79746  -1333755.80942  21428748.5634   21428749.3444
      5333.3454
 -16019817.98849 -12458072.39846  18388537.2504   18388535.4104
       891.4274
 04  9  7 23 19 59.9920000  0  8G10G19G 8G13G28G29G31G27
 -12650996.42246  -9855029.11342  21113017.6254   21113018.0164
        27.9324
 -14265709.65248 -11090397.18744  20329776.0864   20329773.5004
       236.6854
 -26518680.44149 -20627186.34047  17916295.6334   17916294.1214
      2013.3904
   2858153.34447   2238783.74242  20672957.0474   20672956.9454
     -2077.9544
 -22992012.38349 -17893848.33645  19028827.8674   19028825.1604
      3246.9654
  -4482804.36747  -3474080.74642  21337227.0944   21337225.4844
      4518.4634
  -1820358.78147  -1396080.11342  21413528.7894   21413529.0124
      5332.1994
 -16033119.60949 -12468437.29746  18386005.5314   18386004.2424
       886.7754
 04  9  7 23 20 14.9920000  0  8G10G19G 8G13G28G29G31G27
 -12651294.98446  -9855261.77742  21112960.8754   21112961.1564
        19.9044
 -14269121.02048 -11093055.40244  20329126.9454   20329124.3994
       227.4244
 -26548801.28949 -20650657.12147  17910563.8674   17910562.3284
      2008.0574
   2889383.23847   2263118.68043  20678900.5634   20678899.8244
     -2081.9934
 -23040629.20749 -17931731.55545  19019576.4614   19019573.7234
      3241.1224
  -4550525.14847  -3526850.18442  21324340.1094   21324338.6764
      4514.7194
  -1900323.74647  -1458390.38742  21398311.8524   21398312.2774
      5330.9984
 -16046351.01649 -12478747.48846  18383487.6094   18383486.2974
       882.0944
 04  9  7 23 20 29.9920000  0  8G10G19G 8G13G28G29G31G27
 -12651477.16846  -9855403.75442  21112925.7344   21112926.3954
        12.1464
 -14272397.21548 -11095608.27743  20328503.5244   20328500.2234
       218.4134
 -26578845.67249 -20674068.32447  17904846.2744   17904844.8914
      2002.9594
   2920669.73847   2287497.74242  20684853.3914   20684853.2934
     -2085.7674
 -23089162.21149 -17969549.46145  19010340.4924   19010338.1064
      3235.5344
  -4618193.18047  -3579578.49642  21311463.7274   21311461.1994
      4511.2024
  -1980274.12147  -1520689.26642  21383097.2194   21383098.5244
      5330.0254
 -16059515.77749 -12489005.75446  18380982.8284   18380981.1334
       877.6514
 04  9  7 23 20 44.9920000  0  8G10G19G 8G13G28G29G31G27
 -12651541.47346  -9855453.88742  21112914.7114   21112914.0314
         4.2874
 -14275536.68448 -11098054.61344  20327906.6494   20327903.0904
       209.2984
 -26608811.93449 -20697418.65647  17899144.1254   17899142.6254
      1997.7514
   2952014.24647   2311921.98843  20690818.3834   20690818.6644
     -2089.6344
 -23137609.66449 -18007300.69545  19001121.3524   19001118.7774
      3229.8304
  -4685806.59447  -3632264.21542  21298596.7744   21298595.5044
      4507.5614
  -2060207.88747  -1582975.19542  21367886.3524   21367887.0984
      5328.9184
 -16072612.04349 -12499210.63746  18378491.1414   18378488.8134
       873.0844
 04  9  7 23 20 59.9920000  0  8G10G19G 8G13G28G29G31G27
 -12651488.55946  -9855412.67242  21112924.1024   21112924.4264
        -3.5284
 -14278540.01248 -11100394.85243  20327334.3284   20327331.5044
       200.2224
 -26638700.23049 -20720708.24246  17893456.7504   17893455.2624
      1992.5534
   2983416.15647   2336390.97343  20696793.7584   20696794.3994
     -2093.4614
 -23185971.71549 -18044985.39545  18991918.3674   18991915.8094
      3224.1374
  -4753365.34847  -3684907.39142  21285741.4304   21285739.2074
      4503.9174
  -2140124.95347  -1645248.12542  21352677.7034   21352678.9144
      5327.8044
 -16085640.26649 -12509362.50046  18376011.4694   18376009.7384
       868.5484
 04  9  7 23 21 14.9920000  0  8G10G19G 8G13G28G29G31G27
 -12651316.67246  -9855278.74242  21112957.4224   21112956.9264
       -11.4594
 -14281405.26647 -11102627.50443  20326789.9064   20326786.2234
       191.0174
 -26668508.46949 -20743935.43446  17887784.4924   17887782.9064
      1987.2164
   3014877.25047   2360906.08642  20702781.0164   20702780.6094
     -2097.4064
 -23234246.47349 -18082602.06645  18982732.2424   18982729.6094
      3218.3174
  -4820867.06247  -3737506.13342  21272895.2344   21272893.8134
      4500.1144
  -2220022.93747  -1707506.21142  21337473.4384   21337474.6684
      5326.5324
 -16098598.30149 -12519459.66846  18373545.5314   18373543.7704
       863.8694
 04  9  7 23 21 29.9920000  0  8G10G19G 8G13G28G29G31G27
 -12651029.78547  -9855055.22742  21113011.1334   21113011.4414
       -19.1264
 -14284136.28147 -11104755.57042  20326269.3524   20326266.5044
       182.0684
 -26698240.13349 -20767102.95746  17882126.6254   17882124.9964
      1982.1114
   3046393.52347   2385464.19943  20708777.8754   20708778.0634
     -2101.0854
 -23282437.48049 -18120153.47345  18973561.1174   18973558.8994
      3212.7344
  -4888315.14547  -3790063.04342  21260061.0394   21260058.9654
      4496.5394
  -2299905.23447  -1769752.07842  21322272.9924   21322273.6134
      5325.4864
 -16111489.60549 -12529504.84846  18371092.5004   18371090.9344
       859.4204
